[[{"header":{"parameterUnit":"m.s-1","parameterCategory":1,"la1":30.6,"la2":28.766,"lo1":-90.7593,"lo2":-88.6598,"dy":0.0162,"dx":0.0183,"nx":116,"ny":114,"refTime":"2023-09-03T00:00:00:Z","depth":0,"parameterNumber":2,"parameterNumberName":"U-component_of_WINDS"},"data":[0.0,0.0,0.0,0.0,0.0,0.0,0.0,0.0,0.0,0.0,0.0,0.0,0.0,0.0,0.0,0.0,0.0,0.0,0.0,0.0,0.0,0.0,0.0,0.0,0.0,0.0,0.0,0.0,0.0,0.0,0.0,0.0,0.0,0.0,0.0,0.0,0.0,0.0,0.0,0.0,0.0,0.0,0.0,0.0,0.0,0.0,0.0,0.0,0.0,0.0,0.0,0.0,0.0,0.0,0.0,0.0,0.0,0.0,0.0,0.0,0.0,0.0,0.0,0.0,0.0,0.0,0.0,0.0,0.0,0.0,0.0,0.0,0.0,0.0,0.0,0.0,0.0,0.0,0.0,0.0,0.0,0.0,0.0,0.0,0.0,0.0,0.0,0.0,0.0,0.0,0.0,0.0,0.0,0.0,0.0,0.0,0.0,0.0,0.0,0.0,0.0,0.0,0.0,0.0,0.0,0.0,0.0,0.0,0.0,0.0,0.0,0.0,0.0,0.0,0.0,0.0,0.0,0.0,0.0,0.0,0.0,0.0,0.0,0.0,0.0,0.0,0.0,0.0,0.0,0.0,0.0,0.0,0.0,0.0,0.0,0.0,0.0,0.0,0.0,0.0,0.0,0.0,0.0,0.0,0.0,0.0,0.0,0.0,0.0,0.0,0.0,0.0,0.0,0.0,0.0,0.0,0.0,0.0,0.0,0.0,0.0,0.0,0.0,0.0,0.0,0.0,0.0,0.0,0.0,0.0,0.0,0.0,0.0,0.0,0.0,0.0,0.0,0.0,0.0,0.0,0.0,0.0,0.0,0.0,0.0,0.0,0.0,0.0,0.0,0.0,0.0,0.0,0.0,0.0,0.0,0.0,0.0,0.0,0.0,0.0,0.0,0.0,0.0,0.0,0.0,0.0,0.0,0.0,0.0,0.0,0.0,0.0,0.0,0.0,0.0,0.0,0.0,0.0,0.0,0.0,0.0,0.0,0.0,0.0,0.0,0.0,0.0,0.0,0.0,0.0,0.0,0.0,0.0,0.0,0.0,0.0,0.0,0.0,0.0,0.0,0.0,0.0,0.0,0.0,0.0,0.0,0.0,0.0,0.0,0.0,0.0,0.0,0.0,0.0,0.0,0.0,0.0,0.0,0.0,0.0,0.0,0.0,0.0,0.0,0.0,0.0,0.0,0.0,0.0,0.0,0.0,0.0,0.0,0.0,0.0,0.0,0.0,0.0,0.0,0.0,0.0,0.0,0.0,0.0,0.0,0.0,0.0,0.0,0.0,0.0,0.0,0.0,0.0,0.0,0.0,0.0,0.0,0.0,0.0,0.0,0.0,0.0,0.0,0.0,0.0,0.0,0.0,0.0,0.0,0.0,0.0,0.0,0.0,0.0,0.0,0.0,0.0,0.0,0.0,0.0,0.0,0.0,0.0,0.0,0.0,0.0,0.0,0.0,0.0,0.0,0.0,0.0,0.0,0.0,0.0,0.0,0.0,0.0,0.0,0.0,0.0,0.0,0.0,0.0,0.0,0.0,0.0,0.0,0.0,0.0,0.0,0.0,0.0,0.0,0.0,0.0,0.0,0.0,0.0,0.0,0.0,0.0,0.0,0.0,0.0,0.0,0.0,0.0,0.0,0.0,0.0,0.0,0.0,0.0,0.0,0.0,0.0,0.0,0.0,0.0,0.0,0.0,0.0,0.0,0.0,0.0,0.0,0.0,0.0,0.0,0.0,0.0,0.0,0.0,0.0,0.0,0.0,0.0,0.0,0.0,0.0,0.0,0.0,0.0,0.0,0.0,0.0,0.0,0.0,0.0,0.0,0.0,0.0,0.0,0.0,0.0,0.0,0.0,0.0,0.0,0.0,0.0,0.0,0.0,0.0,0.0,0.0,0.0,0.0,0.0,0.0,0.0,0.0,0.0,0.0,0.0,0.0,0.0,0.0,0.0,0.0,0.0,0.0,0.0,0.0,0.0,0.0,0.0,0.0,0.0,0.0,0.0,0.0,0.0,0.0,0.0,0.0,0.0,0.0,0.0,0.0,0.0,0.0,0.0,0.0,0.0,0.0,0.0,0.0,0.0,0.0,0.0,0.0,0.0,0.0,0.0,0.0,0.0,0.0,0.0,0.0,0.0,0.0,0.0,0.0,0.0,0.0,0.0,0.0,0.0,0.0,0.0,0.0,0.0,0.0,0.0,0.0,0.0,0.0,0.0,0.0,0.0,0.0,0.0,0.0,0.0,0.0,0.0,0.0,0.0,0.0,0.0,0.0,0.0,0.0,0.0,0.0,0.0,0.0,0.0,0.0,0.0,0.0,0.0,0.0,0.0,0.0,0.0,0.0,0.0,0.0,0.0,0.0,0.0,0.0,0.0,0.0,0.0,0.0,0.0,0.0,0.0,0.0,0.0,0.0,0.0,0.0,0.0,0.0,0.0,0.0,0.0,0.0,0.0,0.0,0.0,0.0,0.0,0.0,0.0,0.0,0.0,0.0,0.0,0.0,0.0,0.0,0.0,0.0,0.0,0.0,0.0,0.0,0.0,0.0,0.0,0.0,0.0,0.0,0.0,0.0,0.0,0.0,0.0,0.0,0.0,0.0,0.0,0.0,0.0,0.0,0.0,0.0,0.0,0.0,0.0,0.0,0.0,0.0,0.0,0.0,0.0,0.0,0.0,0.0,0.0,0.0,0.0,0.0,0.0,0.0,0.0,0.0,0.0,0.0,0.0,0.0,0.0,0.0,0.0,0.0,0.0,0.0,0.0,0.0,0.0,0.0,0.0,0.0,0.0,0.0,0.0,0.0,0.0,0.0,0.0,0.0,0.0,0.0,0.0,0.0,0.0,0.0,0.0,0.0,0.0,0.0,0.0,0.0,0.0,0.0,0.0,0.0,0.0,0.0,0.0,0.0,0.0,0.0,0.0,0.0,0.0,0.0,0.0,0.0,0.0,0.0,0.0,0.0,0.0,0.0,0.0,0.0,0.0,0.0,0.0,0.0,0.0,0.0,0.0,0.0,0.0,0.0,0.0,0.0,0.0,0.0,0.0,0.0,0.0,0.0,0.0,0.0,0.0,0.0,0.0,0.0,0.0,0.0,0.0,0.0,0.0,0.0,0.0,0.0,0.0,0.0,0.0,0.0,0.0,0.0,0.0,0.0,0.0,0.0,0.0,0.0,0.0,0.0,0.0,0.0,0.0,0.0,0.0,0.0,0.0,0.0,0.0,0.0,0.0,0.0,0.0,0.0,0.0,0.0,0.0,0.0,0.0,0.0,0.0,0.0,0.0,0.0,0.0,0.0,0.0,0.0,0.0,0.0,0.0,0.0,0.0,0.0,0.0,0.0,0.0,0.0,0.0,0.0,0.0,0.0,0.0,0.0,0.0,0.0,0.0,0.0,0.0,0.0,0.0,0.0,0.0,0.0,0.0,0.0,0.0,0.0,0.0,0.0,0.0,0.0,0.0,0.0,0.0,0.0,0.0,0.0,0.0,0.0,0.0,0.0,0.0,0.0,0.0,0.0,0.0,0.0,0.0,0.0,0.0,0.0,0.0,0.0,0.0,0.0,0.0,0.0,0.0,0.0,0.0,0.0,0.0,0.0,0.0,0.0,0.0,0.0,0.0,0.0,0.0,0.0,0.0,0.0,0.0,0.0,0.0,0.0,0.0,0.0,0.0,0.0,0.0,0.0,0.0,0.0,0.0,0.0,0.0,0.0,0.0,0.0,0.0,0.0,0.0,0.0,0.0,0.0,0.0,0.0,0.0,0.0,0.0,0.0,0.0,0.0,0.0,0.0,0.0,0.0,0.0,0.0,0.0,0.0,0.0,0.0,0.0,0.0,0.0,0.0,0.0,0.0,0.0,0.0,0.0,0.0,0.0,0.0,0.0,0.0,0.0,0.0,0.0,0.0,0.0,0.0,0.0,0.0,0.0,0.0,0.0,0.0,0.0,0.0,0.0,0.0,0.0,0.0,0.0,0.0,0.0,0.0,0.0,0.0,0.0,0.0,0.0,0.0,0.0,0.0,0.0,0.0,0.0,0.0,0.0,0.0,0.0,0.0,0.0,0.0,0.0,0.0,0.0,0.0,0.0,0.0,0.0,0.0,0.0,0.0,0.0,0.0,0.0,0.0,0.0,0.0,0.0,0.0,0.0,0.0,0.0,0.0,0.0,0.0,0.0,0.0,0.0,0.0,0.0,0.0,0.0,0.0,0.0,0.0,0.0,0.0,0.0,0.0,0.0,0.0,0.0,0.0,0.0,0.0,0.0,0.0,0.0,0.0,0.0,0.0,0.0,0.0,0.0,0.0,0.0,0.0,0.0,0.0,0.0,0.0,0.0,0.0,0.0,0.0,0.0,0.0,0.0,0.0,0.0,0.0,0.0,0.0,0.0,0.0,0.0,0.0,0.0,0.0,0.0,0.0,0.0,0.0,0.0,0.0,0.0,0.0,0.0,0.0,0.0,0.0,0.0,0.0,0.0,0.0,0.0,0.0,0.0,0.0,0.0,0.0,0.0,0.0,0.0,0.0,0.0,0.0,0.0,0.0,0.0,0.0,0.0,0.0,0.0,0.0,0.0,0.0,0.0,0.0,0.0,0.0,0.0,0.0,0.0,0.0,0.0,0.0,0.0,0.0,0.0,0.0,0.0,0.0,0.0,0.0,0.0,0.0,0.0,0.0,0.0,0.0,0.0,0.0,0.0,0.0,0.0,0.0,0.0,0.0,0.0,0.0,0.0,0.0,0.0,0.0,0.0,0.0,0.0,0.0,0.0,0.0,0.0,0.0,0.0,0.0,0.0,0.0,0.0,0.0,0.0,0.0,0.0,0.0,0.0,0.0,0.0,0.0,0.0,0.0,0.0,0.0,0.0,0.0,0.0,0.0,0.0,0.0,0.0,0.0,0.0,0.0,0.0,0.0,0.0,0.0,0.0,0.0,0.0,0.0,0.0,0.0,0.0,0.0,0.0,0.0,0.0,0.0,0.0,0.0,0.0,0.0,0.0,0.0,0.0,0.0,0.0,0.0,0.0,0.0,0.0,0.0,0.0,0.0,0.0,0.0,0.0,0.0,0.0,0.0,0.0,0.0,0.0,0.0,0.0,0.0,0.0,0.0,0.0,0.0,0.0,0.0,0.0,0.0,0.0,0.0,0.0,0.0,0.0,0.0,0.0,0.0,0.0,0.0,0.0,0.0,0.0,0.0,0.0,0.0,0.0,0.0,0.0,0.0,0.0,0.0,0.0,0.0,0.0,0.0,0.0,0.0,0.0,0.0,0.0,0.0,0.0,0.0,0.0,0.0,0.0,0.0,0.0,0.0,0.0,0.0,0.0,0.0,0.0,0.0,0.0,0.0,0.0,0.0,0.0,0.0,0.0,0.0,0.0,0.0,0.0,0.0,0.0,0.0,0.0,0.0,0.0,0.0,0.0,0.0,0.0,0.0,0.0,0.0,0.0,0.0,0.0,0.0,0.0,0.0,0.0,0.0,0.0,0.0,0.0,0.0,0.0,0.0,0.0,0.0,0.0,0.0,0.0,0.0,0.0,0.0,0.0,0.0,0.0,0.0,0.0,0.0,0.0,0.0,0.0,0.0,0.0,0.0,0.0,0.0,0.0,0.0,0.0,0.0,0.0,0.0,0.0,0.0,0.0,0.0,0.0,0.0,0.0,0.0,0.0,0.0,0.0,0.0,0.0,0.0,0.0,0.0,0.0,0.0,0.0,0.0,0.0,0.0,0.0,0.0,0.0,0.0,0.0,0.0,0.0,0.0,0.0,0.0,0.0,0.0,0.0,0.0,0.0,0.0,0.0,0.0,0.0,0.0,0.0,0.0,0.0,0.0,0.0,0.0,0.0,0.0,0.0,0.0,0.0,0.0,0.0,0.0,0.0,0.0,0.0,0.0,0.0,0.0,0.0,0.0,0.0,0.0,0.0,0.0,0.0,0.0,0.0,0.0,0.0,0.0,0.0,0.0,0.0,0.0,0.0,0.0,0.0,0.0,0.0,0.0,0.0,0.0,0.0,0.0,0.0,0.0,0.0,0.0,0.0,0.0,0.0,0.0,0.0,0.0,0.0,0.0,0.0,0.0,0.0,0.0,0.0,0.0,0.0,-1.4056,-1.342,0.0,0.0,0.0,0.0,0.0,0.0,0.0,0.0,0.0,0.0,0.0,0.0,0.0,0.0,0.0,0.0,0.0,0.0,0.0,0.0,0.0,0.0,0.0,0.0,0.0,0.0,0.0,0.0,0.0,0.0,0.0,0.0,0.0,0.0,0.0,0.0,0.0,-1.1578,-1.1519,-1.1438,-1.136,-1.1023,-1.0483,-0.9777,0.0,0.0,0.0,0.0,0.0,0.0,0.0,0.0,0.0,0.0,0.0,0.0,0.0,0.0,0.0,0.0,0.0,0.0,0.0,0.0,0.0,0.0,0.0,0.0,0.0,0.0,0.0,0.0,0.0,0.0,0.0,0.0,0.0,0.0,0.0,0.0,0.0,0.0,0.0,0.0,0.0,0.0,0.0,0.0,0.0,0.0,0.0,0.0,0.0,0.0,0.0,0.0,0.0,0.0,0.0,0.0,0.0,0.0,0.0,0.0,0.0,0.0,0.0,0.0,0.0,0.0,0.0,0.0,0.0,0.0,-1.56,-1.4904,0.0,0.0,0.0,0.0,0.0,0.0,0.0,0.0,0.0,0.0,0.0,0.0,0.0,0.0,0.0,0.0,0.0,0.0,0.0,0.0,0.0,0.0,0.0,-1.3476,-1.3658,-1.3763,-1.3539,-1.3338,0.0,0.0,0.0,0.0,0.0,0.0,0.0,-1.2427,-1.2353,-1.2215,-1.2289,-1.2353,-1.2396,-1.2289,-1.1612,-1.048,-1.0226,0.0,0.0,0.0,0.0,0.0,0.0,0.0,0.0,0.0,0.0,0.0,0.0,0.0,0.0,0.0,0.0,0.0,0.0,0.0,0.0,0.0,0.0,0.0,0.0,0.0,0.0,0.0,0.0,0.0,0.0,0.0,0.0,0.0,0.0,0.0,0.0,0.0,0.0,0.0,0.0,0.0,0.0,0.0,0.0,0.0,0.0,0.0,0.0,0.0,0.0,0.0,0.0,0.0,0.0,0.0,0.0,0.0,0.0,0.0,0.0,0.0,0.0,0.0,-1.8284,-1.8414,-1.8498,-1.8861,-1.9054,-1.8986,-1.7766,-1.7021,-1.6643,-1.6269,0.0,0.0,0.0,0.0,0.0,0.0,0.0,0.0,0.0,0.0,0.0,0.0,0.0,0.0,0.0,0.0,0.0,0.0,0.0,-1.3794,-1.4334,-1.4421,-1.4454,-1.4465,-1.4233,-1.4048,-1.4048,0.0,0.0,0.0,0.0,0.0,-1.342,-1.329,-1.3074,-1.2701,-1.3063,-1.3355,-1.3571,-1.3857,-1.3451,-1.2463,-1.1649,-1.0966,-1.0417,0.0,0.0,0.0,0.0,0.0,0.0,0.0,0.0,0.0,0.0,0.0,0.0,0.0,0.0,0.0,0.0,0.0,0.0,0.0,0.0,0.0,0.0,0.0,0.0,0.0,0.0,0.0,0.0,0.0,0.0,0.0,0.0,0.0,0.0,0.0,0.0,0.0,0.0,0.0,0.0,0.0,-1.317,-1.3573,0.0,0.0,0.0,0.0,0.0,0.0,0.0,0.0,0.0,0.0,0.0,0.0,0.0,-1.8154,-1.8249,-1.913,-1.9773,-2.0132,-2.0549,-2.0912,-2.119,-2.126,-2.1284,-2.1272,-2.1061,0.0,-1.8137,-1.7218,0.0,0.0,0.0,0.0,0.0,0.0,0.0,0.0,0.0,0.0,0.0,0.0,0.0,0.0,0.0,0.0,0.0,0.0,0.0,0.0,0.0,-1.4742,-1.4865,-1.5181,-1.4805,-1.4657,-1.4922,-1.462,0.0,0.0,0.0,-1.4257,-1.4046,-1.3988,-1.3973,-1.3983,-1.4682,-1.51,-1.5262,-1.5532,-1.5381,-1.4906,-1.4095,-1.2827,-1.1265,-1.1099,0.0,0.0,0.0,0.0,0.0,0.0,0.0,0.0,0.0,0.0,0.0,0.0,0.0,0.0,0.0,0.0,0.0,0.0,0.0,0.0,0.0,0.0,0.0,0.0,0.0,0.0,0.0,0.0,0.0,0.0,0.0,0.0,0.0,0.0,0.0,0.0,0.0,0.0,0.0,-1.408,-1.4464,-1.5037,-1.5094,-1.5168,0.0,0.0,0.0,0.0,0.0,0.0,0.0,0.0,0.0,-2.0398,-2.0653,-2.1047,-2.1638,-2.2089,-2.2515,-2.2928,-2.3128,-2.3289,-2.3436,-2.3753,-2.3895,-2.3895,-2.3884,-2.3359,-2.2321,-1.9934,-1.8908,-1.8736,0.0,0.0,0.0,0.0,-1.7969,-1.8148,0.0,0.0,0.0,0.0,0.0,0.0,0.0,0.0,0.0,0.0,0.0,0.0,-1.5303,-1.5292,-1.5533,-1.6098,-1.5716,-1.5531,-1.5735,-1.5404,-1.5073,-1.4834,-1.48,-1.4708,-1.4581,-1.4742,-1.5064,-1.56,-1.6542,-1.708,-1.7241,-1.7551,-1.7532,-1.7236,-1.6618,-1.4894,-1.2443,-1.2085,-1.1502,-1.0791,0.0,0.0,0.0,0.0,0.0,0.0,0.0,0.0,0.0,0.0,0.0,0.0,0.0,0.0,0.0,0.0,0.0,0.0,0.0,0.0,0.0,0.0,0.0,0.0,0.0,0.0,0.0,0.0,0.0,0.0,0.0,0.0,0.0,0.0,0.0,0.0,0.0,-1.546,-1.5909,-1.6429,-1.6638,-1.6783,0.0,0.0,0.0,0.0,0.0,0.0,-2.0954,-2.1249,-2.1981,-2.3234,-2.3553,-2.4013,-2.4673,-2.4802,-2.4991,-2.5263,-2.5263,-2.5299,-2.5347,-2.5738,-2.5941,-2.5941,-2.5939,-2.589,-2.5605,-2.2498,-2.1143,-2.0917,-2.0133,-1.9833,-1.9833,-1.9833,-1.9992,-2.0239,0.0,0.0,0.0,0.0,0.0,0.0,0.0,0.0,0.0,0.0,0.0,-1.5838,-1.636,-1.6536,-1.681,-1.7364,-1.7254,-1.6979,-1.6479,-1.6327,-1.5986,-1.547,-1.5323,-1.5187,-1.5062,-1.5697,-1.648,-1.7473,-1.8462,-1.9174,-1.9537,-2.0129,-2.0047,-1.9333,-1.8833,-1.701,-1.4214,-1.3391,-1.262,-1.1924,-1.0965,0.0,0.0,0.0,0.0,0.0,0.0,0.0,0.0,0.0,0.0,0.0,0.0,0.0,0.0,0.0,0.0,0.0,0.0,0.0,0.0,0.0,0.0,0.0,0.0,0.0,0.0,0.0,0.0,0.0,0.0,0.0,0.0,0.0,0.0,0.0,0.0,0.0,0.0,-1.7519,-1.8105,0.0,0.0,0.0,0.0,-2.0069,-2.1443,-2.2551,-2.3117,-2.4118,-2.4909,-2.5415,-2.6417,-2.6736,-2.6299,-2.6721,-2.6798,-2.65,-2.65,-2.6614,-2.6788,-2.68,-2.6812,-2.6812,-2.6812,-2.6737,-2.637,-2.4094,-2.3154,-2.3048,-2.198,-2.1569,-2.1569,-2.1569,-2.2215,-2.3015,0.0,0.0,0.0,0.0,0.0,0.0,0.0,0.0,-1.5379,-1.5412,-1.577,-1.6264,-1.6878,-1.7409,-1.789,-1.8302,-1.8363,-1.8056,-1.7255,-1.6787,-1.6275,-1.566,-1.5503,-1.5683,-1.618,-1.7094,-1.8034,-1.8947,-1.9966,-2.0642,-2.0979,-2.1419,-2.1347,-2.0831,-2.031,-1.9303,-1.7813,-1.5779,-1.4196,-1.3007,-1.2349,-1.1681,0.0,0.0,0.0,0.0,0.0,0.0,0.0,0.0,0.0,0.0,0.0,0.0,0.0,0.0,0.0,0.0,0.0,0.0,0.0,0.0,0.0,0.0,0.0,0.0,0.0,0.0,0.0,0.0,0.0,0.0,0.0,0.0,0.0,0.0,0.0,0.0,0.0,-2.0117,-2.0753,0.0,-2.1603,-2.2288,-2.2888,-2.3307,-2.4161,-2.5123,-2.609,-2.6484,-2.7081,-2.7941,-2.8335,-2.8609,-2.8805,-2.8944,-2.8973,-2.8834,-2.8834,-2.8874,-2.8967,-2.8967,-2.8967,-2.8967,-2.8967,-2.8915,-2.8726,-2.7263,-2.5895,-2.4696,-2.3966,-2.3672,-2.3672,-2.3672,-2.3954,-2.4248,0.0,0.0,0.0,0.0,0.0,0.0,0.0,0.0,-1.5625,-1.578,-1.6335,-1.7011,-1.7685,-1.8654,-1.933,-1.9518,-1.9735,-1.9306,-1.8098,-1.7512,-1.6834,-1.5983,-1.606,-1.6633,-1.7718,-1.8721,-1.9674,-2.0538,-2.1562,-2.2132,-2.2264,-2.2795,-2.2911,-2.2639,-2.2226,-2.1755,-2.1094,-1.9046,-1.6794,-1.4605,-1.3834,-1.2981,-1.2073,0.0,0.0,0.0,0.0,0.0,0.0,0.0,0.0,0.0,0.0,0.0,0.0,0.0,0.0,0.0,0.0,0.0,0.0,0.0,0.0,0.0,0.0,0.0,0.0,0.0,0.0,0.0,0.0,0.0,0.0,0.0,0.0,0.0,0.0,-2.014,-2.131,-2.2663,-2.3356,-2.3946,-2.4481,-2.4993,-2.548,-2.5923,-2.6641,-2.7385,-2.8222,-2.8595,-2.9112,-2.9809,-3.0001,-3.0182,-3.035,-3.035,-3.0266,-3.0086,-3.0086,-3.0086,-3.0086,-3.0086,-3.0086,-3.0086,-3.0086,-3.0086,-3.0025,-2.9328,-2.816,-2.6747,-2.5846,-2.5502,-2.5502,-2.5502,-2.5609,-2.58,0.0,0.0,0.0,0.0,0.0,0.0,-1.5255,-1.5537,-1.5826,-1.6156,-1.7144,-1.8106,-1.8845,-2.0231,-2.1093,-2.1017,-2.131,-2.0739,-1.8923,-1.8423,-1.7664,-1.6492,-1.7118,-1.8178,-1.9622,-2.0523,-2.1389,-2.2248,-2.3269,-2.363,-2.3476,-2.4351,-2.4732,-2.4729,-2.4587,-2.4309,-2.3881,-2.3016,-2.0469,-1.6874,-1.5477,-1.4351,-1.3432,0.0,0.0,0.0,0.0,0.0,0.0,0.0,0.0,0.0,0.0,0.0,0.0,0.0,0.0,0.0,0.0,0.0,0.0,0.0,0.0,0.0,0.0,0.0,0.0,0.0,0.0,0.0,0.0,0.0,0.0,0.0,0.0,0.0,-2.1209,-2.2526,-2.3992,-2.5087,-2.5768,-2.6418,-2.6971,-2.7488,-2.7801,-2.7825,-2.8775,-2.9352,-2.9376,-3.0392,-3.0934,-3.0934,-3.1452,-3.1488,-3.097,-3.097,-3.0706,-3.0212,-3.0188,-3.0176,-3.0176,-3.0176,-3.0176,-3.0176,-3.0176,-3.0176,-3.0176,-3.0164,-2.9809,-2.9196,-2.7582,-2.6958,-2.6946,-2.6946,-2.727,-2.7702,0.0,0.0,0.0,0.0,0.0,0.0,-1.5131,-1.5503,-1.5893,-1.6156,-1.735,-1.8469,-1.9244,-2.0681,-2.1554,-2.1458,-2.1437,-2.0783,-1.925,-1.8416,-1.7864,-1.7576,-1.8769,-1.99,-2.0876,-2.1777,-2.2619,-2.3499,-2.4179,-2.4587,-2.4717,-2.5365,-2.5551,-2.5432,-2.521,-2.5004,-2.4726,-2.4196,-2.2942,-2.1104,-1.8798,-1.704,-1.5748,0.0,0.0,0.0,0.0,0.0,0.0,0.0,0.0,0.0,0.0,0.0,0.0,0.0,0.0,0.0,0.0,0.0,0.0,0.0,0.0,0.0,0.0,0.0,0.0,0.0,0.0,0.0,0.0,0.0,0.0,0.0,-2.3223,-2.404,-2.3482,-2.4526,-2.5925,-2.7387,-2.8062,-2.871,-2.9391,-2.9573,-2.991,-3.0501,-3.0603,-3.0858,-3.1215,-3.1518,-3.1676,-3.1676,-3.2418,-3.2726,-3.258,-3.258,-3.2494,-3.2347,-3.1956,-3.1773,-3.1773,-3.1773,-3.1773,-3.1773,-3.1773,-3.1773,-3.1736,-3.115,-3.081,-3.0555,-2.9193,-2.8414,-2.8077,-2.8077,-2.8174,-2.8294,0.0,0.0,0.0,0.0,0.0,0.0,-1.5165,-1.5525,-1.5925,-1.6275,-1.7489,-1.8674,-1.9556,-2.1029,-2.1838,-2.1495,-2.155,-2.0906,-1.9246,-1.8711,-1.8737,-1.9357,-2.0523,-2.1638,-2.2665,-2.3293,-2.3977,-2.4744,-2.5075,-2.5379,-2.5672,-2.612,-2.6287,-2.6154,-2.6176,-2.6109,-2.595,-2.5659,-2.501,-2.4078,-2.2293,-2.0081,-1.7685,-1.674,-1.5895,-1.5144,-1.4653,-1.4016,-1.3416,-1.3386,0.0,0.0,0.0,0.0,0.0,0.0,0.0,0.0,0.0,0.0,0.0,0.0,0.0,0.0,0.0,0.0,0.0,0.0,0.0,0.0,0.0,0.0,0.0,0.0,-2.5302,-2.6641,-2.6988,-2.7294,-2.7984,-2.9451,-3.0132,-3.0749,-3.1498,-3.1785,-3.2085,-3.256,-3.2472,-3.2519,-3.2804,-3.2816,-3.2816,-3.2816,-3.3302,-3.3519,-3.3519,-3.3519,-3.3519,-3.3506,-3.3199,-3.2941,-3.2732,-3.2732,-3.2609,-3.24,-3.24,-3.24,-3.2363,-3.1902,-3.159,-3.1254,0.0,0.0,0.0,0.0,-2.851,-2.851,0.0,0.0,0.0,0.0,0.0,0.0,-1.5233,-1.557,-1.5947,-1.6392,-1.7575,-1.8725,-1.9636,-2.1046,-2.1726,-2.1215,-2.1439,-2.0826,-1.9009,-1.9177,-1.9954,-2.1368,-2.2252,-2.3299,-2.4566,-2.4789,-2.5189,-2.5837,-2.5896,-2.6119,-2.6438,-2.6784,-2.6962,-2.6934,-2.7146,-2.7231,-2.7231,-2.7015,-2.659,-2.597,-2.5544,-2.3115,-1.9661,-1.915,-1.8046,-1.6734,-1.6711,-1.5938,-1.4944,-1.5081,0.0,0.0,0.0,0.0,0.0,0.0,0.0,0.0,0.0,0.0,0.0,0.0,0.0,0.0,0.0,0.0,0.0,0.0,0.0,0.0,0.0,0.0,0.0,0.0,-2.7435,-2.9417,-3.0886,-3.0375,-3.0253,-3.1357,-3.1991,-3.2568,-3.3293,-3.3794,-3.4053,-3.4098,-3.4053,-3.4065,-3.4065,-3.4065,0.0,0.0,0.0,-3.4197,-3.4197,-3.4197,-3.4197,-3.4197,-3.4123,-3.3818,-3.3375,-3.3313,-3.303,-3.2574,-3.2512,-3.2475,-3.2475,-3.2444,-3.2148,-3.1571,-3.0537,-2.9802,-2.9244,-2.8775,-2.8558,-2.851,0.0,0.0,0.0,0.0,0.0,0.0,-1.5108,-1.5525,-1.5869,-1.6066,-1.7293,-1.8319,-1.8733,-1.9718,-2.0368,-2.041,-1.9954,-1.9417,-1.8926,-1.9754,-2.0852,-2.222,-2.3399,-2.4375,-2.5136,-2.5352,-2.5658,-2.6032,-2.6476,-2.6854,-2.7213,-2.7707,-2.7837,-2.7659,-2.7528,-2.7441,-2.7441,-2.7219,-2.6958,-2.6703,-2.6621,-2.5029,-2.2662,-2.1695,-2.081,-1.9937,-1.9005,-1.8184,-1.7495,-1.7149,-1.6474,-1.5688,-1.5273,-1.4644,0.0,0.0,0.0,0.0,0.0,0.0,0.0,0.0,0.0,0.0,0.0,0.0,0.0,0.0,0.0,0.0,0.0,0.0,0.0,-2.8302,-3.012,-3.1661,-3.2334,-3.2804,-3.3081,-3.3132,-3.3411,-3.3748,-3.4123,-3.4268,-3.4409,-3.4532,-3.4409,-3.433,-3.433,-3.433,-3.433,-3.433,-3.4877,-3.5194,-3.5194,-3.5194,-3.5194,-3.5194,-3.479,0.0,-3.4415,-3.3965,-3.3715,-3.3589,-3.3139,-3.2952,-3.2952,-3.2723,-3.25,-3.2142,-3.0827,-2.9915,-2.928,-2.9184,-2.8871,-2.851,0.0,0.0,0.0,0.0,0.0,0.0,-1.4983,-1.5435,-1.5814,-1.5979,-1.6891,-1.7735,-1.8339,-1.8979,-1.9392,-1.955,-1.9203,-1.92,-1.968,-2.1043,-2.2479,-2.3889,-2.4966,-2.5614,-2.5831,-2.5785,-2.6007,-2.6514,-2.6765,-2.7256,-2.7956,-2.8128,-2.8139,-2.8042,-2.8099,-2.8052,-2.7876,-2.7793,-2.7628,-2.7409,-2.7158,-2.6341,-2.5109,-2.3794,-2.2746,-2.1829,-2.0899,-2.0245,-1.9713,-1.9036,-1.8363,-1.7726,-1.7278,-1.6607,-1.5856,0.0,0.0,0.0,0.0,0.0,0.0,0.0,0.0,0.0,0.0,0.0,0.0,0.0,0.0,-2.4969,-2.6187,0.0,-2.9242,-3.0828,-3.2442,-3.3771,-3.4521,-3.51,-3.5071,-3.4096,-3.4357,-3.4702,-3.4911,-3.5207,-3.5462,-3.5542,-3.5462,-3.5415,-3.5415,-3.5415,-3.5415,-3.5415,-3.5771,-3.5956,-3.5956,-3.5956,-3.5956,-3.5956,-3.568,-3.5391,-3.5082,-3.4806,-3.4424,-3.3884,-3.3608,-3.3332,-3.3081,-3.2939,-3.2766,-3.25,-3.1804,-3.0997,-3.0181,-2.9649,-2.9205,-2.8871,0.0,0.0,0.0,0.0,0.0,0.0,0.0,-1.5334,-1.5726,-1.5913,-1.6414,-1.7085,-1.7891,-1.8257,-1.8524,-1.8665,-1.8788,-1.9331,-2.0437,-2.2187,-2.3837,-2.5273,-2.6159,-2.6548,-2.6368,-2.6072,-2.6225,-2.6898,-2.6898,-2.7438,-2.851,-2.8339,-2.8259,-2.8283,-2.8615,-2.8603,-2.8365,-2.8447,-2.8314,-2.808,-2.7575,-2.7245,-2.6877,-2.5431,-2.4243,-2.3255,-2.2561,-2.198,-2.1382,-2.0567,-2.0008,-1.9535,-1.9113,-1.8468,-1.7777,-1.7298,-1.6666,0.0,0.0,0.0,0.0,0.0,0.0,0.0,0.0,-2.3052,-2.405,-2.5299,-2.6266,-2.7385,-2.9044,-3.0046,-3.1284,-3.3268,-3.4637,-3.5715,-3.6591,-3.6811,-3.6397,-3.5102,-3.5214,-3.5506,-3.5658,-3.6094,-3.6405,-3.6405,-3.6405,-3.6405,-3.6405,-3.6405,-3.6405,-3.6405,-3.6405,-3.6405,-3.6405,-3.6405,-3.6405,-3.6405,-3.6405,-3.6132,-3.5658,-3.5445,-3.4856,-3.4048,-3.3834,-3.3483,-3.3124,-3.3124,-3.2982,-3.2766,-3.2766,-3.2265,-3.1363,-3.0358,-2.9747,-2.9366,0.0,0.0,0.0,0.0,0.0,0.0,0.0,0.0,-1.5558,-1.5715,-1.6035,-1.643,-1.6842,-1.708,-1.7366,-1.7793,-1.8376,-1.9239,-2.0414,-2.2187,-2.3796,-2.5064,-2.6065,-2.647,-2.622,-2.6002,-2.6225,-2.6898,-2.6898,-2.7438,-2.851,-2.8471,-2.8471,-2.8495,-2.8807,-2.884,-2.8574,-2.8885,-2.8858,-2.8574,-2.8092,-2.776,-2.7425,-2.6339,-2.5462,-2.4757,-2.4111,-2.3126,-2.2119,-2.1597,-2.1376,-2.1254,-2.0853,-2.0368,-1.9851,-1.9321,-1.8522,-1.78,-1.7758,-1.8463,-1.9577,-2.1079,-2.1965,-2.2902,0.0,-2.6003,-2.7156,-2.7778,-2.9205,-3.0772,-3.2171,-3.325,-3.4416,-3.5854,-3.6788,-3.732,-3.7444,-3.7292,-3.7111,-3.6935,-3.6533,-3.627,-3.6317,-3.6367,-3.6405,-3.6405,-3.6405,-3.6405,-3.6405,-3.6405,-3.6405,-3.6405,-3.6405,-3.6405,-3.6405,-3.6405,-3.6405,-3.6405,-3.6405,-3.6367,-3.6279,-3.5265,-3.4705,-3.4575,-3.3596,-3.3174,-3.3124,-3.3124,-3.3068,-3.3081,-3.3081,-3.2859,-3.242,-3.1656,-3.0761,-2.9926,0.0,0.0,0.0,0.0,0.0,0.0,0.0,0.0,0.0,-1.557,-1.5814,-1.6088,-1.6432,-1.6799,-1.7107,-1.7399,-1.7999,-1.8844,-2.0027,-2.1754,-2.3355,-2.481,-2.5825,-2.6309,-2.6208,-2.6002,-2.6066,-2.6442,-2.6741,-2.7282,-2.8026,-2.8366,-2.851,-2.8534,-2.897,-2.9046,-2.8769,-2.8838,-2.8722,-2.8411,-2.7789,-2.7357,-2.699,-2.6329,-2.5558,-2.4748,-2.3727,-2.3025,0.0,-2.1259,-2.1188,-2.1568,-2.1268,-2.1138,-2.0975,-2.0445,-1.9753,-1.925,-1.966,-2.0398,-2.1466,-2.3491,-2.4788,-2.6007,-2.7751,-2.8812,-2.9726,-3.0577,-3.1424,-3.2374,-3.3545,-3.4397,-3.5382,-3.6887,-3.7556,-3.7966,-3.8304,-3.7965,-3.7437,-3.681,-3.6232,-3.6006,-3.638,-3.6405,-3.6405,-3.6405,-3.6405,-3.6405,-3.6405,-3.6405,-3.6405,-3.6405,-3.6405,-3.6405,-3.6405,-3.6405,-3.6405,-3.6405,-3.6405,-3.6405,-3.6392,-3.5893,-3.5328,-3.4675,-3.3897,-3.337,-3.3124,-3.3124,-3.3124,-3.3124,-3.3124,-3.3025,-3.2834,-3.2072,-3.1223,-3.0397,0.0,0.0,0.0,0.0,0.0,0.0,0.0,0.0,0.0,0.0,-1.557,-1.5802,-1.6173,-1.6586,-1.6884,-1.6989,-1.7571,-1.8309,-1.9281,-2.1043,-2.2652,-2.394,-2.5121,-2.5775,-2.5812,-2.5711,-2.5833,-2.6093,-2.6502,-2.6934,-2.7474,-2.7897,-2.8162,-2.8318,-2.8847,-2.8997,-2.8893,-2.8964,-2.8826,-2.8517,-2.7689,-2.7151,-2.6713,-2.5934,-2.5065,-2.4143,-2.321,-2.2693,-2.2264,-2.0913,-2.0873,-2.1341,-2.1211,-2.1276,-2.1327,-2.1163,-2.0859,-2.076,-2.1486,-2.2354,-2.3617,-2.582,-2.7314,-2.8638,-3.0386,-3.1199,-3.1926,-3.2822,-3.322,-3.3671,-3.467,-3.5159,-3.5876,-3.7257,-3.7803,-3.8153,-3.858,-3.814,-3.7437,-3.6508,-3.5846,-3.5596,-3.5881,-3.6044,-3.6194,-3.6405,-3.6405,-3.6405,-3.6405,-3.6405,-3.6405,-3.6405,-3.6405,-3.6405,-3.6405,-3.6405,-3.6405,-3.6405,-3.6405,-3.6405,-3.6405,-3.6207,-3.5542,-3.4474,-3.4073,-3.3583,-3.3124,-3.3124,-3.3212,-3.3307,-3.3307,-3.3307,-3.3257,-3.2671,-3.1916,-3.1145,0.0,0.0,0.0,0.0,0.0,0.0,0.0,0.0,0.0,0.0,0.0,0.0,0.0,-1.6262,-1.6436,-1.6522,-1.7077,-1.7667,-1.8212,-2.0118,-2.151,-2.2168,-2.3717,-2.4646,-2.4849,-2.5022,-2.542,-2.6093,-2.6117,-2.6406,-2.6922,-2.6934,-2.7222,-2.7726,-2.8294,-2.865,-2.8917,-2.9469,-2.9567,-2.9284,-2.8187,-2.746,-2.6839,-2.5315,-2.4097,-2.3127,-2.3115,-2.246,-2.1557,-2.0976,-2.0813,-2.0824,-2.0824,-2.0824,-2.0918,-2.1428,-2.1995,-2.2565,-2.3238,-2.4599,-2.6221,-2.7951,-2.9232,-3.0434,-3.2058,-3.2998,-3.3669,-3.4216,-3.4572,-3.4979,-3.5784,-3.5943,-3.626,-3.7075,-3.7663,-3.8015,-3.8027,-3.755,-3.6998,-3.648,-3.5881,-3.5295,-3.4781,-3.5207,-3.5793,-3.6367,-3.6405,-3.6405,-3.6405,-3.6405,-3.6405,-3.6405,-3.6405,-3.6405,-3.6405,-3.6405,-3.6405,-3.6405,-3.6405,-3.6405,-3.6392,-3.5805,-3.4919,-3.3922,-3.3909,-3.3583,-3.3124,-3.3124,-3.3395,-3.3872,-3.3872,-3.3872,-3.3872,-3.3859,-3.3144,-3.2148,0.0,0.0,0.0,0.0,0.0,0.0,0.0,0.0,0.0,0.0,0.0,0.0,0.0,0.0,0.0,0.0,-1.6479,-1.6826,-1.7371,-1.8372,-1.9532,-2.0853,-2.1765,-2.2699,-2.3721,-2.379,-2.4077,-2.4589,-2.4891,-2.5143,-2.53,-2.5661,-2.5913,-2.6129,-2.631,-2.6608,-2.7012,-2.6705,-2.6759,-2.6943,-2.6083,-2.5271,-2.4507,-2.3634,-2.2731,-2.1885,0.0,-2.0789,-2.047,-1.9641,-1.9639,-2.0008,-2.0008,-2.0552,-2.1379,-2.2261,-2.2926,-2.364,-2.4882,-2.6404,-2.8011,-2.9677,-3.1156,-3.2488,-3.3518,-3.4217,-3.4639,-3.4658,-3.4561,-3.4437,-3.4355,-3.4512,-3.4823,-3.5466,-3.632,-3.6958,-3.6958,-3.7073,-3.6709,-3.5429,-3.5382,-3.5282,-3.4731,-3.5182,-3.5571,-3.5805,-3.6157,-3.6568,-3.6885,-3.6958,-3.6958,-3.6958,-3.6958,-3.6782,-3.6405,-3.6405,-3.6405,-3.6405,-3.6405,-3.6405,-3.6405,-3.6169,-3.568,-3.4919,-3.4613,-3.4349,-3.4135,-3.3771,-3.3947,-3.4449,-3.4449,-3.4449,-3.4399,-3.4035,-3.3658,-3.3219,0.0,0.0,0.0,0.0,0.0,0.0,0.0,0.0,0.0,0.0,0.0,0.0,0.0,0.0,0.0,0.0,0.0,-1.6203,-1.6556,-1.7115,-1.7983,-1.9219,-1.9902,-2.0778,-2.1971,-2.2025,-2.234,-2.2919,-2.3244,-2.3496,-2.3701,-2.4037,-2.429,-2.4482,-2.4482,-2.4771,-2.5252,-2.4776,-2.4765,-2.5028,-2.4352,-2.3651,-2.2917,-2.2361,-2.1607,0.0,-2.0061,-1.9765,-1.9622,-1.8946,-1.9027,-1.9403,-1.9622,-2.0613,-2.1861,-2.2727,-2.3782,-2.4951,-2.6526,-2.8216,-2.9861,-3.1455,-3.2874,-3.4021,-3.4698,-3.5025,-3.5083,-3.4718,-3.4037,-3.3383,-3.2835,-3.2877,-3.3181,-3.3734,-3.4926,-3.5843,-3.6044,-3.6546,-3.642,-3.5119,-3.5282,-3.5282,-3.4731,-3.5182,-3.5583,-3.583,-3.6345,-3.6857,-3.7161,-3.7374,-3.7475,-3.7475,-3.7475,-3.7312,-3.7008,-3.6996,-3.6895,-3.6694,-3.6505,-3.6405,-3.6405,-3.6405,-3.6056,-3.5483,-3.5119,-3.4856,-3.4655,-3.4349,-3.4512,-3.4969,-3.4969,-3.4969,-3.4931,-3.4613,-3.4361,-3.4035,0.0,0.0,0.0,0.0,0.0,0.0,0.0,0.0,0.0,0.0,0.0,0.0,0.0,0.0,0.0,0.0,0.0,0.0,-1.5792,-1.6384,-1.6928,-1.7352,-1.8142,-1.895,-1.97,-1.9849,-2.0342,-2.1284,-2.1284,-2.1536,-2.2029,-2.2029,-2.2294,-2.2806,-2.2806,-2.3095,-2.3601,-2.3601,-2.3613,-2.3601,-2.3095,-2.2578,-2.2017,-2.1512,-2.0658,-1.9772,-1.9772,-1.9447,-1.8987,-1.8987,-1.9035,-1.9206,-1.9784,-2.1019,-2.239,-2.3035,-2.4661,-2.6574,-2.8198,-3.0005,-3.1808,-3.3278,-3.4267,-3.4981,-3.5473,-3.5355,-3.4984,-3.4351,-3.3096,-3.1951,-3.1373,-3.1286,-3.1486,-3.2039,-3.3571,-3.4831,-3.537,-3.5994,-3.6169,-3.5596,-3.5571,-3.5382,-3.4901,-3.5295,-3.5893,-3.6455,-3.6958,-3.7211,-3.7262,-3.7764,-3.8052,-3.8052,-3.8052,-3.804,-3.8002,-3.8002,-3.7726,-3.7174,-3.6707,-3.643,-3.6405,-3.6405,-3.6081,-3.5533,-3.5508,-3.5219,-3.4801,-3.4731,-3.5044,-3.5545,-3.5545,-3.5545,-3.5533,-3.5508,-3.5169,-3.4613,0.0,0.0,0.0,0.0,0.0,0.0,0.0,0.0,0.0,0.0,0.0,0.0,0.0,0.0,0.0,0.0,0.0,0.0,-1.5792,-1.5957,-1.6269,-1.6775,-1.7026,-1.7593,-1.8578,-1.8628,-1.8953,-1.96,-1.96,-1.9672,-1.9817,-1.9817,-1.9877,-2.0009,-2.0009,-2.0326,-2.082,-2.082,-2.1043,-2.1404,-2.1272,-2.0887,-2.041,-2.0278,-1.9808,-1.9191,-1.9191,-1.9107,-1.8987,-1.8987,-1.9543,-2.0434,-2.1771,-2.2746,-2.3701,-2.542,-2.6975,-2.8521,-3.0136,-3.1901,-3.3498,-3.4299,-3.4971,-3.5398,-3.5328,-3.4913,-3.4177,-3.2959,-3.1793,-3.0721,-2.9703,-2.9905,-3.0382,-3.0934,-3.2754,-3.4299,-3.4806,-3.5755,-3.6355,-3.6169,-3.6508,-3.6709,-3.6571,-3.7061,-3.7437,-3.7575,-3.7337,-3.755,-3.8391,-3.863,-3.8655,-3.8655,-3.8655,-3.8442,-3.8002,-3.8002,-3.7726,-3.7186,-3.7048,-3.6807,-3.6405,-3.6405,-3.6329,-3.6132,-3.5683,-3.5705,-3.5906,-3.5504,-3.5655,-3.6157,-3.6157,-3.6157,-3.6107,-3.5658,-3.5408,-3.5194,0.0,0.0,0.0,0.0,0.0,0.0,0.0,0.0,0.0,0.0,0.0,0.0,0.0,0.0,0.0,0.0,0.0,0.0,0.0,-1.5726,-1.5879,-1.6178,-1.6236,-1.6535,-1.7123,-1.7135,-1.7399,-1.7953,-1.7953,-1.8073,-1.8301,-1.8301,-1.8301,-1.8301,-1.8301,-1.8458,-1.8758,-1.8987,-1.9263,0.0,0.0,-1.972,-1.9459,-1.9459,-1.9251,-1.8987,-1.8987,-1.9143,-1.9408,-1.9889,-2.0783,-2.1891,-2.322,-2.4418,-2.5706,-2.7569,-2.9074,-3.0433,-3.2049,-3.349,-3.4638,-3.5172,-3.5451,-3.5447,-3.5052,-3.415,-3.3033,-3.1759,-3.0444,-2.9252,-2.8373,-2.8674,-2.9315,-3.0118,-3.2102,-3.3822,-3.4613,-3.5881,-3.6769,-3.6769,-3.7211,-3.755,-3.755,-3.7826,-3.8115,-3.8366,-3.8103,-3.8253,-3.8894,-3.9094,-3.9233,-3.9233,-3.9233,-3.9082,-3.8755,-3.8504,-3.8103,-3.755,-3.7299,-3.6945,-3.6405,-3.6405,-3.6405,-3.6392,-3.6031,-3.6081,-3.638,-3.6031,-3.6081,-3.6405,-3.6405,-3.6405,-3.6367,-3.6019,-3.5893,-3.5855,0.0,0.0,0.0,0.0,0.0,0.0,0.0,0.0,0.0,0.0,0.0,0.0,0.0,0.0,0.0,0.0,0.0,0.0,0.0,0.0,-1.5659,-1.5659,-1.576,-1.5792,-1.5792,-1.5792,-1.6042,-1.6499,-1.6499,-1.6727,-1.7183,-1.7183,-1.7183,-1.7183,-1.7183,-1.7183,-1.7219,-1.7772,-1.8037,-1.8145,-1.8674,-1.8927,-1.8987,0.0,-1.8987,-1.8987,-1.8987,-1.9399,-2.0085,-2.1139,-2.2258,-2.3376,-2.4528,-2.613,-2.7944,-2.9565,-3.0933,-3.2179,-3.3732,-3.4743,-3.5475,-3.5939,-3.5719,-3.5219,-3.465,-3.3156,-3.1562,-3.0407,-2.895,-2.772,-2.7155,-2.7632,-2.8448,-2.9503,-3.1524,-3.3357,-3.4462,-3.6031,-3.7123,-3.7274,-3.7776,-3.8153,-3.8228,-3.8228,-3.8442,-3.8994,-3.9032,-3.9032,-3.9032,-3.9433,-3.9697,-3.9697,-3.9697,-3.9697,-3.9697,-3.922,-3.8693,-3.8115,-3.7563,-3.7059,-3.6518,-3.6443,-3.6405,-3.6405,-3.6405,-3.6405,-3.6405,-3.6405,-3.6405,-3.6405,-3.6405,-3.6405,-3.6405,-3.6405,-3.6405,-3.6405,0.0,0.0,0.0,0.0,0.0,0.0,0.0,0.0,0.0,0.0,-1.1741,-1.2586,0.0,0.0,0.0,0.0,0.0,0.0,0.0,0.0,0.0,-1.5536,-1.5637,-1.5715,-1.5715,-1.577,-1.584,-1.5946,-1.5946,-1.5994,-1.609,-1.609,-1.609,-1.609,-1.609,-1.609,-1.6104,-1.6655,-1.7123,-1.7592,-1.8121,-1.8602,-1.8987,-1.8987,0.0,0.0,-1.8987,-1.964,-2.0627,-2.1692,-2.3039,-2.4552,-2.6263,-2.7904,-2.9537,-3.1411,-3.2562,-3.3493,-3.4686,-3.5594,-3.6185,-3.6298,-3.5558,-3.46,-3.3596,-3.1738,-2.9767,-2.8185,-2.7304,-2.66,-2.5988,-2.7105,-2.8323,-2.8938,-3.0922,-3.2754,-3.3884,-3.5466,-3.6883,-3.7751,-3.8366,-3.8894,-3.9358,-3.9396,-3.9446,-3.9546,-3.9546,-3.9546,-3.9546,-3.9647,-3.9697,-3.9697,-3.9697,-3.9697,-3.9697,-3.9597,-3.927,-3.8718,-3.814,-3.7575,-3.7023,-3.6619,-3.6405,-3.6405,-3.6405,-3.6405,-3.6405,-3.6405,-3.6405,-3.6405,-3.6405,-3.6405,-3.6405,-3.6405,-3.6405,-3.6405,0.0,0.0,0.0,0.0,0.0,0.0,0.0,-1.0344,-1.0548,-1.0512,-1.0863,-1.1423,-1.2192,-1.2816,-1.3455,0.0,0.0,0.0,0.0,0.0,0.0,0.0,-1.5503,-1.5592,-1.5592,-1.5637,-1.5647,-1.5647,0.0,-1.5647,-1.5647,-1.5647,-1.5647,-1.5647,-1.5726,-1.576,-1.5808,-1.6656,-1.7159,-1.7459,-1.8289,-1.8758,-1.8987,0.0,0.0,0.0,-1.8987,-1.9519,-2.035,-2.1416,-2.2835,-2.454,-2.6918,-2.8848,-3.0584,-3.242,-3.3518,-3.449,-3.5865,-3.6323,-3.6405,-3.6405,-3.5316,-3.3922,-3.2516,-3.0495,-2.8524,-2.7165,-2.6436,-2.5925,-2.5649,-2.6741,-2.7946,-2.875,-3.0532,-3.2177,-3.3307,-3.5185,-3.6707,-3.7475,-3.8341,-3.9082,-3.9634,-3.9697,-3.9697,-3.9697,-3.9697,-3.9697,-3.9697,-3.9697,-3.9697,-3.9697,-3.9697,-3.9697,-3.9697,-3.9697,-3.9421,-3.8906,-3.8278,-3.7713,-3.7161,-3.6656,-3.6405,-3.6405,-3.6405,-3.6405,-3.6405,-3.6405,-3.6405,-3.6405,-3.6405,-3.6405,-3.6405,-3.6405,-3.6405,-3.6405,0.0,0.0,0.0,0.0,0.0,0.0,0.0,-0.9743,-0.9954,-1.0334,-1.0305,-1.0509,-1.1133,-1.1982,-1.2804,0.0,0.0,0.0,0.0,0.0,0.0,0.0,0.0,0.0,-1.5424,0.0,0.0,-1.5491,-1.5468,0.0,0.0,0.0,0.0,0.0,-1.5614,-1.5671,-1.5718,-1.6609,-1.7111,0.0,0.0,-1.8742,-1.8972,0.0,0.0,0.0,0.0,-1.9324,-1.9953,-2.0899,-2.2209,-2.3899,-2.642,-2.8609,-3.0639,-3.2661,-3.3745,-3.4726,-3.6383,-3.6596,-3.638,-3.6267,-3.4939,-3.3282,-3.1599,-2.9428,-2.7444,-2.6373,-2.5749,-2.5435,-2.5435,-2.644,-2.757,-2.8436,-2.9967,-3.1436,-3.2596,-3.4625,-3.6355,-3.7098,-3.8228,-3.9082,-3.9634,-3.9697,-3.9697,-3.9697,-3.9697,-3.9697,-3.9697,-3.9697,-3.9697,-3.9697,-3.9697,-3.9697,-3.9697,-3.9697,-3.9484,-3.9044,-3.8467,-3.7902,-3.7337,-3.6832,-3.6518,-3.6405,-3.6405,-3.6405,-3.6405,-3.6405,-3.6405,-3.6405,-3.6405,-3.6405,-3.6405,-3.6405,-3.6405,-3.6405,0.0,0.0,0.0,0.0,0.0,0.0,0.0,-0.94,-0.9694,-0.993,-1.0036,-1.0236,-1.0549,-1.1355,-1.2166,0.0,0.0,0.0,0.0,0.0,0.0,0.0,0.0,0.0,0.0,0.0,0.0,-1.5491,-1.5368,0.0,0.0,0.0,0.0,0.0,0.0,-1.5513,-1.5525,-1.5642,0.0,0.0,0.0,0.0,0.0,0.0,0.0,0.0,0.0,-1.9324,-1.9892,-2.0482,-2.1422,-2.2609,-2.4144,-2.6415,-2.9036,-3.156,-3.278,-3.3583,-3.5207,-3.6019,-3.6292,-3.5696,-3.4374,-3.2717,-3.1072,-2.8574,-2.6336,-2.5197,-2.4901,-2.4863,-2.4863,-2.6201,-2.7318,-2.7419,-2.885,-3.0319,-3.1386,-3.347,-3.5441,-3.6998,-3.8228,-3.9082,-3.9634,-3.9697,-3.9697,-3.9697,-3.9697,-3.9697,-3.9697,-3.9697,-3.9697,-3.9697,-3.9697,-3.9697,-3.9697,-3.9697,-3.9672,-3.9609,-3.9057,-3.8492,-3.7914,-3.7362,-3.6835,-3.6405,-3.6405,-3.6405,-3.6405,-3.6405,-3.6405,-3.6405,-3.6405,-3.6405,-3.6405,-3.6405,-3.6405,-3.6405,0.0,0.0,0.0,0.0,0.0,0.0,-0.8287,-0.8753,-0.9187,-0.9771,-1.0021,-1.0248,-1.049,-1.0937,-1.1532,-1.2187,0.0,0.0,0.0,0.0,0.0,0.0,0.0,0.0,0.0,0.0,-1.4766,-1.496,-1.4891,0.0,0.0,0.0,0.0,0.0,0.0,-1.5289,-1.5414,-1.5798,0.0,0.0,0.0,0.0,0.0,0.0,0.0,0.0,0.0,0.0,-1.9411,-1.9941,-2.041,-2.0981,-2.2402,-2.3808,-2.5719,-2.96,-3.1373,-3.2566,-3.4868,-3.5466,-3.5403,-3.547,-3.4035,-3.2127,-3.0495,-2.8222,-2.6185,-2.5046,-2.4788,-2.4788,-2.4788,-2.59,-2.6927,-2.7266,-2.8398,-2.9541,-3.0319,-3.234,-3.4223,-3.5542,-3.6684,-3.7888,-3.9082,-3.9195,-3.9333,-3.9672,-3.9697,-3.9697,-3.9697,-3.9697,-3.9697,-3.9697,-3.9697,-3.9697,-3.9697,-3.9697,-3.9697,-3.9685,-3.9132,-3.8743,-3.8492,-3.76,-3.7061,-3.6835,-3.6556,-3.6405,-3.6405,-3.6405,-3.6405,-3.6405,-3.6405,-3.6405,-3.6405,-3.6405,-3.6405,-3.6405,0.0,0.0,0.0,0.0,0.0,-0.6986,-0.7663,-0.8125,-0.8678,-0.9462,-0.9784,-1.0043,-1.0265,-1.0488,-1.0871,-1.1452,-1.1769,0.0,0.0,0.0,0.0,0.0,0.0,0.0,0.0,0.0,-1.4163,-1.4361,-1.4361,-1.4454,0.0,0.0,-1.4742,-1.4834,0.0,0.0,0.0,0.0,0.0,0.0,0.0,0.0,0.0,0.0,0.0,0.0,0.0,0.0,0.0,0.0,0.0,-1.9791,-2.1007,-2.1645,-2.2868,-2.7473,-2.9566,-3.0984,-3.3564,-3.4104,-3.4028,-3.4417,-3.3088,-3.1311,-2.9666,-2.7695,-2.5933,-2.4808,-2.4675,-2.4788,-2.4788,-2.5724,-2.6612,-2.7014,-2.7959,-2.8888,-2.9453,-3.1436,-3.3294,-3.4575,-3.5692,-3.7071,-3.8756,-3.9019,-3.927,-3.9659,-3.9697,-3.9697,-3.9697,-3.9697,-3.9697,-3.9697,-3.9697,-3.9697,-3.9697,-3.9697,-3.9697,-3.9685,-3.9295,-3.9032,-3.8894,-3.804,-3.75,-3.7161,-3.682,-3.6556,-3.6405,-3.6405,-3.6405,-3.6405,-3.6405,-3.6405,-3.6405,-3.6405,-3.6405,-3.6405,0.0,0.0,0.0,0.0,0.0,0.0,-0.7152,-0.7598,-0.8178,-0.8915,-0.9237,-0.9524,-0.9766,-0.9921,-1.0154,-1.0488,-1.0998,0.0,0.0,0.0,0.0,0.0,0.0,0.0,0.0,0.0,-1.3409,-1.3821,-1.3821,-1.3952,-1.4199,-1.435,-1.4477,-1.4604,0.0,0.0,0.0,0.0,0.0,0.0,0.0,0.0,0.0,0.0,0.0,0.0,0.0,0.0,0.0,0.0,0.0,0.0,0.0,-2.0217,-2.1063,-2.5281,-2.7268,-2.8624,-3.0834,-3.1825,-3.224,-3.224,-3.1436,-3.0193,-2.8511,-2.6816,-2.5297,-2.423,-2.4443,-2.4788,-2.4788,-2.5724,-2.6499,-2.6499,-2.7394,-2.831,-2.8825,-3.0794,-3.2842,-3.4525,-3.5692,-3.7071,-3.8756,-3.9371,-3.9685,-3.9697,-3.9697,-3.9697,-3.9697,-3.9697,-3.9697,-3.9697,-3.9697,-3.9697,-3.9697,-3.9697,-3.9697,-3.9697,-3.9685,-3.9396,-3.8919,-3.8906,-3.8241,-3.7186,-3.7174,-3.6908,-3.6405,-3.6405,-3.6405,-3.6405,-3.6405,-3.6405,-3.6405,-3.6405,-3.6405,-3.6405,0.0,0.0,0.0,0.0,0.0,0.0,0.0,-0.7112,-0.7558,-0.8462,-0.8811,-0.9093,-0.9368,-0.9603,-0.981,-1.0007,-1.0462,0.0,0.0,0.0,0.0,0.0,0.0,0.0,0.0,-1.273,-1.2817,-1.2991,-1.3064,-1.3256,-1.3529,-1.3647,-1.3834,-1.4057,-1.415,-1.4267,0.0,0.0,0.0,0.0,0.0,0.0,-1.7974,0.0,0.0,0.0,0.0,0.0,0.0,0.0,0.0,0.0,0.0,0.0,0.0,-2.2839,-2.4598,-2.6393,-2.9001,-2.9842,-3.0116,-3.0922,-3.0005,-2.8662,-2.7758,-2.6264,-2.4971,-2.4632,-2.4662,-2.4901,-2.5285,-2.5996,-2.6499,-2.6499,-2.7394,-2.816,-2.8348,-3.0269,-3.2139,-3.3445,-3.5906,-3.7701,-3.8228,-3.9132,-3.9697,-3.9697,-3.9697,-3.9697,-3.9697,-3.9697,-3.9697,-3.9697,-3.9697,-3.9697,-3.9697,-3.9697,-3.9697,-3.9697,-3.9697,-3.9597,-3.9421,-3.9095,-3.8467,-3.7726,-3.7349,-3.692,-3.6405,-3.6405,-3.6405,-3.6405,-3.6405,-3.6405,-3.6405,-3.6405,-3.6405,-3.6405,0.0,0.0,0.0,0.0,0.0,0.0,0.0,-0.6805,-0.7149,-0.7892,-0.8223,-0.8514,-0.887,-0.9099,-0.9309,-0.9558,-0.9895,0.0,0.0,0.0,0.0,0.0,0.0,0.0,-1.2126,-1.2126,-1.219,-1.2335,-1.2467,-1.2662,-1.2856,-1.3035,-1.3238,-1.3433,-1.3621,-1.3776,0.0,0.0,0.0,0.0,0.0,0.0,-1.754,0.0,0.0,0.0,0.0,0.0,0.0,0.0,0.0,0.0,0.0,0.0,0.0,0.0,-2.2571,-2.4073,-2.6882,-2.7634,-2.7896,-2.8812,-2.8097,-2.7017,-2.6477,-2.5398,-2.4506,-2.4506,-2.4669,-2.4938,-2.5498,-2.6097,-2.6499,-2.6499,-2.7394,-2.8185,-2.8386,-3.0319,-3.2353,-3.4142,-3.6496,-3.809,-3.8316,-3.9157,-3.9697,-3.9697,-3.9697,-3.9697,-3.9697,-3.9697,-3.9697,-3.9697,-3.9697,-3.9697,-3.9697,-3.9697,-3.9697,-3.9697,-3.9697,-3.9697,-3.9685,-3.9333,-3.8743,-3.799,-3.7651,-3.7061,0.0,-3.6405,-3.6405,-3.6405,-3.6405,-3.6405,-3.6405,-3.6405,-3.6405,-3.6405,0.0,0.0,0.0,0.0,0.0,0.0,0.0,-0.6606,-0.6955,-0.7235,-0.7509,-0.783,-0.8289,-0.8441,-0.8705,-0.9106,0.0,0.0,0.0,0.0,0.0,0.0,0.0,0.0,-1.1477,-1.1469,-1.1603,-1.1852,-1.2002,-1.2126,-1.2249,-1.2529,-1.2681,-1.2764,-1.3025,-1.3262,-1.3443,0.0,0.0,0.0,0.0,0.0,0.0,0.0,0.0,0.0,0.0,0.0,0.0,0.0,0.0,0.0,0.0,0.0,0.0,0.0,0.0,0.0,0.0,-2.5415,-2.5624,-2.6201,-2.59,-2.5314,-2.4838,-2.4368,0.0,-2.4054,-2.4494,-2.5034,-2.5561,-2.6135,-2.6512,-2.6549,-2.7419,-2.831,-2.8863,-3.0922,-3.3345,-3.6078,-3.7337,-3.8228,-3.8856,-3.9371,-3.9697,-3.9697,-3.9697,-3.9697,-3.9697,-3.9697,-3.9697,-3.9697,-3.9697,-3.9697,-3.9697,-3.9697,-3.9697,-3.9697,-3.9697,-3.9697,-3.9697,-3.9697,-3.9094,-3.8065,-3.8027,-3.74,-3.6468,-3.643,-3.6405,-3.6405,-3.6405,-3.6405,-3.6405,-3.6405,-3.6405,-3.6405,0.0,0.0,0.0,0.0,0.0,0.0,0.0,0.0,0.0,0.0,-0.7139,-0.7354,-0.7676,-0.783,-0.8096,0.0,0.0,0.0,0.0,0.0,0.0,0.0,0.0,0.0,-1.12,-1.1192,-1.1276,-1.1452,-1.1578,-1.1703,-1.1852,-1.2002,-1.2141,-1.2289,-1.2535,-1.2963,-1.3485,-1.3644,0.0,0.0,0.0,0.0,0.0,0.0,0.0,0.0,-1.7579,-1.7826,0.0,0.0,0.0,0.0,0.0,0.0,0.0,0.0,-2.0746,-2.128,-2.293,0.0,-2.4302,-2.4908,-2.4589,-2.4096,0.0,-2.3985,-2.4117,-2.4544,-2.5046,-2.5586,-2.6185,-2.6399,-2.6637,-2.7052,-2.7657,-2.8448,-2.9453,-3.1851,-3.4211,-3.6179,-3.7337,-3.8228,-3.8856,-3.9371,-3.9697,-3.9697,-3.9697,-3.9697,-3.9697,-3.9697,-3.9697,-3.9697,-3.9697,-3.9697,-3.9697,-3.9697,-3.9697,-3.9697,-3.9697,-3.9697,-3.9697,-3.9697,-3.932,-3.8642,-3.8203,-3.7613,-3.696,-3.6581,-3.6405,-3.6405,-3.6405,-3.6405,-3.6405,-3.6405,-3.6405,-3.6405,0.0,0.0,0.0,0.0,0.0,0.0,0.0,0.0,0.0,0.0,0.0,-0.6896,-0.7198,-0.7354,0.0,0.0,0.0,0.0,0.0,0.0,0.0,0.0,0.0,-1.0573,-1.0896,-1.0972,-1.1074,-1.12,-1.1352,-1.1452,-1.1528,-1.1644,-1.1753,-1.1852,-1.2175,-1.2648,-1.3234,-1.3503,-1.4116,0.0,-1.5188,0.0,0.0,0.0,0.0,0.0,-1.6803,-1.7095,0.0,-1.7826,-1.7963,-1.7963,0.0,0.0,0.0,0.0,-2.0216,-2.0732,-2.1995,-2.2782,-2.3306,-2.3647,-2.3684,-2.3603,-2.3603,-2.3864,-2.4263,-2.4908,-2.5245,-2.5674,-2.6386,-2.67,-2.6964,-2.7231,-2.8185,-2.9541,-3.1411,-3.3169,-3.4977,-3.6897,-3.7651,-3.8329,-3.917,-3.9521,-3.9697,-3.9697,-3.9697,-3.9697,-3.9697,-3.9697,-3.9697,-3.9697,-3.9697,-3.9697,-3.9697,-3.9697,-3.9697,-3.9697,-3.9697,-3.9697,-3.9697,-3.9697,-3.9245,-3.8454,-3.814,-3.755,-3.6832,-3.6531,-3.6405,-3.6405,-3.6405,-3.6405,-3.6405,-3.6405,-3.6405,-3.6405,0.0,0.0,0.0,0.0,0.0,0.0,0.0,0.0,0.0,0.0,0.0,0.0,0.0,0.0,0.0,0.0,0.0,0.0,0.0,0.0,0.0,0.0,-1.0162,-1.0334,-1.0667,-1.0794,-1.0947,-1.1099,-1.1217,-1.1301,-1.1301,-1.1463,-1.1591,-1.1668,-1.2023,-1.2479,-1.3032,-1.3483,-1.4033,-1.4658,-1.5003,0.0,0.0,0.0,0.0,0.0,0.0,0.0,0.0,-1.7162,-1.7273,-1.7217,-1.7451,0.0,0.0,0.0,0.0,0.0,-2.1474,-2.219,-2.2647,-2.272,-2.3144,-2.3548,-2.358,-2.3985,-2.4521,-2.5156,-2.5351,-2.5663,-2.6377,-2.6952,-2.7344,-2.7507,-2.9089,-3.1135,-3.3558,-3.4449,-3.5629,-3.7751,-3.8002,-3.8454,-3.9584,-3.9697,-3.9697,-3.9697,-3.9697,-3.9697,-3.9697,-3.9697,-3.9697,-3.9697,-3.9697,-3.9697,-3.9697,-3.9697,-3.9697,-3.9697,-3.9697,-3.9647,-3.9572,-3.9572,-3.8994,-3.8002,-3.7914,-3.7349,-3.6531,-3.6443,-3.6405,-3.6405,-3.6405,-3.6405,-3.6405,-3.6405,-3.6405,-3.6405,0.0,0.0,0.0,0.0,0.0,0.0,0.0,0.0,0.0,0.0,0.0,0.0,0.0,0.0,0.0,0.0,0.0,0.0,0.0,0.0,0.0,-0.9166,-0.9517,-0.9958,-1.0522,-1.0667,-1.0845,-1.1099,-1.1217,-1.1301,-1.1301,-1.1601,-1.1998,-1.2436,-1.249,-1.2894,-1.3512,-1.3575,-1.403,-1.4681,-1.4746,0.0,0.0,0.0,0.0,0.0,0.0,0.0,0.0,-1.6599,-1.6881,-1.7011,-1.6825,0.0,0.0,0.0,0.0,0.0,-2.106,-2.1769,-2.2409,-2.2827,-2.3308,-2.3715,-2.3891,-2.445,-2.5034,-2.5243,-2.5707,-2.6136,-2.6452,-2.6952,-2.7595,-2.8524,-3.0871,-3.288,-3.3771,-3.4731,-3.6022,-3.7801,-3.8002,-3.8454,-3.9584,-3.9697,-3.9697,-3.9697,-3.9697,-3.9697,-3.9697,-3.9697,-3.9697,-3.9697,-3.9697,-3.9697,-3.9697,-3.9697,-3.9697,-3.9697,-3.9697,-3.9446,-3.9045,-3.9045,-3.863,-3.7977,-3.7513,-3.7211,-3.7023,-3.6606,-3.6405,-3.6405,-3.6405,-3.6405,-3.6405,-3.6405,-3.6405,-3.6405,0.0,0.0,0.0,0.0,0.0,0.0,0.0,0.0,0.0,0.0,0.0,0.0,0.0,0.0,0.0,0.0,0.0,0.0,0.0,0.0,-0.8182,-0.8566,-0.889,-0.9439,-1.0205,-1.047,-1.0718,-1.0998,-1.1124,-1.1226,-1.131,-1.1635,-1.2038,-1.25,-1.2555,-1.2932,-1.3484,-1.3579,-1.3987,-1.4586,0.0,0.0,0.0,0.0,0.0,0.0,0.0,0.0,0.0,0.0,-1.6314,-1.6452,-1.6632,0.0,0.0,0.0,0.0,0.0,-2.0405,-2.1306,-2.2172,-2.2696,-2.3451,-2.4034,-2.4136,-2.4853,-2.5538,-2.5702,-2.6283,-2.6855,-2.7155,-2.7736,-2.8737,-3.0432,-3.2039,-3.3583,-3.5072,-3.5667,-3.6609,-3.8278,-3.8479,-3.8793,-3.9622,-3.9697,-3.9697,-3.9697,-3.9697,-3.9697,-3.9697,-3.9421,-3.9245,-3.9245,-3.8944,-3.8781,-3.8781,-3.8781,-3.8944,-3.9245,-3.9245,-3.8956,-3.8404,-3.8404,-3.809,-3.755,-3.7299,-3.7059,-3.6769,-3.6518,-3.6405,-3.6405,-3.6405,-3.6405,-3.6405,-3.6405,-3.6405,-3.6405,0.0,0.0,0.0,0.0,0.0,0.0,0.0,0.0,0.0,0.0,0.0,0.0,0.0,0.0,0.0,0.0,0.0,0.0,0.0,-0.7542,-0.7729,-0.8035,-0.8342,-0.8923,-0.9792,-1.018,-1.0514,-1.0794,-1.1081,-1.137,-1.1705,-1.197,-1.2303,-1.2655,-1.2759,-1.3066,-1.3549,-1.3665,-1.3999,-1.4515,0.0,0.0,0.0,0.0,0.0,0.0,0.0,0.0,0.0,0.0,0.0,0.0,0.0,0.0,0.0,-1.8153,-1.8721,-1.9276,-1.9814,-2.0906,-2.1929,-2.24,-2.3387,-2.4342,-2.453,-2.5182,-2.5824,-2.62,-2.6771,-2.7322,-2.7718,-2.8637,-2.9955,-3.1901,-3.2918,-3.4135,-3.6128,-3.6518,-3.7172,-3.8743,-3.8919,-3.9082,-3.9634,-3.9697,-3.9697,-3.9697,-3.9572,-3.9496,-3.9496,-3.8969,-3.8668,-3.8668,-3.8241,-3.8002,-3.8002,-3.8002,-3.8228,-3.8668,-3.8668,-3.8366,-3.7814,-3.7814,-3.7513,-3.6998,-3.6998,-3.6795,-3.6405,-3.6405,-3.6405,-3.6405,-3.6405,-3.6405,-3.6405,-3.6405,-3.6405,-3.6405,0.0,0.0,0.0,0.0,0.0,0.0,0.0,0.0,0.0,0.0,0.0,0.0,0.0,0.0,0.0,0.0,0.0,0.0,0.0,-0.7257,-0.7392,-0.7547,-0.7975,-0.856,-0.9237,-0.9766,-1.0205,-1.0522,-1.1209,-1.2003,-1.2889,-1.2914,-1.3091,-1.3425,-1.3425,-1.3631,-1.3965,-1.3965,-1.4172,-1.4515,-1.4515,0.0,0.0,0.0,0.0,0.0,0.0,0.0,0.0,0.0,0.0,0.0,0.0,0.0,-1.8053,-1.8167,-1.8735,-1.9342,-1.9561,-2.0613,-2.1686,-2.1907,-2.3079,-2.4403,-2.5233,-2.5471,-2.5782,-2.6655,-2.7037,-2.7322,-2.7718,-2.9274,-3.0871,-3.2026,-3.3558,-3.5014,-3.6241,-3.6857,-3.7563,-3.8781,-3.8919,-3.9082,-3.9634,-3.9697,-3.9697,-3.9697,-3.922,-3.8982,-3.8982,-3.8379,-3.8065,-3.8065,-3.8027,-3.8002,-3.8002,-3.8002,-3.8027,-3.8065,-3.8065,-3.7776,-3.7249,-3.7249,-3.6948,-3.6468,-3.6468,-3.6443,-3.6405,-3.6405,-3.6405,-3.6405,-3.6405,-3.6405,-3.6405,-3.6405,-3.6405,-3.6405,0.0,0.0,0.0,0.0,0.0,0.0,0.0,0.0,0.0,0.0,0.0,0.0,0.0,0.0,0.0,0.0,0.0,0.0,0.0,-0.7144,-0.7198,-0.7246,-0.7574,-0.7969,-0.8382,-0.942,-1.0188,-1.0701,-1.1537,-1.2318,-1.3009,-1.3009,-1.3168,-1.3511,-1.364,-1.3791,-1.401,-1.4139,-1.4297,-1.4515,-1.4515,-1.4515,0.0,0.0,0.0,0.0,0.0,0.0,0.0,0.0,-1.5762,-1.6204,-1.6418,-1.7161,-1.8023,-1.8317,-1.8742,-1.9271,-1.9742,-2.0416,-2.1168,-2.1813,-2.2838,-2.392,-2.4751,-2.567,-2.6472,-2.6986,-2.8004,-2.8923,-2.9457,-3.0378,-3.1461,-3.2566,-3.3859,-3.5228,-3.6671,-3.7048,-3.7462,-3.8241,-3.8329,-3.8555,-3.9132,-3.9182,-3.9182,-3.9182,-3.8981,-3.8718,-3.8354,-3.7801,-3.75,-3.75,-3.7161,-3.6985,-3.6985,-3.6985,-3.6985,-3.6985,-3.7324,-3.7211,-3.6719,-3.6719,-3.6606,-3.6405,-3.6405,-3.6405,-3.6405,-3.6405,-3.6405,-3.6405,-3.6405,-3.6405,-3.6405,-3.6405,-3.6405,-3.6405,0.0,0.0,0.0,0.0,0.0,0.0,0.0,0.0,0.0,0.0,0.0,0.0,0.0,0.0,0.0,0.0,0.0,0.0,-0.7085,-0.7112,-0.7112,-0.7112,-0.7306,-0.7568,-0.7824,-0.9076,-0.9986,-1.0512,-1.1599,-1.2459,-1.3101,-1.3101,-1.3229,-1.3511,-1.37,-1.386,-1.401,-1.4207,-1.4396,-1.4515,-1.4515,-1.4515,0.0,0.0,0.0,0.0,0.0,0.0,0.0,0.0,-1.5801,-1.6328,-1.6609,-1.7335,-1.8137,-1.8425,-1.8774,-1.9202,-1.9771,-2.0299,-2.0881,-2.1609,-2.2671,-2.3694,-2.4432,-2.563,-2.6791,-2.7351,-2.8846,-3.0204,-3.076,-3.1286,-3.2014,-3.3156,-3.411,-3.5303,-3.6948,-3.7186,-3.7387,-3.7939,-3.8002,-3.8165,-3.8567,-3.8592,-3.8592,-3.8592,-3.8442,-3.8165,-3.7764,-3.7224,-3.6971,-3.6971,-3.6606,-3.6405,-3.6405,-3.6405,-3.6405,-3.6417,-3.6795,-3.6769,-3.6405,-3.6405,-3.6405,-3.6405,-3.6405,-3.6405,-3.6405,-3.6405,-3.6405,-3.6405,-3.6405,-3.6405,-3.6405,-3.6405,-3.6405,-3.6405,0.0,0.0,0.0,0.0,0.0,0.0,0.0,0.0,0.0,0.0,0.0,0.0,0.0,0.0,0.0,0.0,0.0,0.0,-0.7085,-0.7112,-0.7112,-0.7112,-0.723,-0.7419,-0.7696,-0.8745,-0.9497,-0.9927,-1.1312,-1.2449,-1.3302,-1.3302,-1.3385,-1.3511,-1.37,-1.386,-1.401,-1.4207,-1.4396,-1.4515,-1.4515,-1.4515,-1.4515,0.0,0.0,0.0,0.0,0.0,0.0,0.0,-1.5976,-1.6707,-1.6707,-1.752,-1.8516,-1.8516,-1.8785,-1.9212,-1.9679,-2.0264,-2.082,-2.1303,-2.2622,-2.3915,-2.4383,-2.5402,-2.6552,-2.7779,-2.9517,-3.0914,-3.1329,-3.1851,-3.2591,-3.3721,-3.4361,-3.5303,-3.6948,-3.7174,-3.7374,-3.7927,-3.799,-3.799,-3.8002,-3.8002,-3.8002,-3.8002,-3.75,-3.7186,-3.7174,-3.6707,-3.6405,-3.6405,-3.6405,-3.6405,-3.6405,-3.6405,-3.6405,-3.6405,-3.6405,-3.6405,-3.6405,-3.6405,-3.6405,-3.6405,-3.6405,-3.6405,-3.6405,-3.6405,-3.6405,-3.6405,-3.6405,-3.6405,-3.6405,-3.6405,-3.6405,-3.6405,0.0,0.0,0.0,0.0,0.0,0.0,0.0,0.0,0.0,0.0,0.0,0.0,0.0,0.0,0.0,0.0,0.0,0.0,-0.7085,-0.7112,-0.7112,-0.7112,-0.7139,-0.7279,-0.7542,-0.866,-0.9879,-1.1248,-1.1806,-1.2357,-1.2958,-1.305,-1.3202,-1.3385,-1.3679,-1.383,-1.389,-1.4178,-1.4327,-1.4366,-1.4455,-1.4515,-1.4515,0.0,0.0,0.0,0.0,0.0,0.0,0.0,0.0,0.0,-1.7187,-1.78,-1.8516,-1.8516,-1.9009,-1.9689,-2.01,-2.0591,-2.1177,-2.1956,-2.2793,-2.3595,-2.4336,-2.5669,-2.7469,-3.0059,-3.1017,-3.1594,-3.2451,-3.2717,-3.3056,-3.3784,-3.4688,-3.5558,-3.6531,-3.6656,-3.6719,-3.6883,-3.6895,-3.6998,-3.7387,-3.7425,-3.7425,-3.7425,-3.7274,-3.7059,-3.6669,-3.6505,-3.6405,-3.6405,-3.6405,-3.6405,-3.6405,-3.6405,-3.6405,-3.6405,-3.6405,-3.6405,-3.6405,-3.6405,-3.6405,-3.6405,-3.6405,-3.6405,-3.6405,-3.6405,-3.6405,-3.6405,-3.6405,-3.6405,-3.6405,-3.6405,-3.6405,-3.6405,0.0,0.0,0.0,0.0,0.0,0.0,0.0,0.0,0.0,0.0,0.0,0.0,0.0,0.0,0.0,0.0,0.0,0.0,0.0,-0.7112,-0.7112,-0.7112,-0.7112,-0.7367,-0.7929,-0.8818,-0.9916,-1.1209,-1.1529,-1.1965,-1.2529,-1.2644,-1.2867,-1.3119,-1.3498,-1.367,-1.37,-1.4049,-1.4267,-1.4419,-1.4511,-1.4662,-1.4869,0.0,0.0,0.0,0.0,0.0,0.0,0.0,0.0,0.0,-1.7383,-1.7866,-1.8478,-1.8692,-1.9209,-1.9833,-2.0488,-2.086,-2.1342,-2.2263,-2.2977,-2.3826,-2.5265,-2.6566,-2.8208,-3.0996,-3.1681,-3.218,-3.3376,-3.3589,-3.3777,-3.4417,-3.5069,-3.5683,-3.6329,-3.6405,-3.6405,-3.6405,-3.6405,-3.6543,-3.687,-3.6908,-3.6908,-3.6908,-3.6908,-3.6757,-3.643,-3.6405,-3.6304,-3.6044,-3.6031,-3.5931,-3.5717,-3.5705,-3.5705,-3.5705,-3.5705,-3.5705,-3.5717,-3.6204,-3.6405,-3.6405,-3.6132,-3.5906,-3.573,-3.5943,-3.6031,-3.6056,-3.6329,-3.6405,-3.6405,-3.6405,-3.6405,-3.6405,0.0,0.0,0.0,0.0,0.0,0.0,0.0,0.0,0.0,0.0,-0.5489,0.0,0.0,0.0,0.0,0.0,0.0,0.0,0.0,-0.7112,-0.7112,-0.7112,-0.7155,-0.7622,-0.8605,-0.9102,-0.9662,-1.0244,-1.0776,-1.1373,-1.1996,-1.2151,-1.2413,-1.2792,-1.3266,-1.3471,-1.3501,-1.3878,-1.4219,-1.4519,-1.4594,-1.4911,-1.5375,-1.5601,0.0,0.0,0.0,0.0,0.0,0.0,0.0,0.0,-1.7441,-1.7858,-1.8476,-1.9023,-1.9413,-1.9823,-2.0813,-2.1176,-2.1455,-2.2335,-2.3318,-2.4627,-2.6756,-2.7694,-2.8719,-3.0894,-3.1759,-3.2508,-3.395,-3.4268,-3.4545,-3.5224,-3.5433,-3.5658,-3.6144,-3.6267,-3.6267,-3.6267,-3.6267,-3.6267,-3.6267,-3.6267,-3.6279,-3.6329,-3.6279,-3.6279,-3.6329,-3.6279,-3.5981,-3.5445,-3.542,-3.5182,-3.468,-3.468,-3.468,-3.468,-3.468,-3.468,-3.4763,-3.5755,-3.6267,-3.6229,-3.5692,-3.5144,-3.4718,-3.5219,-3.542,-3.547,-3.6019,-3.6279,-3.6329,-3.6329,-3.6367,-3.6405,0.0,0.0,0.0,0.0,0.0,0.0,0.0,0.0,0.0,0.0,0.0,0.0,0.0,0.0,0.0,0.0,0.0,0.0,0.0,-0.7112,-0.7112,-0.7112,-0.7511,-0.8017,-0.8657,-0.8985,-0.942,-0.99,-1.0276,-1.0744,-1.131,-1.1553,-1.1999,-1.2575,-1.3123,-1.3345,-1.3369,-1.3993,-1.4121,-1.4015,-1.4603,-1.4906,-1.5041,-1.5343,-1.5666,0.0,0.0,0.0,0.0,0.0,0.0,0.0,-1.7871,-1.8301,-1.883,-1.9113,-1.9813,-2.062,-2.0989,-2.1652,-2.2335,-2.2904,-2.425,-2.5737,-2.6816,-2.7547,-2.8606,-3.065,-3.1483,-3.2114,-3.322,-3.3929,-3.4367,-3.4254,-3.4931,-3.5395,-3.5115,-3.5077,-3.5077,-3.5077,-3.5077,-3.5077,-3.5077,-3.5077,-3.5253,-3.5633,-3.5316,-3.5265,-3.5658,-3.5303,-3.5027,-3.4856,-3.4856,-3.4806,-3.468,-3.468,-3.468,-3.468,-3.468,-3.468,-3.4726,-3.4964,-3.5077,-3.5064,-3.4951,-3.4826,-3.4726,-3.4806,-3.4856,-3.4868,-3.5027,-3.5341,-3.5671,-3.5671,-3.5994,-3.6405,0.0,0.0,0.0,0.0,0.0,0.0,0.0,0.0,0.0,0.0,0.0,0.0,0.0,0.0,0.0,0.0,0.0,0.0,0.0,0.0,-0.7139,-0.7224,-0.7796,-0.8281,-0.8676,-0.9084,-0.9403,-0.9644,-0.983,-1.0238,-1.087,-1.1083,-1.1499,-1.2126,-1.2683,-1.301,-1.3174,-1.3686,-1.3916,-1.3983,-1.4472,-1.4824,-1.5078,-1.557,-1.5932,-1.6266,-1.6557,0.0,0.0,0.0,0.0,0.0,0.0,0.0,-1.8848,-1.9288,-2.0008,-2.0778,-2.1169,-2.1721,-2.2387,-2.3298,-2.4705,-2.609,-2.6854,-2.7528,-2.8391,-2.981,-3.0755,-3.1783,-3.312,-3.3847,-3.4231,-3.4247,-3.4731,-3.5006,-3.4718,-3.468,-3.468,-3.468,-3.468,-3.468,-3.468,-3.468,-3.4839,-3.5082,-3.4843,-3.4806,-3.5094,-3.4831,-3.46,-3.4336,-3.4324,-3.4198,-3.3935,-3.3935,-3.3935,-3.3935,-3.3935,-3.3935,-3.3947,-3.4487,-3.4575,-3.4324,-3.4324,-3.4173,-3.396,-3.4223,-3.4324,-3.4349,-3.4613,-3.4856,-3.5107,-3.5107,-3.5328,-3.5579,0.0,0.0,0.0,0.0,0.0,0.0,0.0,0.0,0.0,0.0,0.0,0.0,0.0,0.0,0.0,0.0,0.0,0.0,0.0,0.0,0.0,-0.7499,-0.8077,-0.8512,-0.8807,-0.9275,-0.9516,-0.9516,-0.9548,-0.9862,-1.0498,-1.0703,-1.1104,-1.1723,-1.2273,-1.2691,-1.298,-1.3387,-1.3705,-1.3978,-1.4292,-1.466,-1.5169,-1.5744,-1.6193,-1.6577,-1.6925,-1.7304,-1.7604,-1.7647,0.0,0.0,0.0,0.0,-1.8838,-1.9512,-2.0189,-2.0828,-2.1334,-2.1778,-2.2356,-2.367,-2.4892,-2.5996,-2.6741,-2.7382,-2.8043,-2.8828,-2.9996,-3.1379,-3.2955,-3.3594,-3.3975,-3.436,-3.4512,-3.455,-3.4449,-3.4437,-3.4437,-3.4437,-3.4437,-3.4437,-3.4437,-3.4437,-3.4474,-3.4575,-3.45,-3.4474,-3.4575,-3.4487,-3.4223,-3.3771,-3.3759,-3.3533,-3.3081,-3.3124,-3.3124,-3.3124,-3.3124,-3.3124,-3.3106,-3.4022,-3.4186,-3.3759,-3.3759,-3.3495,-3.3106,-3.3571,-3.3759,-3.3809,-3.4261,-3.45,-3.4575,-3.4575,-3.4638,-3.468,0.0,0.0,0.0,0.0,0.0,0.0,0.0,0.0,0.0,0.0,-0.5144,0.0,0.0,0.0,0.0,0.0,0.0,0.0,-0.7112,0.0,0.0,-0.7977,-0.8408,-0.8844,-0.9221,-0.9396,-0.9516,-0.9516,-0.9676,-0.9868,-1.0085,-1.0523,-1.1056,-1.1723,-1.2366,-1.269,-1.2782,-1.3465,-1.362,-1.3459,-1.4139,-1.453,-1.4748,-1.5169,-1.5665,-1.6202,-1.6377,-1.6786,-1.7304,-1.7461,-1.7623,0.0,0.0,0.0,-1.9314,-1.992,-2.0601,-2.1173,-2.1415,-2.2241,-2.3236,-2.4166,-2.4848,-2.5533,-2.6428,-2.6909,-2.7391,-2.8308,-2.9449,-3.0648,-3.1764,-3.2711,-3.3328,-3.3283,-3.3696,-3.3847,-3.337,-3.3294,-3.3294,-3.3294,-3.3294,-3.3294,-3.3294,-3.3294,-3.3495,-3.3972,-3.3571,-3.3508,-3.3985,-3.3558,-3.3269,-3.3194,-3.3224,-3.3156,-3.3124,-3.3124,-3.3124,-3.3124,-3.3124,-3.3124,-3.3081,-3.3232,-3.3257,-3.3224,-3.3224,-3.3187,-3.3124,-3.3156,-3.3224,-3.3194,-3.3269,-3.3583,-3.401,-3.401,-3.4311,-3.468,0.0,0.0,0.0,0.0,0.0,0.0,0.0,0.0,0.0,0.0,0.0,-0.5673,0.0,0.0,0.0,-0.6879,-0.7036,-0.7144,-0.7256,-0.7487,-0.7811,-0.8262,-0.8533,-0.8896,-0.93,-0.9446,-0.9548,-0.9676,-0.9772,-1.0007,-1.0412,-1.0802,-1.1174,-1.1546,-1.2158,-1.2493,-1.2668,-1.3099,-1.3266,-1.3294,-1.3831,-1.4217,-1.4533,-1.4892,-1.5355,-1.578,-1.5815,-1.6167,-1.6648,-1.7165,-1.745,-1.7718,-1.8545,0.0,0.0,0.0,-2.0577,-2.1282,-2.1578,-2.2216,-2.2956,-2.3619,-2.427,-2.4972,-2.5668,-2.6247,-2.6806,-2.7463,-2.8474,-2.9658,-3.1202,-3.2063,-3.2646,-3.3032,-3.3282,-3.3357,-3.3106,-3.3124,-3.3124,-3.3124,-3.3124,-3.3124,-3.3124,-3.3124,-3.3224,-3.342,-3.3219,-3.3181,-3.342,-3.3206,-3.3124,-3.3124,-3.3124,-3.3124,-3.3124,-3.3124,-3.3124,-3.3124,-3.3124,-3.3124,-3.3124,-3.3124,-3.3124,-3.3124,-3.3124,-3.3124,-3.3124,-3.3124,-3.3124,-3.3124,-3.3124,-3.3219,-3.3432,-3.3432,-3.3596,-3.3796,0.0,0.0,0.0,0.0,0.0,0.0,0.0,0.0,0.0,0.0,0.0,0.0,0.0,0.0,0.0,0.0,-0.7127,-0.7279,-0.7498,-0.7793,-0.8094,-0.8466,-0.8714,-0.9023,-0.9338,-0.9446,-0.9612,-0.9804,-0.983,-1.0128,-1.0698,-1.1093,-1.1332,-1.155,-1.2028,-1.2358,-1.2526,-1.279,-1.301,-1.3236,-1.3645,-1.408,-1.4461,-1.4685,-1.51,-1.5568,-1.5496,-1.5806,-1.6285,-1.6908,-1.726,-1.7652,-1.8619,-1.9192,0.0,0.0,0.0,-2.1282,-2.1693,-2.2149,-2.2573,-2.2925,-2.3701,-2.4445,-2.491,-2.5542,-2.6209,-2.6761,-2.751,-2.8578,-3.0246,-3.1129,-3.1882,-3.2684,-3.2657,-3.2527,-3.2569,-3.2569,-3.2577,-3.2757,-3.2782,-3.2875,-3.3068,-3.3124,-3.3124,-3.3124,-3.3124,-3.3124,-3.3124,-3.3124,-3.3124,-3.3124,-3.3124,-3.3048,-3.2855,-3.2825,-3.2782,-3.2782,-3.2877,-3.2952,-3.2995,-3.2995,-3.3038,-3.3124,-3.3124,-3.3124,-3.3068,-3.3038,-3.2995,-3.2982,-3.2853,-3.2853,-3.2909,-3.2853,-3.2797,-3.2797,0.0,0.0,0.0,0.0,0.0,0.0,0.0,0.0,0.0,0.0,0.0,0.0,-0.6625,-0.6701,-0.6875,-0.7328,-0.7373,-0.7503,-0.7763,-0.8163,-0.846,-0.8688,-0.9064,0.0,-0.9484,-0.9484,-0.9612,-0.9804,-0.9926,-1.0225,-1.0698,-1.1154,-1.1577,-1.1893,-1.2187,-1.2291,-1.2342,-1.2716,-1.301,-1.3236,-1.3645,-1.4109,-1.4569,-1.4461,-1.4956,-1.5688,-1.554,-1.5902,-1.6531,-1.6745,-1.7102,-1.7539,-1.8435,-1.9002,-1.9449,0.0,0.0,0.0,-2.1693,-2.2149,-2.2501,-2.2532,-2.3225,-2.4033,-2.4435,-2.489,-2.5521,-2.6441,-2.6849,-2.7392,-2.8379,-2.9651,-3.086,-3.1814,-3.1368,-3.0993,-3.117,-3.1034,-3.1178,-3.1878,-3.194,-3.2279,-3.3031,-3.3124,-3.3124,-3.3124,-3.3124,-3.3124,-3.3124,-3.3124,-3.3124,-3.3124,-3.3124,-3.2817,-3.2265,-3.2067,-3.194,-3.1953,-3.2272,-3.2562,-3.2711,-3.2711,-3.2853,-3.3124,-3.3124,-3.3124,-3.3068,-3.281,-3.2711,-3.268,-3.2208,-3.2232,-3.2388,-3.2133,-3.2077,-3.2077,0.0,0.0,0.0,0.0,0.0,0.0,0.0,0.0,0.0,0.0,0.0,0.0,0.0,-0.7032,-0.7182,-0.7626,-0.7812,-0.7996,-0.8179,-0.8472,-0.8796,-0.9075,-0.9227,-0.9376,-0.9484,-0.9612,-0.9766,-0.9926,-1.0117,-1.051,-1.1134,-1.1308,-1.1683,-1.2151,-1.2258,-1.2378,-1.2489,-1.2636,-1.2973,-1.3419,-1.3681,-1.4283,-1.499,-1.4917,-1.5317,-1.5878,-1.568,-1.5799,-1.6089,-1.6682,-1.7037,-1.7463,-1.8542,-1.9187,-1.9645,-2.0459,-2.0935,-2.1244,-2.154,-2.1817,-2.2128,-2.2418,-2.2967,-2.3557,-2.4012,-2.4414,-2.4873,-2.5409,-2.5814,-2.6366,-2.7353,-2.8663,-2.9839,-3.0634,-3.0506,-3.0384,-3.0438,-3.0384,-3.0457,-3.0693,-3.1023,-3.136,-3.178,-3.1918,-3.2001,-3.2001,-3.2001,-3.2001,-3.2001,-3.2001,-3.196,-3.1834,-3.1805,-3.158,-3.1119,-3.0856,-3.0676,-3.0574,-3.1161,-3.1503,-3.1577,-3.2203,-3.2636,-3.2853,-3.3038,-3.3124,-3.3081,-3.281,-3.2636,-3.2475,-3.1945,-3.1725,-3.1661,-3.1403,-3.1303,-3.1303,0.0,0.0,0.0,0.0,0.0,0.0,0.0,0.0,0.0,-0.6202,0.0,0.0,0.0,0.0,-0.7597,-0.8048,-0.8315,-0.852,-0.8589,-0.8835,-0.9055,-0.9306,-0.9338,-0.944,-0.9612,-0.974,-0.99,-1.011,-1.0238,-1.0692,-1.1389,-1.1389,-1.1779,-1.2415,-1.2415,-1.2489,-1.2599,-1.2746,-1.3083,-1.3543,-1.3836,-1.4422,-1.5077,-1.512,-1.5524,-1.6058,-1.5825,-1.5897,-1.611,-1.6668,-1.6989,-1.7317,-1.8275,-1.9033,-1.9764,-2.0547,-2.0935,-2.1177,-2.1436,-2.1617,-2.1803,-2.219,-2.2729,-2.3267,-2.3577,-2.4105,-2.4583,-2.4818,-2.5155,-2.5582,-2.6247,-2.7278,-2.8326,-2.9332,-2.9297,-2.9136,-2.9136,-2.9136,-2.9196,-2.9374,-2.9868,-3.0367,-3.0811,-3.1112,-3.1317,-3.1386,-3.1358,-3.1317,-3.1317,-3.1317,-3.1194,-3.1001,-3.0692,-3.0347,-2.9987,-2.966,-2.9409,-2.9223,-2.9882,-3.03,-3.0454,-3.1271,-3.1887,-3.2351,-3.2624,-3.2853,-3.3068,-3.2723,-3.2419,-3.2057,-3.1371,-3.1015,-3.0746,-3.0419,-3.0283,-3.0283,0.0,0.0,0.0,0.0,0.0,0.0,0.0,0.0,-0.6524,-0.6791,0.0,0.0,0.0,0.0,0.0,-0.8646,-0.888,-0.9017,-0.9017,-0.9177,-0.9306,-0.9306,-0.9446,-0.9612,-0.9804,-0.9804,-0.9958,-1.0301,-1.0308,-1.0692,-1.1389,-1.143,-1.1842,-1.2599,-1.2599,-1.2636,-1.2636,-1.3046,-1.3317,-1.3572,-1.4082,-1.4516,-1.4855,-1.4988,-1.5521,-1.6182,-1.5959,-1.625,-1.6689,-1.6689,-1.6853,-1.7172,-1.7578,-1.8594,-1.9715,-2.0372,-2.0731,-2.0984,0.0,0.0,0.0,-2.1731,-2.2501,-2.3184,-2.3184,-2.3888,-2.4572,-2.4818,-2.4903,-2.4946,-2.5158,-2.5549,-2.6373,-2.7965,-2.763,-2.7185,-2.7185,-2.7185,-2.7357,-2.7893,-2.8545,-2.9295,-3.0245,-3.0733,-3.1116,-3.1308,-3.1157,-3.1034,-3.1034,-3.1034,-3.091,-3.0733,-2.9755,-2.9109,-2.8928,-2.8462,-2.8129,-2.792,-2.8502,-2.9008,-2.9468,-2.9931,-3.0695,-3.1581,-3.1857,-3.2394,-3.3025,-3.2562,-3.2057,-3.1492,-3.0566,-3.0011,-2.9726,-2.9255,-2.9082,-2.9082,0.0,0.0,0.0,0.0,0.0,-0.6206,-0.6529,-0.6637,-0.6886,0.0,0.0,0.0,-0.8343,-0.8553,-0.8745,-0.8914,-0.8977,-0.9049,-0.921,-0.9274,-0.9338,-0.9446,-0.9606,-0.974,-0.9804,-1.0053,-1.0212,-1.0301,-1.0466,-1.0823,-1.1389,-1.1567,-1.1954,-1.2599,-1.29,-1.3046,-1.3046,-1.3163,-1.3557,-1.4082,-1.4253,-1.4721,-1.5387,-1.54,-1.5725,-1.6106,-1.6073,-1.625,-1.6476,-1.6476,-1.6763,-1.7221,-1.7991,-1.8634,-1.928,-1.9902,-2.0372,-2.0731,-2.1012,0.0,0.0,0.0,0.0,0.0,-2.3184,-2.3888,-2.454,-2.4583,-2.4625,-2.47,-2.4946,-2.5073,-2.537,-2.5953,-2.6462,-2.6704,-2.6475,-2.6487,-2.6531,-2.6665,-2.7174,-2.7766,-2.8466,-2.8919,-2.9293,-2.9521,-2.9613,-2.9573,-2.9441,-2.9173,-2.8879,-2.8652,-2.7924,-2.7444,-2.7186,-2.6782,-2.6448,-2.6185,-2.6893,-2.7565,-2.8219,-2.911,-2.9989,-3.088,-3.1294,-3.1605,-3.1793,-3.1893,-3.1572,-3.0982,-3.008,-2.9439,-2.9013,-2.8513,-2.8279,-2.8279,0.0,0.0,0.0,0.0,0.0,-0.6776,-0.726,-0.7354,-0.7555,0.0,0.0,0.0,-0.8902,-0.9058,-0.9145,-0.9215,-0.9215,-0.9247,-0.9376,-0.9472,-0.9542,-0.9612,-0.9798,-0.9982,-1.016,-1.027,-1.0457,-1.0758,-1.0763,-1.1108,-1.1749,-1.1853,-1.2254,-1.2856,-1.3083,-1.3236,-1.3317,-1.3454,-1.3769,-1.4185,-1.4326,-1.4768,-1.5333,-1.5733,-1.6084,-1.6324,-1.6588,-1.6796,-1.6967,-1.6834,-1.6932,-1.7212,-1.791,-1.8474,-1.8993,-1.9587,-2.0098,-2.0537,0.0,0.0,-2.1516,-2.1593,0.0,0.0,-2.334,-2.3938,-2.4497,-2.4497,-2.4497,-2.454,-2.47,-2.4818,-2.4946,-2.5073,-2.5622,-2.5915,-2.5695,-2.5737,-2.5737,-2.5653,-2.6227,-2.6764,-2.7203,-2.7822,-2.8287,-2.8526,-2.8657,-2.8605,-2.8383,-2.7995,-2.7713,-2.7528,-2.694,-2.6498,-2.6249,-2.5843,-2.5506,-2.5242,-2.5776,-2.639,-2.7138,-2.7944,-2.8858,-2.9829,-3.034,-3.0611,-3.0701,-3.0859,-3.0814,-3.0487,-2.952,-2.8874,-2.842,-2.7904,-2.7715,-2.7715,0.0,0.0,-0.6671,-0.7172,-0.7291,-0.7524,-0.8067,-0.8166,-0.8316,0.0,-0.8813,-0.8991,-0.9365,-0.9427,-0.9459,-0.96,-0.9639,-0.9633,-0.9665,-0.9826,-0.9923,-0.9923,-1.0046,-1.0322,-1.0737,-1.0529,-1.0745,-1.1389,-1.1169,-1.1465,-1.219,-1.2261,-1.2606,-1.32,-1.3229,-1.3346,-1.3514,-1.3843,-1.4042,-1.4138,-1.4469,-1.4775,-1.5198,-1.6025,-1.6485,-1.6733,-1.7249,-1.7612,-1.7731,-1.7437,-1.7287,-1.7253,-1.7654,-1.8224,-1.887,-1.9488,-2.0014,0.0,0.0,0.0,0.0,-2.181,-2.2645,0.0,-2.3481,-2.3997,-2.4454,-2.4497,-2.4497,-2.4497,-2.4497,-2.47,-2.4861,-2.4861,-2.4988,-2.5073,-2.4903,-2.5031,-2.5115,-2.4903,-2.5569,-2.6144,-2.6362,-2.7121,-2.7742,-2.8007,-2.8059,-2.7926,-2.7689,-2.7296,-2.7062,-2.701,-2.6393,-2.5999,-2.5812,-2.5338,-2.5031,-2.4861,-2.5031,-2.5527,-2.6301,-2.6738,-2.7558,-2.8631,-2.9152,-2.9474,-2.9635,-2.9737,-2.9874,-2.9988,-2.9059,-2.8362,-2.7904,-2.7441,-2.7309,-2.7309,0.0,-0.7048,-0.7353,-0.7576,-0.7856,-0.8186,-0.8543,-0.8583,-0.873,-0.9136,-0.945,-0.9781,-1.0077,-1.0101,-1.0176,-1.0381,-1.0381,-1.0449,-1.0619,-1.0653,-1.0687,-1.0687,-1.0857,-1.1018,-1.1104,-1.1154,-1.1242,-1.1389,-1.1506,-1.1765,-1.2197,-1.2516,-1.2863,-1.32,-1.3382,-1.3455,-1.3514,-1.3843,-1.4243,-1.4656,-1.5023,-1.5606,-1.6289,-1.646,-1.6708,-1.7031,-1.7136,-1.7342,-1.7561,-1.7656,-1.7671,-1.7736,-1.8216,-1.8684,-1.9244,-2.0074,-2.0656,-2.111,-2.159,-2.1894,-2.2076,-2.2117,-2.267,0.0,-2.3481,-2.387,-2.4282,-2.4454,-2.4497,-2.4497,-2.4497,-2.454,-2.4583,-2.4583,-2.4625,-2.4711,-2.4861,-2.4946,-2.4946,-2.4903,-2.5031,-2.5285,-2.5653,-2.6185,-2.6599,-2.6816,-2.7044,-2.7044,-2.6764,-2.6517,-2.6238,-2.5821,-2.5527,-2.5285,-2.5115,-2.4786,-2.4625,-2.4583,-2.4615,-2.5234,-2.6312,-2.6391,-2.7069,-2.8128,-2.8477,-2.8617,-2.8664,-2.8675,-2.8943,-2.9266,-2.8664,-2.8149,-2.7631,-2.7404,-2.7309,-2.7309,-0.7345,-0.7677,-0.797,-0.8163,-0.8377,-0.8604,-0.8957,-0.9108,-0.93,-0.9554,-0.9965,-1.0353,-1.0557,-1.0604,-1.0644,-1.0742,-1.0742,-1.0783,-1.088,-1.099,-1.1058,-1.1058,-1.1224,-1.14,-1.1545,-1.1434,-1.1605,-1.2006,-1.1969,-1.2227,-1.2705,-1.2928,-1.3194,-1.3499,-1.3763,-1.3948,-1.4096,-1.4598,-1.5093,-1.5552,-1.5569,-1.5967,-1.6672,-1.7218,-1.7539,-1.7747,-1.8195,-1.8281,-1.827,-1.835,-1.8272,-1.8213,-1.8689,-1.9084,-1.9546,-2.0437,-2.0941,-2.1316,-2.1751,-2.2124,-2.2365,-2.2365,-2.2849,0.0,0.0,-2.3947,-2.4249,-2.4454,-2.4497,-2.4497,-2.4497,-2.4497,-2.4497,-2.4497,-2.4497,-2.454,-2.47,-2.47,-2.47,-2.47,-2.4818,-2.4988,-2.52,-2.5611,-2.5988,-2.6321,-2.6467,-2.6437,-2.6207,-2.601,-2.5748,-2.5369,-2.5158,-2.4988,-2.4903,-2.4615,-2.4497,-2.4497,-2.4497,-2.506,-2.6111,-2.6111,-2.6658,-2.7668,-2.7914,-2.8019,-2.8019,-2.8149,-2.8243,-2.8337,-2.8102,-2.7831,-2.7594,-2.7357,-2.7309,-2.7309,-0.7938,-0.8218,-0.849,-0.8709,-0.8861,-0.9058,-0.9411,-0.9712,-0.9936,-1.0147,-1.0513,-1.0807,-1.1032,-1.109,-1.1138,-1.1115,-1.116,-1.1208,-1.1185,-1.1318,-1.1429,-1.1429,-1.1527,-1.171,-1.2022,-1.1752,-1.1972,-1.2673,-1.2468,-1.2655,-1.32,-1.3236,-1.3492,-1.3895,-1.4179,-1.4479,-1.4819,-1.5464,-1.6077,-1.6517,-1.6469,-1.6661,-1.7095,-1.8109,-1.8567,-1.8709,-1.9472,-1.9525,-1.9259,-1.917,-1.9015,-1.8898,-1.9297,-1.9644,-2.0014,-2.0887,-2.1302,-2.1597,-2.2035,-2.2373,-2.2637,-2.2637,-2.302,-2.3493,0.0,0.0,0.0,-2.4325,-2.4368,-2.4368,-2.4411,-2.4454,-2.4454,-2.4497,-2.4497,-2.4497,-2.4497,-2.4497,-2.4497,-2.4497,-2.47,-2.4818,-2.4818,-2.5158,-2.5569,-2.5988,-2.601,-2.5937,-2.5728,-2.5559,-2.5338,-2.5073,-2.4903,-2.4818,-2.4818,-2.4625,-2.4497,-2.4497,-2.4497,-2.4921,-2.5761,-2.5844,-2.6376,-2.7175,-2.7458,-2.7536,-2.7547,-2.7762,-2.7715,-2.7547,-2.7584,-2.7594,-2.7536,-2.7357,-2.7309,-2.7309,-0.8322,-0.8573,-0.8857,-0.8886,-0.937,-0.9829,-1.0052,-1.0319,-1.0647,-1.1066,-1.1194,-1.1302,-1.1586,-1.1853,-1.2017,-1.1894,-1.2146,-1.226,-1.2145,-1.2168,-1.2168,-1.2168,-1.2204,-1.2291,-1.2508,-1.2481,-1.2611,-1.2863,-1.3011,-1.3127,-1.32,-1.3382,-1.3748,-1.4246,-1.4276,-1.4683,-1.535,-1.6091,-1.6756,-1.7441,-1.8372,-1.8567,-1.837,-1.9037,-1.944,-1.9778,-2.0093,-2.0175,-2.0141,-1.9869,-1.9926,-2.0118,-2.0163,-2.0649,-2.1274,-2.1824,-2.2265,-2.265,-2.2911,-2.2984,-2.3023,-2.3023,-2.3105,-2.3232,-2.346,0.0,-2.3634,-2.3841,0.0,-2.3927,-2.4206,0.0,0.0,-2.4454,-2.4497,-2.4497,-2.4497,-2.4497,-2.4497,-2.4497,-2.454,-2.454,-2.454,-2.4786,-2.5073,-2.5285,-2.5327,-2.5242,-2.5031,-2.4988,-2.4871,-2.4583,-2.454,-2.454,-2.454,-2.4497,-2.4497,-2.4497,-2.4497,-2.4766,-2.5272,-2.5699,-2.621,-2.6718,-2.7123,-2.7309,-2.7357,-2.7357,-2.7357,-2.7357,-2.7547,-2.7489,-2.7309,-2.7309,-2.7309,-2.7309,-0.8836,-0.9124,-0.9405,-0.9405,-0.9882,-1.0267,-1.0373,-1.0739,-1.1181,-1.1642,-1.1872,-1.2096,-1.2319,-1.2608,-1.281,-1.2864,-1.3003,-1.3027,-1.2924,-1.2941,-1.2858,-1.2643,-1.2636,-1.2673,-1.2783,-1.2783,-1.2863,-1.3083,-1.3342,-1.3554,-1.3665,-1.3937,-1.4319,-1.479,-1.5088,-1.5756,-1.6668,-1.7442,-1.8195,-1.8951,-1.9783,-2.014,-2.0251,-2.0297,-2.0596,-2.097,-2.1266,-2.1221,-2.1105,-2.097,-2.1015,-2.115,-2.1284,-2.1642,-2.2033,-2.2407,-2.2706,-2.3013,-2.3101,-2.3091,-2.3091,-2.3091,-2.3091,-2.3178,-2.346,-2.3503,-2.3547,-2.3754,0.0,0.0,0.0,0.0,0.0,0.0,-2.4335,-2.4378,-2.4497,-2.4497,-2.4497,-2.4497,-2.4497,-2.4497,-2.4497,-2.4743,-2.4946,-2.5031,-2.5115,-2.5115,-2.4903,-2.4903,-2.4786,-2.4497,-2.4497,-2.4497,-2.4497,-2.4497,-2.4497,-2.4497,-2.4497,-2.4745,-2.5199,-2.542,-2.5896,-2.6625,-2.6822,-2.7061,-2.7309,-2.7309,-2.7309,-2.7309,-2.7404,-2.7357,-2.7309,-2.7309,-2.7309,-2.7309,-0.9537,0.0,-0.9887,-0.9962,-1.0337,-1.0665,-1.0887,-1.1359,-1.1819,-1.2168,-1.2508,-1.277,-1.2981,-1.3258,-1.3486,-1.3588,-1.3696,-1.366,-1.3547,-1.3533,-1.3428,-1.3159,-1.3152,-1.3189,-1.3264,-1.3264,-1.3346,-1.3569,-1.3807,-1.3999,-1.4159,-1.4401,-1.4743,-1.5264,-1.5832,-1.6742,-1.7885,-1.8825,-1.9696,-2.0501,-2.1126,-2.164,-2.2015,-2.1647,-2.1722,-2.2132,-2.229,-2.2255,-2.2087,-2.1998,-2.2043,-2.2087,-2.223,-2.2485,-2.275,-2.2925,-2.3144,-2.3266,-2.3266,-2.3232,-2.3188,-2.3188,-2.3135,-2.3135,-2.3373,-2.3406,-2.3406,-2.358,-2.3624,0.0,0.0,0.0,-2.3797,-2.4067,0.0,-2.4153,-2.4368,-2.4411,-2.4454,-2.4497,-2.4497,-2.4497,-2.4497,-2.4658,-2.4786,-2.4786,-2.4946,-2.4946,-2.4786,-2.4786,-2.47,-2.4497,-2.4497,-2.4497,-2.4497,-2.4497,-2.4497,-2.4497,-2.4497,-2.4673,-2.5003,-2.5127,-2.5585,-2.6216,-2.6511,-2.6801,-2.7123,-2.7258,-2.7309,-2.7309,-2.7309,-2.7309,-2.7309,-2.7309,-2.7309,-2.7309,-1.0447,-1.0199,-1.0104,-1.0409,-1.0689,-1.1121,-1.1842,-1.2406,-1.2757,-1.277,-1.2999,-1.3265,-1.3449,-1.3755,-1.3945,-1.3891,-1.4137,-1.4179,-1.3909,-1.3895,-1.3888,-1.3874,-1.3874,-1.3959,-1.4155,-1.4162,-1.4279,-1.4482,-1.4489,-1.4489,-1.4489,-1.4504,-1.4909,-1.5616,-1.6197,-1.7285,-1.8756,-1.9919,-2.0994,-2.1869,-2.2471,-2.3003,-2.3396,-2.2925,-2.2882,-2.3047,-2.3047,-2.3047,-2.3013,-2.2847,-2.2882,-2.3013,-2.2838,-2.3101,-2.346,-2.3503,-2.3624,-2.3797,-2.3797,-2.3634,-2.3503,-2.3503,-2.3276,-2.3091,-2.3091,-2.3091,-2.3091,-2.3135,-2.3135,-2.3188,-2.346,-2.3503,-2.359,0.0,-2.3797,0.0,0.0,-2.4206,-2.4292,-2.4454,-2.4497,-2.4497,-2.4497,-2.4497,-2.4497,-2.4497,-2.4497,-2.4497,-2.4497,-2.4497,-2.4497,-2.4497,-2.4497,-2.4497,-2.4497,-2.4497,-2.4497,-2.4497,-2.4497,-2.4507,-2.4538,-2.4983,-2.5199,-2.5282,-2.6196,-2.6625,-2.6677,-2.7123,-2.7309,-2.7309,-2.7309,-2.7309,-2.7309,-2.7309,-2.7309,-2.7309,-1.1113,-1.1102,-1.1095,-1.0999,-1.1288,-1.1846,-1.2624,-1.2869,-1.3233,-1.394,-1.4311,-1.4674,-1.513,-1.5439,-1.5589,-1.548,-1.5553,-1.5467,-1.5048,-1.4892,-1.4709,-1.4496,-1.4379,-1.4348,-1.4387,-1.4387,-1.4426,-1.4511,-1.4677,-1.4739,-1.4787,-1.5006,-1.5316,-1.5707,-1.6622,-1.7819,-1.9211,-2.0578,-2.1742,-2.2766,-2.3444,-2.3807,-2.3937,-2.358,-2.3493,-2.358,-2.3754,-2.3711,-2.3537,-2.3493,-2.3493,-2.3537,-2.3493,-2.3677,-2.3937,-2.3754,-2.3884,-2.4024,-2.3841,-2.3754,-2.3711,-2.3711,-2.3537,-2.3363,-2.3363,-2.3232,-2.3091,-2.3091,-2.3091,-2.3144,-2.3232,-2.3232,-2.3319,0.0,0.0,-2.3677,0.0,-2.3937,-2.4024,-2.4282,-2.4411,-2.4497,-2.4497,-2.4497,-2.4497,-2.4497,-2.4497,-2.4497,-2.4497,-2.4497,-2.4497,-2.4497,-2.4497,-2.4497,-2.4497,-2.4497,-2.4497,-2.4497,-2.4497,-2.4497,-2.4507,-2.4662,-2.5099,-2.5678,-2.5978,-2.6511,-2.7092,-2.7247,-2.7309,-2.7309,-2.7309,-2.7309,-2.7309,-2.7309,-2.7309,-2.7309,-1.1798,-1.2019,-1.2095,-1.1638,-1.2024,-1.2643,-1.3223,-1.3681,-1.4262,-1.5102,-1.5668,-1.6194,-1.6713,-1.6891,-1.6988,-1.6989,-1.6809,-1.653,-1.6137,-1.5812,-1.5497,-1.516,-1.4921,-1.4809,-1.4809,-1.4809,-1.4809,-1.4809,-1.4973,-1.5075,-1.5082,-1.5287,-1.5607,-1.6061,-1.7066,-1.8359,-1.9808,-2.1231,-2.2394,-2.3406,-2.4067,-2.4292,-2.4292,-2.41,-2.4057,-2.4057,-2.4239,-2.4196,-2.4057,-2.4057,-2.4057,-2.4057,-2.4057,-2.4153,-2.4282,-2.41,-2.4153,-2.4282,-2.41,-2.4013,-2.3937,-2.3937,-2.3754,-2.3634,-2.3634,-2.3406,-2.3232,-2.3232,-2.3188,-2.3091,-2.3091,-2.3091,-2.3144,0.0,0.0,-2.345,0.0,-2.3754,-2.3884,-2.4163,-2.4325,-2.4411,-2.4497,-2.4497,-2.4497,-2.4497,-2.4497,-2.4497,-2.4497,-2.4497,-2.4497,-2.4497,-2.4497,-2.4497,-2.4497,-2.4497,-2.4497,-2.4497,-2.4497,-2.4497,-2.4497,-2.4497,-2.49,-2.5658,-2.5813,-2.6356,-2.7071,-2.7237,-2.7309,-2.7309,-2.7309,-2.7309,-2.7309,-2.7309,-2.7309,-2.7309,-1.2614,-1.2999,-1.315,-1.2485,-1.2998,-1.3549,-1.3775,-1.4823,-1.5748,-1.6268,-1.7102,-1.7779,-1.83,-1.8186,-1.8099,-1.8265,-1.789,-1.7451,-1.7106,-1.6641,-1.6184,-1.5812,-1.5555,-1.5431,-1.5431,-1.5431,-1.5431,-1.5431,-1.5431,-1.5431,-1.5431,-1.5389,-1.5809,-1.6614,-1.7506,-1.8837,-2.0561,-2.1873,-2.2984,-2.3884,-2.4325,-2.4497,-2.4497,-2.4497,-2.4497,-2.4497,-2.4497,-2.4497,-2.4497,-2.4497,-2.4497,-2.4497,-2.4497,-2.4497,-2.4497,-2.4497,-2.4497,-2.4497,-2.4497,-2.4368,-2.4206,-2.4206,-2.4024,-2.3841,-2.3841,-2.3667,-2.3503,-2.3503,-2.3319,-2.3135,-2.3135,-2.3144,-2.3135,0.0,0.0,0.0,-2.346,-2.3624,-2.3841,-2.412,-2.4153,-2.4239,-2.4497,-2.4497,-2.4497,-2.4497,-2.4497,-2.4497,-2.4497,-2.4497,-2.4497,-2.4497,-2.4497,-2.4497,-2.4497,-2.4497,-2.4497,-2.4497,-2.4497,-2.4497,-2.4497,-2.4518,-2.4786,-2.5241,-2.572,-2.6221,-2.6687,-2.7123,-2.7309,-2.7309,-2.7309,-2.7309,-2.7309,-2.7309,-2.7309,-2.7309,-1.4222,-1.4744,-1.5138,-1.5089,-1.4615,-1.4518,-1.5406,-1.5978,-1.6867,-1.8362,-1.8956,-1.9491,-2.0208,-2.0243,-2.0041,-1.9669,-1.9353,-1.8983,-1.8443,-1.756,-1.6996,-1.6902,-1.6251,-1.5922,-1.5922,-1.5922,-1.5922,-1.5922,-1.5707,-1.5616,-1.5616,-1.5465,-1.5767,-1.6435,-1.7455,-1.8758,-2.0298,-2.1785,-2.3149,-2.4325,-2.4454,-2.4497,-2.4497,-2.4497,-2.4497,-2.4497,-2.4497,-2.4497,-2.4497,-2.4497,-2.4497,-2.4497,-2.4497,-2.4497,-2.4497,-2.4497,-2.4497,-2.4497,-2.4497,-2.4454,-2.4411,-2.4411,-2.4239,-2.411,-2.411,-2.3894,-2.3711,-2.3711,-2.3667,-2.3624,-2.3624,-2.3493,-2.3406,-2.3406,-2.3232,-2.3135,-2.3188,-2.3232,-2.3363,-2.3634,-2.3807,-2.4067,-2.4454,-2.4497,-2.4497,-2.4497,-2.4497,-2.4497,-2.4497,-2.4497,-2.4497,-2.4497,-2.4497,-2.4497,-2.4497,-2.4497,-2.4497,-2.4497,-2.4497,-2.4497,-2.4507,-2.4859,-2.5295,-2.574,-2.6241,-2.6708,-2.7133,-2.7258,-2.7309,-2.7309,-2.7309,-2.7309,-2.7309,-2.7309,-2.7309,-2.7309,-1.5488,-1.6102,-1.6666,-1.7074,-1.6832,-1.6701,-1.7009,-1.7696,-1.8641,-2.0009,-2.0563,-2.1024,-2.1561,-2.1544,-2.1319,-2.0819,-2.0501,-2.0025,-1.934,-1.8549,-1.793,-1.752,-1.7005,-1.6588,-1.6316,-1.6308,-1.624,-1.6087,-1.5824,-1.5766,-1.5908,-1.5839,-1.6176,-1.6894,-1.7958,-1.9211,-2.058,-2.2309,-2.3604,-2.4497,-2.4497,-2.4497,0.0,-2.4497,-2.4497,-2.4497,-2.4497,-2.4497,-2.4497,-2.4497,-2.4497,-2.4497,-2.4497,-2.4497,-2.4497,-2.4497,-2.4497,-2.4497,-2.4497,-2.4497,-2.4497,-2.4497,-2.4411,-2.4325,-2.4325,-2.4153,-2.397,-2.397,-2.3884,-2.3754,-2.3677,-2.359,-2.346,-2.3319,-2.3188,-2.3091,-2.3091,-2.3091,-2.3188,-2.346,-2.3667,-2.3927,-2.4325,-2.4454,-2.4497,-2.4497,-2.4497,-2.4497,-2.4497,-2.4497,-2.4497,-2.4497,-2.4497,-2.4497,-2.4497,-2.4497,-2.4497,-2.4497,-2.4704,-2.4797,-2.4817,-2.5306,-2.5761,-2.6241,-2.6501,-2.6884,-2.7309,-2.7309,-2.7309,-2.7309,-2.7309,-2.7309,-2.7309,-2.7309,-2.7309,-2.7309,-1.6867,-1.748,-1.8123,-1.8714,-1.9343,-1.9513,-1.8906,-1.9673,-2.0578,-2.1286,-2.1829,-2.2274,-2.2485,-2.2353,-2.2141,-2.1874,-2.1454,-2.09,-2.0131,-1.9611,-1.8949,-1.8156,-1.7846,-1.7435,-1.6881,-1.6827,-1.6615,-1.6322,-1.5971,-1.5989,-1.6234,-1.6327,-1.6811,-1.7711,-1.869,-1.9915,-2.1356,-2.3081,-2.4057,-2.4497,-2.4497,-2.4497,-2.4497,-2.4497,-2.4497,-2.4497,-2.4497,-2.4497,-2.4497,-2.4497,-2.4497,-2.4497,-2.4497,-2.4497,-2.4497,-2.4497,-2.4497,-2.4497,-2.4497,-2.4497,-2.4497,-2.4497,-2.4497,-2.4497,-2.4497,-2.4368,-2.4249,-2.4249,-2.4067,-2.3841,-2.3677,-2.359,-2.345,-2.3232,-2.3144,-2.3091,-2.3144,-2.3135,-2.3188,-2.346,-2.3667,0.0,-2.4153,-2.4368,-2.4497,-2.4497,-2.4497,-2.4497,-2.4497,-2.4497,-2.4497,-2.4497,-2.4497,-2.4497,-2.4497,-2.4497,-2.4528,-2.459,-2.4993,-2.522,-2.5326,-2.5771,-2.6231,-2.6615,-2.6677,-2.6936,-2.7309,-2.7309,-2.7309,-2.7309,-2.7309,-2.7309,-2.7309,-2.7309,-2.7309,-2.7309,-1.9665,-2.0095,-2.0343,-2.0458,-2.131,-2.196,-2.1972,-2.1417,-2.1289,-2.2105,-2.2492,-2.275,-2.296,-2.2969,-2.2838,-2.2618,-2.2353,-2.2006,-2.1728,-2.0774,-2.007,-1.9694,-1.9013,-1.8483,-1.8167,-1.7916,-1.7602,-1.7335,-1.679,-1.6547,-1.6548,-1.6556,-1.7029,-1.7973,-1.8734,-2.0359,-2.253,-2.345,-2.4057,-2.4497,-2.4497,-2.4497,-2.4497,-2.4497,-2.4497,-2.4497,-2.4497,-2.4497,-2.4497,-2.4497,-2.4497,-2.4497,-2.4497,-2.4497,-2.4497,-2.4497,-2.4497,-2.4497,-2.4497,-2.4497,-2.4497,-2.4497,-2.4497,-2.4497,-2.4497,-2.4454,-2.4464,-2.4464,-2.4411,-2.4368,-2.4325,-2.4024,-2.3711,-2.3667,-2.3363,-2.3188,-2.3406,-2.3232,-2.3188,-2.346,-2.3667,-2.3894,-2.4153,-2.4368,-2.4497,-2.4497,-2.4497,-2.4497,-2.4497,-2.4497,-2.4497,-2.4497,-2.4497,-2.4497,-2.4497,-2.4497,-2.4693,-2.5065,-2.5148,-2.542,-2.5782,-2.6237,-2.6542,-2.6635,-2.7019,-2.7226,-2.7309,-2.7309,-2.7309,-2.7309,-2.7309,-2.7309,-2.7309,-2.7309,-2.7309,-2.7309,-2.0806,-2.1047,-2.1356,-2.1812,-2.2447,-2.3046,-2.3561,-2.3175,-2.2907,-2.3121,-2.3264,-2.3266,-2.312,-2.3091,-2.3013,-2.2803,-2.2662,-2.2441,-2.2097,-2.1504,-2.089,-2.0402,-1.9749,-1.9173,-1.8638,-1.8319,-1.801,-1.7688,-1.7323,-1.7126,-1.7102,-1.7249,-1.7644,-1.833,-1.9805,-2.1476,-2.3198,-2.3764,-2.4196,-2.4497,-2.4497,-2.4497,-2.4497,-2.4497,-2.4497,-2.4497,-2.4497,-2.4497,-2.4497,-2.4497,-2.4497,-2.4497,-2.4497,-2.4497,-2.4497,-2.4497,-2.4497,-2.4497,-2.4497,-2.4497,-2.4497,-2.4497,-2.4497,-2.4497,-2.4497,-2.4497,-2.4497,-2.4497,-2.4497,-2.4454,-2.4368,-2.4067,-2.3797,-2.3797,-2.3537,-2.3363,-2.3503,-2.3276,-2.3188,-2.346,-2.3667,-2.3894,-2.4153,-2.4368,-2.4497,-2.4497,-2.4497,-2.4497,-2.4497,-2.4497,-2.4497,-2.4497,-2.4497,-2.4497,-2.4497,-2.4497,-2.4735,-2.5189,-2.5461,-2.5802,-2.6304,-2.676,-2.6978,-2.6988,-2.7216,-2.7309,-2.7309,-2.7309,-2.7309,-2.7309,-2.7309,-2.7309,-2.7309,-2.7309,-2.7309,-2.7309,-2.1597,-2.1809,-2.2215,-2.2901,-2.3349,-2.3834,-2.4453,-2.4551,-2.4365,-2.3857,-2.3789,-2.3623,-2.314,-2.3091,-2.3057,-2.2882,-2.2838,-2.2715,-2.2362,-2.2087,-2.1642,-2.0952,-2.051,-1.9929,-1.9195,-1.8925,-1.8604,-1.8232,-1.8001,-1.7829,-1.7846,-1.8086,-1.8539,-1.9217,-2.1069,-2.2555,-2.359,-2.4024,-2.4335,-2.4497,-2.4497,-2.4497,-2.4497,-2.4497,-2.4497,-2.4497,-2.4497,-2.4497,-2.4497,-2.4497,-2.4497,-2.4497,-2.4497,-2.4497,-2.4497,-2.4497,-2.4497,-2.4497,-2.4497,-2.4497,-2.4497,-2.4497,-2.4497,-2.4497,-2.4497,-2.4497,-2.4497,-2.4497,-2.4497,-2.4454,-2.4292,-2.4067,-2.3884,-2.3927,-2.3721,-2.3503,-2.3547,-2.3319,-2.3232,-2.3547,-2.3711,-2.3927,-2.4239,-2.4411,-2.4497,-2.4497,-2.4497,-2.4497,-2.4497,-2.4497,-2.4497,-2.4497,-2.4497,-2.4497,-2.4497,-2.4497,-2.4776,-2.5334,-2.572,-2.6221,-2.677,-2.7143,-2.7309,-2.7309,-2.7309,-2.7309,-2.7309,-2.7309,-2.7309,-2.7309,-2.7309,-2.7309,-2.7309,-2.7309,-2.7309,-2.7309,-2.2809,-2.3296,-2.3588,-2.3666,-2.4375,-2.4969,-2.5047,-2.501,-2.4763,-2.3896,-2.3789,-2.3623,-2.314,-2.3091,-2.3101,-2.3057,-2.3057,-2.3047,-2.3003,-2.2794,-2.2495,-2.1963,-2.1696,-2.1311,-2.0809,-2.0483,-2.007,-1.9623,-1.9255,-1.8881,-1.8608,-1.8795,-1.97,-2.1177,-2.2211,-2.3101,-2.3797,-2.4067,-2.4335,-2.4497,-2.4497,-2.4497,-2.4497,-2.4497,-2.4497,-2.4497,-2.4497,-2.4497,-2.4497,-2.4497,-2.4497,-2.4497,-2.4497,-2.4497,-2.4497,-2.4497,-2.4497,-2.4497,-2.4497,-2.4497,-2.4497,-2.4497,-2.4497,-2.4497,-2.4497,-2.4497,-2.4497,-2.4497,-2.4497,-2.4497,-2.4454,-2.4282,-2.4196,-2.4411,-2.3894,-2.3547,-2.3754,-2.3406,-2.3276,-2.3711,-2.3797,-2.397,-2.4411,-2.4497,-2.4497,-2.4497,-2.4497,-2.4497,-2.4497,-2.4497,-2.4497,-2.4497,-2.4497,-2.4497,-2.4497,-2.4497,-2.4931,-2.5813,-2.5854,-2.6387,-2.7247,-2.7289,-2.7309,-2.7309,-2.7309,-2.7309,-2.7309,-2.7309,-2.7309,-2.7309,-2.7309,-2.7309,-2.7309,-2.7309,-2.7309,-2.7309,-2.3452,-2.3877,-2.4248,-2.4512,-2.4891,-2.5156,-2.543,-2.5244,-2.4853,-2.4248,-2.3945,-2.3623,-2.314,-2.3091,-2.3091,-2.3091,-2.3091,-2.3091,-2.3091,-2.2925,-2.2583,-2.2097,-2.1731,-2.132,-2.0826,-2.0551,-2.0293,-2.0105,-1.996,-1.9728,-1.9414,-1.9782,-2.0703,-2.205,-2.2872,-2.3547,-2.4067,-2.4282,-2.4411,-2.4497,-2.4497,-2.4497,-2.4497,-2.4497,-2.4497,-2.4497,-2.4497,-2.4497,-2.4497,-2.4497,-2.4497,-2.4497,-2.4497,-2.4497,-2.4497,-2.4497,-2.4497,-2.4497,-2.4497,-2.4497,-2.4497,-2.4497,-2.4497,-2.4497,-2.4497,-2.4497,-2.4497,-2.4497,-2.4497,-2.4497,-2.4497,-2.4411,-2.4411,-2.4497,-2.4153,-2.3937,-2.4024,-2.3754,-2.3667,-2.398,-2.4024,-2.4153,-2.4454,-2.4497,-2.4497,-2.4497,-2.4497,-2.4497,-2.4497,-2.4497,-2.4497,-2.4497,-2.4497,-2.4497,-2.4497,-2.4497,-2.4952,-2.5875,-2.5875,-2.6407,-2.7309,-2.7309,-2.7309,-2.7309,-2.7309,-2.7309,-2.7309,-2.7309,-2.7309,-2.7309,-2.7309,-2.7309,-2.7309,-2.7309,-2.7309,-2.7309,-2.3975,-2.4316,-2.4707,-2.5057,-2.5176,-2.5322,-2.5518,-2.5166,-2.4717,-2.4287,-2.3857,-2.3486,-2.313,-2.3091,-2.3091,-2.3091,-2.3091,-2.3091,-2.3091,-2.2969,-2.2706,-2.2318,-2.1989,-2.1633,-2.1186,-2.1006,-2.088,-2.0835,-2.0835,-2.0727,-2.0565,-2.1078,-2.1828,-2.2765,-2.3396,-2.3937,-2.4282,-2.4454,-2.4497,-2.4497,-2.4497,-2.4497,-2.4497,-2.4497,-2.4497,-2.4497,-2.4497,-2.4497,-2.4497,-2.4497,-2.4497,-2.4497,-2.4497,-2.4497,-2.4497,-2.4497,-2.4497,-2.4497,-2.4497,-2.4497,-2.4497,-2.4497,-2.4497,-2.4497,-2.4497,-2.4497,-2.4497,-2.4497,-2.4497,-2.4497,-2.4497,-2.4497,-2.4497,-2.4497,-2.4325,-2.4206,-2.4206,-2.398,-2.3884,-2.4163,-2.4206,-2.4292,-2.4497,-2.4497,-2.4497,-2.4497,-2.4497,-2.4497,-2.4497,-2.4497,-2.4497,-2.4497,-2.4497,-2.4497,-2.4497,-2.4631,-2.513,-2.5875,-2.6065,-2.6542,-2.7309,-2.7309,-2.7309,-2.7309,-2.7309,-2.7309,-2.7309,-2.7309,-2.7309,-2.7309,-2.7309,-2.7309,-2.7309,-2.7309,-2.7309,-2.7309,-2.4414,-2.4756,-2.5106,-2.5116,-2.5439,-2.5586,-2.5184,-2.4707,-2.4277,-2.3857,-2.3418,-2.3101,-2.3091,-2.3091,-2.3091,-2.3091,-2.3091,-2.3091,-2.3091,-2.3091,-2.3013,-2.2803,-2.2803,-2.2662,-2.2397,-2.2397,-2.2264,-2.2097,-2.2097,-2.2087,-2.2104,-2.2775,-2.3232,-2.3503,-2.398,-2.4292,-2.4497,-2.4497,-2.4497,-2.4497,-2.4497,-2.4497,-2.4497,-2.4497,-2.4497,-2.4497,-2.4497,-2.4497,-2.4497,-2.4497,-2.4497,-2.4497,-2.4497,-2.4497,-2.4497,-2.4497,-2.4497,-2.4497,-2.4497,-2.4497,-2.4497,-2.4497,-2.4497,-2.4497,-2.4497,-2.4497,-2.4497,-2.4497,-2.4497,-2.4497,-2.4497,-2.4497,-2.4497,-2.4497,-2.4325,-2.4206,-2.4206,-2.398,-2.3884,-2.4163,-2.4206,-2.4292,-2.4497,-2.4497,-2.4497,-2.4497,-2.4497,-2.4497,-2.4497,-2.4497,-2.4497,-2.4497,-2.4497,-2.4497,-2.4497,-2.4952,-2.544,-2.593,-2.6387,-2.6853,-2.7309,-2.7309,-2.7309,-2.7309,-2.7309,-2.7309,-2.7309,-2.7309,-2.7309,-2.7309,-2.7309,-2.7309,-2.7309,-2.7309,-2.7309,-2.7309,-2.4863,-2.5215,-2.5527,-2.5527,-2.5596,-2.5538,-2.5184,-2.4697,-2.4268,-2.3848,-2.3408,-2.3091,-2.3091,-2.3091,-2.3091,-2.3091,-2.3091,-2.3091,-2.3091,-2.3091,-2.3013,-2.2794,-2.2803,-2.2662,-2.2397,-2.2397,-2.2353,-2.2309,-2.2309,-2.2485,-2.2775,-2.3309,-2.3711,-2.398,-2.4282,-2.4454,-2.4497,-2.4497,-2.4497,-2.4497,-2.4497,-2.4497,-2.4497,-2.4497,-2.4497,-2.4497,-2.4497,-2.4497,-2.4497,-2.4497,-2.4497,-2.4497,-2.4497,-2.4497,-2.4497,-2.4497,-2.4497,-2.4497,-2.4497,-2.4497,-2.4497,-2.4497,-2.4497,-2.4497,-2.4497,-2.4497,-2.4497,-2.4497,-2.4497,-2.4497,-2.4497,-2.4497,-2.4497,-2.4497,-2.4464,-2.4411,-2.4411,-2.4325,-2.4325,-2.4368,-2.4411,-2.4411,-2.4497,-2.4497,-2.4497,-2.4497,-2.4497,-2.4497,-2.4497,-2.4497,-2.4497,-2.4497,-2.4497,-2.4497,-2.4497,-2.4962,-2.5451,-2.593,-2.6397,-2.6864,-2.7309,-2.7309,-2.7309,-2.7309,-2.7309,-2.7309,-2.7309,-2.7309,-2.7309,-2.7309,-2.7309,-2.7309,-2.7309,-2.7309,-2.7309,-2.7309,-2.5322,-2.5547,-2.5693,-2.5693,-2.5596,-2.5342,-2.4893,-2.4453,-2.4023,-2.3603,-2.3266,-2.3091,-2.3091,-2.3091,-2.3091,-2.3091,-2.3091,-2.3091,-2.3091,-2.3091,-2.3057,-2.2925,-2.2925,-2.2838,-2.2662,-2.2652,-2.2652,-2.2652,-2.2828,-2.3091,-2.3353,-2.3841,-2.4153,-2.4335,-2.4454,-2.4497,-2.4497,-2.4497,-2.4497,-2.4497,-2.4497,-2.4497,-2.4497,-2.4497,-2.4497,-2.4497,-2.4497,-2.4497,-2.4497,-2.4497,-2.4497,-2.4497,-2.4497,-2.4497,-2.4497,-2.4497,-2.4497,-2.4497,-2.4497,-2.4497,-2.4497,-2.4497,-2.4497,-2.4497,-2.4497,-2.4497,-2.4497,-2.4497,-2.4497,-2.4497,-2.4497,-2.4497,-2.4497,-2.4497,-2.4497,-2.4497,-2.4497,-2.4497,-2.4497,-2.4497,-2.4497,-2.4497,-2.4497,-2.4497,-2.4497,-2.4497,-2.4497,-2.4497,-2.4497,-2.4497,-2.4497,-2.4497,-2.4662,-2.4755,-2.4755,-2.542,-2.5865,-2.619,-2.6656,-2.7029,-2.7309,-2.7309,-2.7309,-2.7309,-2.7309,-2.7309,-2.7309,-2.7309,-2.7309,-2.7309,-2.7309,-2.7309,-2.7309,-2.7309,-2.7309,-2.7309,-2.5693,-2.5693,-2.5693,-2.5693,-2.5361,-2.4922,-2.4482,-2.4062,-2.3633,-2.3149,-2.3091,-2.3091,-2.3091,-2.3091,-2.3091,-2.3091,-2.3091,-2.3091,-2.3091,-2.3091,-2.3091,-2.3091,-2.3091,-2.3091,-2.3091,-2.3091,-2.3101,-2.3144,-2.358,-2.3797,-2.3841,-2.4282,-2.4497,-2.4497,-2.4497,-2.4497,-2.4497,-2.4497,-2.4497,-2.4497,-2.4497,-2.4497,-2.4497,-2.4497,-2.4497,-2.4497,-2.4497,-2.4497,-2.4497,-2.4497,-2.4497,-2.4497,-2.4497,-2.4497,-2.4497,-2.4497,-2.4497,-2.4497,-2.4497,-2.4497,-2.4497,-2.4497,-2.4497,-2.4497,-2.4497,-2.4497,-2.4497,-2.4497,-2.4497,-2.4497,-2.4497,-2.4497,-2.4497,-2.4497,-2.4497,-2.4497,-2.4497,-2.4497,-2.4497,-2.4497,-2.4497,-2.4497,-2.4497,-2.4497,-2.4497,-2.4497,-2.4497,-2.4497,-2.4497,-2.4528,-2.4549,-2.4549,-2.4962,-2.5199,-2.523,-2.6134,-2.6635,-2.6667,-2.7102,-2.7309,-2.7309,-2.7309,-2.7309,-2.7309,-2.7309,-2.7309,-2.7309,-2.7309,-2.7309,-2.7309,-2.7309,-2.7309,-2.7309,-2.7309,-2.7309,-2.7309,-2.5693,-2.5693,-2.5693,-2.5693,-2.5361,-2.4922,-2.4482,-2.4062,-2.3633,-2.3149,-2.3091,-2.3091,-2.3091,-2.3091,-2.3091,-2.3091,-2.3091,-2.3091,-2.3091,-2.3091,-2.3091,-2.3091,-2.3091,-2.3091,-2.3091,-2.3091,-2.3188,-2.3416,-2.3667,-2.3884,-2.411,-2.4368,-2.4497,-2.4497,-2.4497,-2.4497,-2.4497,-2.4497,-2.4497,-2.4497,-2.4497,-2.4497,-2.4497,-2.4497,-2.4497,-2.4497,-2.4497,-2.4497,-2.4497,-2.4497,-2.4497,-2.4497,-2.4497,-2.4497,-2.4497,-2.4497,-2.4497,-2.4497,-2.4497,-2.4497,-2.4497,-2.4497,-2.4497,-2.4497,-2.4497,-2.4497,-2.4497,-2.4497,-2.4497,-2.4497,-2.4497,-2.4497,-2.4497,-2.4497,-2.4497,-2.4497,-2.4497,-2.4497,-2.4497,-2.4497,-2.4497,-2.4497,-2.4497,-2.4497,-2.4497,-2.4497,-2.4497,-2.4497,-2.4497,-2.4654,-2.4838,-2.5024,-2.5127,-2.5344,-2.572,-2.6335,-2.6791,-2.7143,-2.7258,-2.7309,-2.7309,-2.7309,-2.7309,-2.7309,-2.7309,-2.7309,-2.7309,-2.7309,-2.7309,-2.7309,-2.7309,-2.7309,-2.7309,-2.7309,-2.7309,-2.7309,-2.5693,-2.5693,-2.5693,-2.5693,-2.5205,-2.4687,-2.4453,-2.3896,-2.3408,-2.312,-2.3091,-2.3091,-2.3091,-2.3091,-2.3091,-2.3091,-2.3091,-2.3091,-2.3091,-2.3091,-2.3091,-2.3091,-2.3091,-2.3091,-2.3091,-2.3091,-2.3178,-2.3319,-2.3624,-2.3884,-2.4024,-2.4368,-2.4497,-2.4497,-2.4497,-2.4497,-2.4497,-2.4497,-2.4497,-2.4497,-2.4497,-2.4497,-2.4497,-2.4497,-2.4497,-2.4497,-2.4497,-2.4497,-2.4497,-2.4497,-2.4497,-2.4497,-2.4497,-2.4497,-2.4497,-2.4497,-2.4497,-2.4497,-2.4497,-2.4497,-2.4497,-2.4497,-2.4497,-2.4497,-2.4497,-2.4497,-2.4497,-2.4497,-2.4497,-2.4497,-2.4497,-2.4497,-2.4497,-2.4497,-2.4497,-2.4454,-2.4368,-2.4454,-2.4454,-2.4368,-2.4454,-2.4497,-2.4497,-2.4497,-2.4497,-2.4497,-2.4411,-2.4368,-2.4368,-2.4537,-2.4825,-2.5189,-2.5502,-2.5832,-2.6241,-2.6698,-2.7061,-2.7309,-2.7309,-2.7309,-2.7309,-2.7309,-2.7309,-2.7309,-2.7309,-2.7309,-2.7309,-2.7309,-2.7309,-2.7309,-2.7309,-2.7309,-2.7309,-2.7309,-2.7309,-2.7309,-2.5693,-2.5693,-2.5693,-2.5693,-2.5059,-2.4492,-2.4424,-2.3695,-2.3169,-2.3101,-2.3091,-2.3091,-2.3091,-2.3091,-2.3091,-2.3091,-2.3091,-2.3091,-2.3091,-2.3091,-2.3091,-2.3091,-2.3091,-2.3091,-2.3091,-2.3091,-2.3135,-2.3232,-2.3624,-2.3841,-2.3927,-2.4325,-2.4497,-2.4497,-2.4497,-2.4497,-2.4497,-2.4497,-2.4497,-2.4497,-2.4497,-2.4497,-2.4497,-2.4497,-2.4497,-2.4497,-2.4497,-2.4497,-2.4497,-2.4497,-2.4497,-2.4497,-2.4497,-2.4497,-2.4497,-2.4497,-2.4497,-2.4497,-2.4497,-2.4497,-2.4497,-2.4497,-2.4497,-2.4497,-2.4497,-2.4497,-2.4497,-2.4497,-2.4497,-2.4497,-2.4497,-2.4497,-2.4497,-2.4497,-2.4454,-2.4411,-2.4196,-2.4325,-2.4325,-2.4163,-2.4282,-2.4411,-2.4411,-2.4411,-2.4411,-2.4411,-2.4311,-2.4265,-2.4265,-2.4478,-2.485,-2.5297,-2.5819,-2.6294,-2.6625,-2.7018,-2.7262,-2.7309,-2.7309,-2.7309,-2.7309,-2.7309,-2.7309,-2.7309,-2.7309,-2.7309,-2.7309,-2.7309,-2.7309,-2.7309,-2.7309,-2.7309,-2.7309,-2.7309,-2.7309,-2.7309,-2.5693,-2.5693,-2.5693,-2.5693,-2.5312,-2.4844,-2.4473,-2.4004,-2.3555,-2.314,-2.3091,-2.3091,-2.3091,-2.3091,-2.3091,-2.3091,-2.3091,-2.3091,-2.3091,-2.3091,-2.3091,-2.3091,-2.3091,-2.3091,-2.3091,-2.3091,-2.3266,-2.3711,-2.3754,-2.4013,-2.4411,-2.4454,-2.4497,-2.4497,-2.4497,-2.4497,-2.4497,-2.4497,-2.4497,-2.4497,-2.4497,-2.4497,-2.4497,-2.4497,-2.4497,-2.4497,-2.4497,-2.4497,-2.4497,-2.4497,-2.4497,-2.4497,-2.4497,-2.4497,-2.4497,-2.4497,-2.4497,-2.4497,-2.4497,-2.4497,-2.4497,-2.4497,-2.4497,-2.4497,-2.4497,-2.4497,-2.4497,-2.4497,-2.4497,-2.4497,-2.4497,-2.4497,-2.4497,-2.4497,-2.4378,-2.4249,-2.4206,-2.4024,-2.3884,-2.3884,-2.3884,-2.3927,-2.3927,-2.3927,-2.3927,-2.3927,-2.4237,-2.4458,-2.4458,-2.4995,-2.5378,-2.5714,-2.5809,-2.6155,-2.6836,-2.6918,-2.7081,-2.7309,-2.7309,-2.7309,-2.7309,-2.7309,-2.7309,-2.7309,-2.7309,-2.7309,-2.7309,-2.7309,-2.7309,-2.7309,-2.7309,-2.7309,-2.7309,-2.7309,-2.7309,-2.7309,-2.5693,-2.5693,-2.5693,-2.5693,-2.5361,-2.5047,-2.4795,-2.4404,-2.4053,-2.3812,-2.3783,-2.3783,-2.3783,-2.3783,-2.3695,-2.3516,-2.3486,-2.3486,-2.3486,-2.3227,-2.3091,-2.3091,-2.3091,-2.3091,-2.3091,-2.3232,-2.3406,-2.3634,-2.3894,-2.411,-2.4335,-2.4454,-2.4497,-2.4497,-2.4497,-2.4497,-2.4497,-2.4497,-2.4497,-2.4497,-2.4497,-2.4497,-2.4497,-2.4497,-2.4497,-2.4497,-2.4497,-2.4497,-2.4497,-2.4497,-2.4497,-2.4497,-2.4497,-2.4497,-2.4497,-2.4497,-2.4497,-2.4559,-2.4797,-2.4869,-2.4931,-2.5202,-2.5264,-2.5264,-2.5264,-2.5078,-2.4931,-2.5213,-2.4838,-2.458,-2.4828,-2.4662,-2.4497,-2.4497,-2.4411,-2.4282,-2.4024,-2.398,-2.4018,-2.3997,-2.4115,-2.4249,-2.448,-2.451,-2.451,-2.45,-2.4611,-2.4686,-2.4686,-2.5053,-2.5305,-2.5399,-2.5922,-2.6343,-2.6699,-2.6699,-2.6842,-2.7081,-2.7081,-2.7167,-2.7309,-2.7309,-2.7309,-2.7309,-2.7309,-2.7309,-2.7309,-2.7309,-2.7309,-2.7309,-2.7309,-2.7309,-2.7309,-2.7309,-2.7309,-2.7309,-2.5693,-2.5693,-2.5693,-2.5693,-2.5449,-2.5195,-2.5135,-2.4785,-2.4531,-2.4424,-2.4414,-2.4414,-2.4414,-2.4414,-2.4287,-2.3965,-2.3935,-2.3935,-2.3935,-2.3578,-2.3393,-2.3393,-2.3296,-2.3242,-2.3188,-2.3406,-2.3547,-2.3677,-2.4024,-2.4196,-2.4282,-2.4411,-2.4497,-2.4497,-2.4497,-2.4497,-2.4497,-2.4497,-2.4497,-2.4497,-2.4497,-2.4497,-2.4497,-2.4497,-2.4497,-2.4497,-2.4497,-2.4497,-2.4497,-2.4497,-2.4497,-2.4497,-2.4497,-2.4569,-2.4662,-2.4662,-2.4735,-2.4869,-2.5117,-2.5261,-2.5461,-2.5792,-2.5875,-2.5875,-2.5875,-2.5616,-2.5471,-2.5813,-2.5326,-2.4964,-2.5316,-2.4962,-2.4662,-2.4662,-2.4526,-2.4323,-2.4079,-2.4132,-2.4206,-2.4237,-2.4386,-2.4606,-2.49,-2.493,-2.493,-2.493,-2.4891,-2.4858,-2.4858,-2.5085,-2.5225,-2.5225,-2.5932,-2.6352,-2.64,-2.64,-2.6544,-2.6805,-2.6853,-2.6996,-2.7214,-2.7262,-2.7309,-2.7309,-2.7309,-2.7309,-2.7309,-2.7309,-2.7309,-2.7309,-2.7309,-2.7309,-2.7309,-2.7309,-2.7309,-2.7309,-2.5693,-2.5693,-2.5693,-2.5693,-2.5664,-2.5547,-2.5174,-2.5086,-2.4873,-2.4473,-2.4414,-2.4414,-2.4414,-2.4414,-2.4404,-2.4375,-2.4375,-2.4375,-2.4375,-2.4336,-2.4326,-2.4326,-2.3945,-2.3644,-2.346,-2.3503,-2.3721,-2.4163,-2.4163,-2.4292,-2.4497,-2.4497,-2.4497,-2.4497,-2.4497,-2.4497,-2.4497,-2.4497,-2.4497,-2.4497,-2.4497,-2.4497,-2.4497,-2.4497,-2.4497,-2.4497,-2.4497,-2.4497,-2.4497,-2.4497,-2.4497,-2.4497,-2.4497,-2.4797,-2.5137,-2.5137,-2.5471,-2.5699,-2.5326,-2.5523,-2.5844,-2.5875,-2.5875,-2.5875,-2.5875,-2.5854,-2.5844,-2.5875,-2.5823,-2.5792,-2.5823,-2.5471,-2.5137,-2.5137,-2.4656,-2.4349,-2.4768,-2.442,-2.4257,-2.4703,-2.4559,-2.4431,-2.446,-2.446,-2.446,-2.446,-2.4842,-2.5067,-2.5067,-2.5449,-2.5635,-2.5635,-2.5723,-2.5868,-2.6149,-2.6149,-2.6245,-2.6544,-2.6805,-2.69,-2.6948,-2.7167,-2.7309,-2.7309,-2.7309,-2.7309,-2.7309,-2.7309,-2.7309,-2.7309,-2.7309,-2.7309,-2.7309,-2.7309,-2.7309,-2.7309,-2.5693,-2.5693,-2.5693,-2.5693,-2.5693,-2.5635,-2.5508,-2.5478,-2.542,-2.5206,-2.5187,-2.5187,-2.5187,-2.5187,-2.5127,-2.4844,-2.4814,-2.4814,-2.4814,-2.4814,-2.458,-2.4053,-2.4002,-2.3806,-2.3513,-2.3807,-2.4024,-2.4206,-2.4335,-2.4411,-2.4497,-2.4497,-2.4497,-2.4497,-2.4497,-2.4497,-2.4497,-2.4497,-2.4497,-2.4497,-2.4497,-2.4497,-2.4497,-2.4497,-2.4497,-2.4497,-2.4497,-2.4497,-2.4497,-2.4497,-2.4683,-2.4921,-2.4921,-2.5275,-2.5627,-2.5627,-2.5947,-2.6324,-2.6103,-2.6185,-2.6418,-2.6708,-2.6781,-2.6781,-2.6781,-2.6563,-2.6438,-2.6718,-2.6324,-2.6013,-2.6304,-2.5937,-2.5627,-2.5627,-2.5403,-2.5262,-2.5333,-2.5163,-2.5098,-2.5205,-2.5162,-2.512,-2.5205,-2.5187,-2.5187,-2.5187,-2.5391,-2.5478,-2.5478,-2.5644,-2.5693,-2.5693,-2.5693,-2.5732,-2.5868,-2.5868,-2.5965,-2.6245,-2.6496,-2.6747,-2.69,-2.7167,-2.7309,-2.7309,-2.7309,-2.7309,-2.7309,-2.7309,-2.7309,-2.7309,-2.7309,-2.7427,-2.7634,-2.7413,-2.7486,-2.7634,-2.5693,-2.5693,-2.5693,-2.5693,-2.5693,-2.5693,-2.5693,-2.5693,-2.5693,-2.5693,-2.5693,-2.5693,-2.5693,-2.5693,-2.5567,-2.5303,-2.5283,-2.5283,-2.5283,-2.5283,-2.4998,-2.4366,-2.4463,-2.4401,-2.4151,-2.4449,-2.4607,-2.4497,-2.4627,-2.4642,-2.4497,-2.4497,-2.4497,-2.4497,-2.4497,-2.4497,-2.4507,-2.4652,-2.4714,-2.4724,-2.4859,-2.4964,-2.4964,-2.4964,-2.4964,-2.49,-2.4766,-2.4714,-2.4714,-2.4714,-2.4921,-2.521,-2.5344,-2.574,-2.6169,-2.6314,-2.6584,-2.6832,-2.6832,-2.6832,-2.6915,-2.7226,-2.7309,-2.7309,-2.7309,-2.7061,-2.6926,-2.7247,-2.6801,-2.6459,-2.677,-2.6449,-2.6138,-2.6138,-2.6024,-2.5892,-2.592,-2.5859,-2.5792,-2.5804,-2.5759,-2.5688,-2.5703,-2.5693,-2.5693,-2.5693,-2.5693,-2.5693,-2.5693,-2.5693,-2.5693,-2.5693,-2.5693,-2.5693,-2.5693,-2.5693,-2.5781,-2.5955,-2.6255,-2.6448,-2.6651,-2.7034,-2.7167,-2.7167,-2.7262,-2.7309,-2.7309,-2.7309,-2.7309,-2.732,-2.7455,-2.7655,-2.7903,-2.7748,-2.7872,-2.8079,-2.5693,-2.5693,-2.5693,-2.5693,-2.5693,-2.5693,-2.5693,-2.5693,-2.5693,-2.5693,-2.5693,-2.5693,-2.5693,-2.5693,-2.5693,-2.5693,-2.5693,-2.5693,-2.5693,-2.5693,-2.5633,-2.5533,-2.5503,-2.5548,-2.5619,-2.5609,-2.5474,-2.5199,-2.5199,-2.4962,-2.4507,-2.4507,-2.4507,-2.4507,-2.4507,-2.4507,-2.4538,-2.5003,-2.5199,-2.523,-2.5699,-2.5875,-2.5875,-2.5875,-2.5875,-2.5823,-2.5344,-2.5199,-2.5199,-2.5199,-2.5199,-2.5272,-2.5751,-2.6252,-2.6708,-2.7175,-2.7309,-2.7309,-2.7309,-2.7309,-2.7309,-2.7309,-2.7309,-2.7309,-2.7309,-2.7309,-2.7309,-2.7309,-2.7309,-2.732,-2.732,-2.6936,-2.6625,-2.6625,-2.6241,-2.6096,-2.6563,-2.6403,-2.6296,-2.6494,-2.6245,-2.6004,-2.5732,-2.5693,-2.5693,-2.5693,-2.5693,-2.5703,-2.5703,-2.5703,-2.5693,-2.5693,-2.5693,-2.5693,-2.5693,-2.5693,-2.5693,-2.5693,-2.5965,-2.61,-2.61,-2.6651,-2.6911,-2.6911,-2.7187,-2.732,-2.732,-2.732,-2.732,-2.7361,-2.7759,-2.7935,-2.7937,-2.8442,-2.8618,-2.8556,-2.5693,-2.5693,-2.5693,-2.5693,-2.5693,-2.5693,-2.5693,-2.5693,-2.5693,-2.5693,-2.5693,-2.5693,-2.5693,-2.5693,-2.5693,-2.5693,-2.5693,-2.5693,-2.5693,-2.5868,-2.6051,-2.621,-2.5909,-2.5678,-2.5619,-2.5725,-2.5778,-2.5689,-2.5689,-2.5616,-2.5482,-2.5482,-2.5482,-2.5482,-2.5482,-2.5482,-2.5492,-2.5627,-2.5689,-2.5699,-2.5823,-2.5875,-2.5875,-2.5875,-2.5875,-2.5854,-2.573,-2.5689,-2.5689,-2.5689,-2.5906,-2.6248,-2.675,-2.6988,-2.7133,-2.7268,-2.7309,-2.7309,-2.7309,-2.7309,-2.7309,-2.7309,-2.7309,-2.7309,-2.7309,-2.7309,-2.7392,-2.7665,-2.7728,-2.7821,-2.8152,-2.7831,-2.7521,-2.7521,-2.7138,-2.6946,-2.7081,-2.7008,-2.6927,-2.6784,-2.6544,-2.6304,-2.6004,-2.583,-2.5859,-2.6172,-2.6465,-2.6631,-2.6631,-2.6631,-2.6504,-2.6201,-2.6191,-2.6191,-2.6191,-2.584,-2.5693,-2.5693,-2.5965,-2.6259,-2.6616,-2.69,-2.7228,-2.7531,-2.7829,-2.7928,-2.7928,-2.8115,-2.8204,-2.8224,-2.8359,-2.8457,-2.8584,-2.8399,-2.8431,-2.8472,-2.5693,-2.5693,-2.5693,-2.5693,-2.5693,-2.5693,-2.5693,-2.5693,-2.5693,-2.5693,-2.5693,-2.5693,-2.5693,-2.5693,-2.5693,-2.5693,-2.5781,-2.5868,-2.5868,-2.611,-2.64,-2.6651,-2.6388,-2.6256,-2.627,-2.6388,-2.6376,-2.62,-2.62,-2.6061,-2.5875,-2.5875,-2.5875,-2.5875,-2.5875,-2.5875,-2.5885,-2.6117,-2.62,-2.621,-2.6397,-2.647,-2.647,-2.647,-2.647,-2.6449,-2.6262,-2.62,-2.62,-2.62,-2.6511,-2.6936,-2.7216,-2.7309,-2.7309,-2.7309,-2.7309,-2.7309,-2.7309,-2.7309,-2.7351,-2.7479,-2.7444,-2.7351,-2.7479,-2.7521,-2.7645,-2.81,-2.8204,-2.8276,-2.8566,-2.839,-2.8204,-2.8204,-2.7966,-2.779,-2.779,-2.779,-2.7693,-2.7459,-2.7254,-2.7009,-2.6655,-2.6468,-2.6447,-2.6621,-2.6875,-2.7012,-2.7012,-2.7012,-2.6904,-2.665,-2.6641,-2.6641,-2.6641,-2.6377,-2.6191,-2.624,-2.6379,-2.6606,-2.6872,-2.7112,-2.7352,-2.7652,-2.7925,-2.8076,-2.8237,-2.8378,-2.8428,-2.8438,-2.8674,-2.8717,-2.8746,-2.8593,-2.8612,-2.8679,-2.5693,-2.5693,-2.5693,-2.5693,-2.5693,-2.5693,-2.5693,-2.5693,-2.5693,-2.5693,-2.5693,-2.5693,-2.5693,-2.5693,-2.5693,-2.5693,-2.5965,-2.6091,-2.6139,-2.64,-2.6651,-2.6853,-2.69,-2.6986,-2.7214,-2.7262,-2.7055,-2.6584,-2.6584,-2.6367,-2.5999,-2.5999,-2.5999,-2.6055,-2.6055,-2.6055,-2.603,-2.6501,-2.6677,-2.6718,-2.7133,-2.7309,-2.7309,-2.7309,-2.7309,-2.7247,-2.6832,-2.6677,-2.6677,-2.6677,-2.6957,-2.7309,-2.7309,-2.7309,-2.7309,-2.7309,-2.734,-2.7372,-2.7372,-2.7392,-2.7479,-2.7883,-2.7676,-2.7537,-2.7893,-2.7937,-2.8121,-2.8587,-2.868,-2.869,-2.8731,-2.87,-2.868,-2.868,-2.8638,-2.8618,-2.8618,-2.8618,-2.8507,-2.8247,-2.8186,-2.7995,-2.75,-2.7429,-2.7306,-2.707,-2.7109,-2.7129,-2.7129,-2.7129,-2.7109,-2.707,-2.707,-2.707,-2.707,-2.707,-2.7051,-2.7012,-2.7012,-2.7031,-2.707,-2.7316,-2.7427,-2.7518,-2.7772,-2.8036,-2.8259,-2.8249,-2.8299,-2.834,-2.8757,-2.8755,-2.8547,-2.8938,-2.9026,-2.8976,-2.5693,-2.5693,-2.5693,-2.5693,-2.5693,-2.5693,-2.5693,-2.5693,-2.5693,-2.5693,-2.5693,-2.5693,-2.5693,-2.5693,-2.5693,-2.5693,-2.5965,-2.6197,-2.64,-2.6651,-2.6757,-2.6592,-2.6805,-2.6853,-2.6688,-2.689,-2.6839,-2.6536,-2.6536,-2.6591,-2.6699,-2.6699,-2.6783,-2.7009,-2.7009,-2.7009,-2.7009,-2.7112,-2.7154,-2.7164,-2.7268,-2.7309,-2.7309,-2.7309,-2.7309,-2.7299,-2.7195,-2.7154,-2.7154,-2.7154,-2.7226,-2.7309,-2.7309,-2.7309,-2.7309,-2.7309,-2.751,-2.7779,-2.7779,-2.8038,-2.8338,-2.8442,-2.839,-2.8338,-2.8442,-2.8462,-2.8597,-2.9063,-2.9156,-2.927,-2.9632,-2.9404,-2.9156,-2.9156,-2.8856,-2.8618,-2.8618,-2.8618,-2.8568,-2.8507,-2.8347,-2.8046,-2.7753,-2.7675,-2.7623,-2.7529,-2.7832,-2.8018,-2.8018,-2.8018,-2.7861,-2.7539,-2.7529,-2.7529,-2.7529,-2.7529,-2.7353,-2.7012,-2.7012,-2.7197,-2.7529,-2.7623,-2.78,-2.8114,-2.8387,-2.8555,-2.8608,-2.8798,-2.8902,-2.8913,-2.9013,-2.8896,-2.8661,-2.8751,-2.8664,-2.8441,-2.5693,-2.5693,-2.5693,-2.5693,-2.5693,-2.5693,-2.5693,-2.5693,-2.5693,-2.5693,-2.5693,-2.5693,-2.5693,-2.5693,-2.5732,-2.5868,-2.6159,-2.64,-2.6651,-2.6805,-2.6853,-2.6699,-2.6699,-2.6602,-2.6294,-2.6448,-2.6496,-2.6496,-2.6496,-2.6544,-2.6699,-2.6699,-2.6794,-2.6928,-2.7023,-2.7129,-2.7129,-2.7262,-2.7309,-2.7309,-2.7309,-2.7309,-2.7309,-2.7309,-2.7309,-2.7309,-2.7309,-2.7309,-2.7309,-2.7309,-2.7309,-2.7309,-2.7309,-2.7309,-2.7351,-2.751,-2.7738,-2.7976,-2.8193,-2.8431,-2.8659,-2.8887,-2.8938,-2.8938,-2.8938,-2.8938,-2.9073,-2.9539,-2.9632,-2.9704,-2.9953,-2.9798,-2.9632,-2.9632,-2.9435,-2.927,-2.927,-2.927,-2.927,-2.927,-2.9157,-2.8901,-2.8438,-2.8137,-2.7969,-2.7969,-2.8164,-2.8291,-2.8291,-2.8291,-2.8193,-2.7969,-2.7969,-2.7969,-2.7969,-2.7969,-2.7851,-2.7627,-2.7627,-2.7744,-2.7969,-2.7969,-2.8086,-2.8291,-2.8461,-2.8568,-2.8727,-2.8834,-2.893,-2.893,-2.893,-2.8727,-2.8514,-2.8514,-2.8408,-2.8291,-2.5693,-2.5693,-2.5693,-2.5693,-2.5693,-2.5693,-2.5693,-2.5693,-2.5693,-2.5693,-2.5693,-2.5693,-2.5693,-2.5693,-2.583,-2.61,-2.6294,-2.6554,-2.6794,-2.6853,-2.6794,-2.6757,-2.6544,-2.6304,-2.6052,-2.6004,-2.61,-2.6352,-2.6304,-2.6304,-2.6352,-2.6304,-2.6352,-2.6448,-2.6699,-2.6853,-2.6853,-2.7129,-2.7214,-2.7214,-2.7214,-2.7262,-2.7309,-2.7309,-2.7309,-2.7309,-2.7309,-2.7309,-2.7309,-2.7309,-2.7361,-2.7423,-2.7423,-2.7475,-2.7562,-2.7935,-2.81,-2.8245,-2.8628,-2.8794,-2.8938,-2.9332,-2.9425,-2.9425,-2.9425,-2.9425,-2.9528,-2.9911,-2.9994,-2.9994,-2.9994,-2.9994,-2.9994,-2.9994,-2.9994,-2.9994,-2.9994,-2.9994,-2.9994,-2.9994,-2.9889,-2.9669,-2.9132,-2.8601,-2.8291,-2.8291,-2.8291,-2.8291,-2.8291,-2.8291,-2.8291,-2.8291,-2.8291,-2.8291,-2.8291,-2.8291,-2.8291,-2.8291,-2.8291,-2.8291,-2.8291,-2.8291,-2.8291,-2.8291,-2.8291,-2.8408,-2.8621,-2.8621,-2.8621,-2.8621,-2.8621,-2.8514,-2.8291,-2.8291,-2.8291,-2.8291,-2.5693,-2.5693,-2.5693,-2.5693,-2.5693,-2.5693,-2.5693,-2.5693,-2.5693,-2.5693,-2.5693,-2.5693,-2.5693,-2.5693,-2.583,-2.61,-2.6139,-2.6245,-2.6544,-2.6544,-2.6448,-2.6197,-2.6197,-2.6004,-2.5781,-2.5528,-2.5538,-2.583,-2.5586,-2.5567,-2.579,-2.5567,-2.5723,-2.6149,-2.6448,-2.6544,-2.6544,-2.6842,-2.6948,-2.6948,-2.6948,-2.7081,-2.7309,-2.7309,-2.7309,-2.7309,-2.7309,-2.7309,-2.7309,-2.7309,-2.751,-2.7831,-2.7831,-2.811,-2.8442,-2.8504,-2.8804,-2.9125,-2.9197,-2.9508,-2.9829,-2.9891,-2.9901,-2.9901,-2.9901,-2.9901,-2.9922,-2.9984,-2.9994,-2.9994,-2.9994,-2.9994,-2.9994,-2.9994,-2.9994,-2.9994,-2.9994,-2.9994,-2.9994,-2.9994,-2.9564,-2.9185,-2.9132,-2.8601,-2.8291,-2.8291,-2.8291,-2.8291,-2.8291,-2.8291,-2.8291,-2.8291,-2.8291,-2.8291,-2.8291,-2.8291,-2.8291,-2.8291,-2.8291,-2.8291,-2.8291,-2.8291,-2.8291,-2.8291,-2.8291,-2.8291,-2.8344,-2.8344,-2.8344,-2.8344,-2.8344,-2.8344,-2.8291,-2.8291,-2.8291,-2.8291,-2.5693,-2.5693,-2.5635,-2.5489,-2.5586,-2.5645,-2.5489,-2.5586,-2.5693,-2.5693,-2.5693,-2.5693,-2.5693,-2.5693,-2.583,-2.61,-2.61,-2.6197,-2.6496,-2.6352,-2.6197,-2.61,-2.5965,-2.583,-2.5693,-2.544,-2.5333,-2.5489,-2.5088,-2.4932,-2.5011,-2.4775,-2.4932,-2.547,-2.5849,-2.6149,-2.6294,-2.6699,-2.6794,-2.6699,-2.6853,-2.6948,-2.7081,-2.7262,-2.7309,-2.7309,-2.7309,-2.7417,-2.7634,-2.7634,-2.7935,-2.8307,-2.8307,-2.8452,-2.8659,-2.8918,-2.9145,-2.9363,-2.9622,-2.9839,-2.9994,-2.9994,-2.9994,-2.9994,-2.9994,-2.9994,-2.9994,-2.9994,-2.9994,-2.9994,-2.9994,-2.9994,-2.9994,-2.9994,-2.9994,-2.9994,-2.9994,-2.9994,-2.9942,-2.9774,-2.9396,-2.9026,-2.8877,-2.8504,-2.8291,-2.8291,-2.8291,-2.8291,-2.8291,-2.8291,-2.8291,-2.8291,-2.8291,-2.8291,-2.8291,-2.8291,-2.8408,-2.8643,-2.8643,-2.8525,-2.8291,-2.8291,-2.8291,-2.8291,-2.8291,-2.8291,-2.8291,-2.8291,-2.8291,-2.8291,-2.8291,-2.8291,-2.8291,-2.8291,-2.8291,-2.8291]},{"header":{"parameterUnit":"m.s-1","parameterCategory":1,"la1":30.6,"la2":28.766,"lo1":-90.7593,"lo2":-88.6598,"dy":0.0162,"dx":0.0183,"nx":116,"ny":114,"refTime":"2023-09-03T00:00:00:Z","depth":0,"parameterNumber":3,"parameterNumberName":"V-component_of_WINDS"},"data":[0.0,0.0,0.0,0.0,0.0,0.0,0.0,0.0,0.0,0.0,0.0,0.0,0.0,0.0,0.0,0.0,0.0,0.0,0.0,0.0,0.0,0.0,0.0,0.0,0.0,0.0,0.0,0.0,0.0,0.0,0.0,0.0,0.0,0.0,0.0,0.0,0.0,0.0,0.0,0.0,0.0,0.0,0.0,0.0,0.0,0.0,0.0,0.0,0.0,0.0,0.0,0.0,0.0,0.0,0.0,0.0,0.0,0.0,0.0,0.0,0.0,0.0,0.0,0.0,0.0,0.0,0.0,0.0,0.0,0.0,0.0,0.0,0.0,0.0,0.0,0.0,0.0,0.0,0.0,0.0,0.0,0.0,0.0,0.0,0.0,0.0,0.0,0.0,0.0,0.0,0.0,0.0,0.0,0.0,0.0,0.0,0.0,0.0,0.0,0.0,0.0,0.0,0.0,0.0,0.0,0.0,0.0,0.0,0.0,0.0,0.0,0.0,0.0,0.0,0.0,0.0,0.0,0.0,0.0,0.0,0.0,0.0,0.0,0.0,0.0,0.0,0.0,0.0,0.0,0.0,0.0,0.0,0.0,0.0,0.0,0.0,0.0,0.0,0.0,0.0,0.0,0.0,0.0,0.0,0.0,0.0,0.0,0.0,0.0,0.0,0.0,0.0,0.0,0.0,0.0,0.0,0.0,0.0,0.0,0.0,0.0,0.0,0.0,0.0,0.0,0.0,0.0,0.0,0.0,0.0,0.0,0.0,0.0,0.0,0.0,0.0,0.0,0.0,0.0,0.0,0.0,0.0,0.0,0.0,0.0,0.0,0.0,0.0,0.0,0.0,0.0,0.0,0.0,0.0,0.0,0.0,0.0,0.0,0.0,0.0,0.0,0.0,0.0,0.0,0.0,0.0,0.0,0.0,0.0,0.0,0.0,0.0,0.0,0.0,0.0,0.0,0.0,0.0,0.0,0.0,0.0,0.0,0.0,0.0,0.0,0.0,0.0,0.0,0.0,0.0,0.0,0.0,0.0,0.0,0.0,0.0,0.0,0.0,0.0,0.0,0.0,0.0,0.0,0.0,0.0,0.0,0.0,0.0,0.0,0.0,0.0,0.0,0.0,0.0,0.0,0.0,0.0,0.0,0.0,0.0,0.0,0.0,0.0,0.0,0.0,0.0,0.0,0.0,0.0,0.0,0.0,0.0,0.0,0.0,0.0,0.0,0.0,0.0,0.0,0.0,0.0,0.0,0.0,0.0,0.0,0.0,0.0,0.0,0.0,0.0,0.0,0.0,0.0,0.0,0.0,0.0,0.0,0.0,0.0,0.0,0.0,0.0,0.0,0.0,0.0,0.0,0.0,0.0,0.0,0.0,0.0,0.0,0.0,0.0,0.0,0.0,0.0,0.0,0.0,0.0,0.0,0.0,0.0,0.0,0.0,0.0,0.0,0.0,0.0,0.0,0.0,0.0,0.0,0.0,0.0,0.0,0.0,0.0,0.0,0.0,0.0,0.0,0.0,0.0,0.0,0.0,0.0,0.0,0.0,0.0,0.0,0.0,0.0,0.0,0.0,0.0,0.0,0.0,0.0,0.0,0.0,0.0,0.0,0.0,0.0,0.0,0.0,0.0,0.0,0.0,0.0,0.0,0.0,0.0,0.0,0.0,0.0,0.0,0.0,0.0,0.0,0.0,0.0,0.0,0.0,0.0,0.0,0.0,0.0,0.0,0.0,0.0,0.0,0.0,0.0,0.0,0.0,0.0,0.0,0.0,0.0,0.0,0.0,0.0,0.0,0.0,0.0,0.0,0.0,0.0,0.0,0.0,0.0,0.0,0.0,0.0,0.0,0.0,0.0,0.0,0.0,0.0,0.0,0.0,0.0,0.0,0.0,0.0,0.0,0.0,0.0,0.0,0.0,0.0,0.0,0.0,0.0,0.0,0.0,0.0,0.0,0.0,0.0,0.0,0.0,0.0,0.0,0.0,0.0,0.0,0.0,0.0,0.0,0.0,0.0,0.0,0.0,0.0,0.0,0.0,0.0,0.0,0.0,0.0,0.0,0.0,0.0,0.0,0.0,0.0,0.0,0.0,0.0,0.0,0.0,0.0,0.0,0.0,0.0,0.0,0.0,0.0,0.0,0.0,0.0,0.0,0.0,0.0,0.0,0.0,0.0,0.0,0.0,0.0,0.0,0.0,0.0,0.0,0.0,0.0,0.0,0.0,0.0,0.0,0.0,0.0,0.0,0.0,0.0,0.0,0.0,0.0,0.0,0.0,0.0,0.0,0.0,0.0,0.0,0.0,0.0,0.0,0.0,0.0,0.0,0.0,0.0,0.0,0.0,0.0,0.0,0.0,0.0,0.0,0.0,0.0,0.0,0.0,0.0,0.0,0.0,0.0,0.0,0.0,0.0,0.0,0.0,0.0,0.0,0.0,0.0,0.0,0.0,0.0,0.0,0.0,0.0,0.0,0.0,0.0,0.0,0.0,0.0,0.0,0.0,0.0,0.0,0.0,0.0,0.0,0.0,0.0,0.0,0.0,0.0,0.0,0.0,0.0,0.0,0.0,0.0,0.0,0.0,0.0,0.0,0.0,0.0,0.0,0.0,0.0,0.0,0.0,0.0,0.0,0.0,0.0,0.0,0.0,0.0,0.0,0.0,0.0,0.0,0.0,0.0,0.0,0.0,0.0,0.0,0.0,0.0,0.0,0.0,0.0,0.0,0.0,0.0,0.0,0.0,0.0,0.0,0.0,0.0,0.0,0.0,0.0,0.0,0.0,0.0,0.0,0.0,0.0,0.0,0.0,0.0,0.0,0.0,0.0,0.0,0.0,0.0,0.0,0.0,0.0,0.0,0.0,0.0,0.0,0.0,0.0,0.0,0.0,0.0,0.0,0.0,0.0,0.0,0.0,0.0,0.0,0.0,0.0,0.0,0.0,0.0,0.0,0.0,0.0,0.0,0.0,0.0,0.0,0.0,0.0,0.0,0.0,0.0,0.0,0.0,0.0,0.0,0.0,0.0,0.0,0.0,0.0,0.0,0.0,0.0,0.0,0.0,0.0,0.0,0.0,0.0,0.0,0.0,0.0,0.0,0.0,0.0,0.0,0.0,0.0,0.0,0.0,0.0,0.0,0.0,0.0,0.0,0.0,0.0,0.0,0.0,0.0,0.0,0.0,0.0,0.0,0.0,0.0,0.0,0.0,0.0,0.0,0.0,0.0,0.0,0.0,0.0,0.0,0.0,0.0,0.0,0.0,0.0,0.0,0.0,0.0,0.0,0.0,0.0,0.0,0.0,0.0,0.0,0.0,0.0,0.0,0.0,0.0,0.0,0.0,0.0,0.0,0.0,0.0,0.0,0.0,0.0,0.0,0.0,0.0,0.0,0.0,0.0,0.0,0.0,0.0,0.0,0.0,0.0,0.0,0.0,0.0,0.0,0.0,0.0,0.0,0.0,0.0,0.0,0.0,0.0,0.0,0.0,0.0,0.0,0.0,0.0,0.0,0.0,0.0,0.0,0.0,0.0,0.0,0.0,0.0,0.0,0.0,0.0,0.0,0.0,0.0,0.0,0.0,0.0,0.0,0.0,0.0,0.0,0.0,0.0,0.0,0.0,0.0,0.0,0.0,0.0,0.0,0.0,0.0,0.0,0.0,0.0,0.0,0.0,0.0,0.0,0.0,0.0,0.0,0.0,0.0,0.0,0.0,0.0,0.0,0.0,0.0,0.0,0.0,0.0,0.0,0.0,0.0,0.0,0.0,0.0,0.0,0.0,0.0,0.0,0.0,0.0,0.0,0.0,0.0,0.0,0.0,0.0,0.0,0.0,0.0,0.0,0.0,0.0,0.0,0.0,0.0,0.0,0.0,0.0,0.0,0.0,0.0,0.0,0.0,0.0,0.0,0.0,0.0,0.0,0.0,0.0,0.0,0.0,0.0,0.0,0.0,0.0,0.0,0.0,0.0,0.0,0.0,0.0,0.0,0.0,0.0,0.0,0.0,0.0,0.0,0.0,0.0,0.0,0.0,0.0,0.0,0.0,0.0,0.0,0.0,0.0,0.0,0.0,0.0,0.0,0.0,0.0,0.0,0.0,0.0,0.0,0.0,0.0,0.0,0.0,0.0,0.0,0.0,0.0,0.0,0.0,0.0,0.0,0.0,0.0,0.0,0.0,0.0,0.0,0.0,0.0,0.0,0.0,0.0,0.0,0.0,0.0,0.0,0.0,0.0,0.0,0.0,0.0,0.0,0.0,0.0,0.0,0.0,0.0,0.0,0.0,0.0,0.0,0.0,0.0,0.0,0.0,0.0,0.0,0.0,0.0,0.0,0.0,0.0,0.0,0.0,0.0,0.0,0.0,0.0,0.0,0.0,0.0,0.0,0.0,0.0,0.0,0.0,0.0,0.0,0.0,0.0,0.0,0.0,0.0,0.0,0.0,0.0,0.0,0.0,0.0,0.0,0.0,0.0,0.0,0.0,0.0,0.0,0.0,0.0,0.0,0.0,0.0,0.0,0.0,0.0,0.0,0.0,0.0,0.0,0.0,0.0,0.0,0.0,0.0,0.0,0.0,0.0,0.0,0.0,0.0,0.0,0.0,0.0,0.0,0.0,0.0,0.0,0.0,0.0,0.0,0.0,0.0,0.0,0.0,0.0,0.0,0.0,0.0,0.0,0.0,0.0,0.0,0.0,0.0,0.0,0.0,0.0,0.0,0.0,0.0,0.0,0.0,0.0,0.0,0.0,0.0,0.0,0.0,0.0,0.0,0.0,0.0,0.0,0.0,0.0,0.0,0.0,0.0,0.0,0.0,0.0,0.0,0.0,0.0,0.0,0.0,0.0,0.0,0.0,0.0,0.0,0.0,0.0,0.0,0.0,0.0,0.0,0.0,0.0,0.0,0.0,0.0,0.0,0.0,0.0,0.0,0.0,0.0,0.0,0.0,0.0,0.0,0.0,0.0,0.0,0.0,0.0,0.0,0.0,0.0,0.0,0.0,0.0,0.0,0.0,0.0,0.0,0.0,0.0,0.0,0.0,0.0,0.0,0.0,0.0,0.0,0.0,0.0,0.0,0.0,0.0,0.0,0.0,0.0,0.0,0.0,0.0,0.0,0.0,0.0,0.0,0.0,0.0,0.0,0.0,0.0,0.0,0.0,0.0,0.0,0.0,0.0,0.0,0.0,0.0,0.0,0.0,0.0,0.0,0.0,0.0,0.0,0.0,0.0,0.0,0.0,0.0,0.0,0.0,0.0,0.0,0.0,0.0,0.0,0.0,0.0,0.0,0.0,0.0,0.0,0.0,0.0,0.0,0.0,0.0,0.0,0.0,0.0,0.0,0.0,0.0,0.0,0.0,0.0,0.0,0.0,0.0,0.0,0.0,0.0,0.0,0.0,0.0,0.0,0.0,0.0,0.0,0.0,0.0,0.0,0.0,0.0,0.0,0.0,0.0,0.0,0.0,0.0,0.0,0.0,0.0,0.0,0.0,0.0,0.0,0.0,0.0,0.0,0.0,0.0,0.0,0.0,0.0,0.0,0.0,0.0,0.0,0.0,0.0,0.0,0.0,0.0,0.0,0.0,0.0,0.0,0.0,0.0,0.0,0.0,0.0,0.0,0.0,0.0,0.0,0.0,0.0,0.0,0.0,0.0,0.0,0.0,0.0,0.0,0.0,0.0,0.0,0.0,0.0,0.0,0.0,0.0,0.0,0.0,0.0,0.0,0.0,0.0,0.0,0.0,0.0,0.0,0.0,0.0,0.0,0.0,0.0,0.0,0.0,0.0,0.0,0.0,0.0,0.0,0.0,0.0,0.0,0.0,0.0,0.0,0.0,0.0,0.0,0.0,0.0,0.0,0.0,0.0,0.0,0.0,0.0,0.0,0.0,0.0,0.0,0.0,0.0,0.0,0.0,0.0,0.0,0.0,0.0,0.0,0.0,0.0,0.0,0.0,0.0,0.0,0.0,0.0,0.0,0.0,0.0,0.0,0.0,0.0,0.0,0.0,0.0,0.0,0.0,0.0,0.0,0.0,0.0,0.0,0.0,0.0,0.0,0.0,0.0,0.0,0.0,0.0,0.0,0.0,0.0,0.0,0.0,0.0,0.0,2.217,2.1899,0.0,0.0,0.0,0.0,0.0,0.0,0.0,0.0,0.0,0.0,0.0,0.0,0.0,0.0,0.0,0.0,0.0,0.0,0.0,0.0,0.0,0.0,0.0,0.0,0.0,0.0,0.0,0.0,0.0,0.0,0.0,0.0,0.0,0.0,0.0,0.0,0.0,2.297,2.2977,2.3258,2.3751,2.391,2.3895,2.375,0.0,0.0,0.0,0.0,0.0,0.0,0.0,0.0,0.0,0.0,0.0,0.0,0.0,0.0,0.0,0.0,0.0,0.0,0.0,0.0,0.0,0.0,0.0,0.0,0.0,0.0,0.0,0.0,0.0,0.0,0.0,0.0,0.0,0.0,0.0,0.0,0.0,0.0,0.0,0.0,0.0,0.0,0.0,0.0,0.0,0.0,0.0,0.0,0.0,0.0,0.0,0.0,0.0,0.0,0.0,0.0,0.0,0.0,0.0,0.0,0.0,0.0,0.0,0.0,0.0,0.0,0.0,0.0,0.0,0.0,2.3073,2.2411,0.0,0.0,0.0,0.0,0.0,0.0,0.0,0.0,0.0,0.0,0.0,0.0,0.0,0.0,0.0,0.0,0.0,0.0,0.0,0.0,0.0,0.0,0.0,2.1358,2.1751,2.1708,2.1825,2.1926,0.0,0.0,0.0,0.0,0.0,0.0,0.0,2.2477,2.2517,2.2615,2.2752,2.3294,2.4197,2.4448,2.4345,2.396,2.4091,0.0,0.0,0.0,0.0,0.0,0.0,0.0,0.0,0.0,0.0,0.0,0.0,0.0,0.0,0.0,0.0,0.0,0.0,0.0,0.0,0.0,0.0,0.0,0.0,0.0,0.0,0.0,0.0,0.0,0.0,0.0,0.0,0.0,0.0,0.0,0.0,0.0,0.0,0.0,0.0,0.0,0.0,0.0,0.0,0.0,0.0,0.0,0.0,0.0,0.0,0.0,0.0,0.0,0.0,0.0,0.0,0.0,0.0,0.0,0.0,0.0,0.0,0.0,2.5871,2.5875,2.5814,2.6443,2.6713,2.6618,2.4849,2.3917,2.3658,2.3562,0.0,0.0,0.0,0.0,0.0,0.0,0.0,0.0,0.0,0.0,0.0,0.0,0.0,0.0,0.0,0.0,0.0,0.0,0.0,2.0498,2.1052,2.1229,2.1278,2.1294,2.1402,2.1478,2.1478,0.0,0.0,0.0,0.0,0.0,2.1899,2.1955,2.2084,2.2278,2.2971,2.3726,2.4545,2.5257,2.5365,2.4929,2.5341,2.5219,2.4689,0.0,0.0,0.0,0.0,0.0,0.0,0.0,0.0,0.0,0.0,0.0,0.0,0.0,0.0,0.0,0.0,0.0,0.0,0.0,0.0,0.0,0.0,0.0,0.0,0.0,0.0,0.0,0.0,0.0,0.0,0.0,0.0,0.0,0.0,0.0,0.0,0.0,0.0,0.0,0.0,0.0,2.2027,2.1827,0.0,0.0,0.0,0.0,0.0,0.0,0.0,0.0,0.0,0.0,0.0,0.0,0.0,2.5986,2.6062,2.7257,2.7784,2.7646,2.8284,2.8455,2.8248,2.8342,2.8373,2.8357,2.8076,0.0,2.5783,2.4591,0.0,0.0,0.0,0.0,0.0,0.0,0.0,0.0,0.0,0.0,0.0,0.0,0.0,0.0,0.0,0.0,0.0,0.0,0.0,0.0,0.0,2.1103,2.1279,2.163,2.1392,2.1376,2.1762,2.1472,0.0,0.0,0.0,2.1387,2.1526,2.154,2.1829,2.2377,2.3553,2.458,2.5464,2.6303,2.6911,2.731,2.7737,2.6968,2.5301,2.5374,0.0,0.0,0.0,0.0,0.0,0.0,0.0,0.0,0.0,0.0,0.0,0.0,0.0,0.0,0.0,0.0,0.0,0.0,0.0,0.0,0.0,0.0,0.0,0.0,0.0,0.0,0.0,0.0,0.0,0.0,0.0,0.0,0.0,0.0,0.0,0.0,0.0,0.0,0.0,2.2316,2.2326,2.2557,2.2589,2.254,0.0,0.0,0.0,0.0,0.0,0.0,0.0,0.0,0.0,2.7693,2.8039,2.8573,2.9375,2.9989,3.0427,3.0704,3.1042,3.1117,3.1031,3.1379,3.1566,3.1566,3.1623,3.1211,3.0303,2.75,2.6386,2.6388,0.0,0.0,0.0,0.0,2.5782,2.6038,0.0,0.0,0.0,0.0,0.0,0.0,0.0,0.0,0.0,0.0,0.0,0.0,2.1015,2.1095,2.1379,2.2006,2.168,2.1573,2.1907,2.1496,2.118,2.1038,2.1038,2.1103,2.1167,2.1601,2.228,2.3237,2.4699,2.5866,2.674,2.7816,2.8679,2.9334,2.998,2.8842,2.6458,2.6366,2.5986,2.5422,0.0,0.0,0.0,0.0,0.0,0.0,0.0,0.0,0.0,0.0,0.0,0.0,0.0,0.0,0.0,0.0,0.0,0.0,0.0,0.0,0.0,0.0,0.0,0.0,0.0,0.0,0.0,0.0,0.0,0.0,0.0,0.0,0.0,0.0,0.0,0.0,0.0,2.2601,2.2932,2.3355,2.3542,2.3583,0.0,0.0,0.0,0.0,0.0,0.0,2.7619,2.8008,2.8972,3.0694,3.1114,3.1721,3.2594,3.2765,3.3014,3.3298,3.3298,3.327,3.3258,3.3771,3.396,3.396,3.4035,3.4048,3.3749,3.0197,2.8769,2.879,2.8031,2.7741,2.7741,2.7741,2.7963,2.8243,0.0,0.0,0.0,0.0,0.0,0.0,0.0,0.0,0.0,0.0,0.0,2.0688,2.1321,2.126,2.1467,2.2125,2.2284,2.2078,2.1476,2.1519,2.1262,2.0575,2.0661,2.076,2.0827,2.2366,2.3867,2.5246,2.6675,2.7703,2.8426,3.0054,3.0577,3.0201,3.1498,3.0767,2.8508,2.7997,2.7453,2.6782,2.5368,0.0,0.0,0.0,0.0,0.0,0.0,0.0,0.0,0.0,0.0,0.0,0.0,0.0,0.0,0.0,0.0,0.0,0.0,0.0,0.0,0.0,0.0,0.0,0.0,0.0,0.0,0.0,0.0,0.0,0.0,0.0,0.0,0.0,0.0,0.0,0.0,0.0,0.0,2.3676,2.419,0.0,0.0,0.0,0.0,2.6452,2.8327,2.979,3.0538,3.1789,3.2831,3.3575,3.4898,3.5319,3.4743,3.5379,3.5321,3.4614,3.4614,3.4527,3.4442,3.4457,3.4472,3.4472,3.4472,3.4531,3.4444,3.1757,3.0657,3.0516,2.9169,2.8623,2.8623,2.8623,2.9481,3.0541,0.0,0.0,0.0,0.0,0.0,0.0,0.0,0.0,2.0595,2.0545,2.0321,2.0355,2.0889,2.1212,2.1702,2.245,2.2526,2.2347,2.1888,2.1535,2.1067,2.0455,2.0526,2.105,2.2067,2.3528,2.4993,2.6502,2.7862,2.8939,2.9754,3.0876,3.1352,3.1323,3.2034,3.1968,3.1325,3.0231,2.8866,2.7423,2.7019,2.6313,0.0,0.0,0.0,0.0,0.0,0.0,0.0,0.0,0.0,0.0,0.0,0.0,0.0,0.0,0.0,0.0,0.0,0.0,0.0,0.0,0.0,0.0,0.0,0.0,0.0,0.0,0.0,0.0,0.0,0.0,0.0,0.0,0.0,0.0,0.0,0.0,0.0,2.6757,2.7477,0.0,2.8474,2.9377,3.0099,3.0442,3.1559,3.2667,3.3772,3.4282,3.5055,3.6167,3.6677,3.7033,3.7202,3.7466,3.7419,3.7156,3.7156,3.7124,3.7076,3.7076,3.7076,3.7076,3.7076,3.7093,3.7017,3.521,3.3823,3.2698,3.1732,3.1342,3.1342,3.1342,3.1644,3.2033,0.0,0.0,0.0,0.0,0.0,0.0,0.0,0.0,2.0409,2.0289,2.0172,2.0273,2.0752,2.1412,2.2041,2.2602,2.2853,2.2655,2.1809,2.1481,2.0975,2.0229,2.0789,2.1924,2.3674,2.507,2.6528,2.8075,2.9407,3.0393,3.1069,3.2106,3.2645,3.2787,3.3421,3.366,3.3594,3.2823,3.1174,2.9055,2.876,2.7759,2.6415,0.0,0.0,0.0,0.0,0.0,0.0,0.0,0.0,0.0,0.0,0.0,0.0,0.0,0.0,0.0,0.0,0.0,0.0,0.0,0.0,0.0,0.0,0.0,0.0,0.0,0.0,0.0,0.0,0.0,0.0,0.0,0.0,0.0,0.0,2.6667,2.7961,2.9803,3.0576,3.1207,3.1905,3.2645,3.3206,3.3555,3.4407,3.5289,3.6122,3.6599,3.7261,3.8154,3.84,3.8631,3.8846,3.8846,3.8739,3.8508,3.8508,3.8508,3.8508,3.8508,3.8508,3.8508,3.8508,3.8508,3.8431,3.7538,3.6369,3.5015,3.3836,3.3386,3.3386,3.3386,3.3525,3.3699,0.0,0.0,0.0,0.0,0.0,0.0,2.0711,2.0525,2.0302,2.0041,2.0161,2.0465,2.093,2.1886,2.2472,2.2489,2.3256,2.2983,2.1201,2.138,2.1051,1.9918,2.1472,2.3372,2.5515,2.6989,2.8514,3.0066,3.1375,3.2153,3.2386,3.3826,3.4514,3.4589,3.5691,3.5786,3.5156,3.5612,3.432,3.1818,3.054,2.9181,2.7848,0.0,0.0,0.0,0.0,0.0,0.0,0.0,0.0,0.0,0.0,0.0,0.0,0.0,0.0,0.0,0.0,0.0,0.0,0.0,0.0,0.0,0.0,0.0,0.0,0.0,0.0,0.0,0.0,0.0,0.0,0.0,0.0,0.0,2.7891,2.949,3.1197,3.2547,3.3206,3.3814,3.4522,3.5183,3.5584,3.5614,3.683,3.7569,3.76,3.8813,3.9505,3.9505,4.0166,4.0213,3.9551,3.9551,3.9213,3.8583,3.8552,3.8536,3.8536,3.8536,3.8536,3.8536,3.8536,3.8536,3.8536,3.8521,3.8154,3.7369,3.5383,3.4582,3.4566,3.4566,3.4982,3.5537,0.0,0.0,0.0,0.0,0.0,0.0,2.0778,2.0526,2.025,2.0041,1.9958,2.0111,2.0591,2.1462,2.203,2.2123,2.2442,2.2093,2.0825,2.0633,2.0779,2.1227,2.3178,2.5074,2.6841,2.8317,2.9813,3.1326,3.2159,3.2926,3.3633,3.4514,3.5007,3.5166,3.5589,3.571,3.5642,3.5957,3.5497,3.4439,3.3056,3.1796,3.0577,0.0,0.0,0.0,0.0,0.0,0.0,0.0,0.0,0.0,0.0,0.0,0.0,0.0,0.0,0.0,0.0,0.0,0.0,0.0,0.0,0.0,0.0,0.0,0.0,0.0,0.0,0.0,0.0,0.0,0.0,0.0,3.0334,3.1258,3.0603,3.1747,3.3332,3.5212,3.5999,3.6583,3.7116,3.7345,3.7602,3.8004,3.8473,3.8968,3.9508,3.9891,4.009,4.009,4.0573,4.0776,4.0593,4.0593,4.0487,4.0304,3.9817,3.9588,3.9588,3.9588,3.9588,3.9588,3.9588,3.9588,3.9542,3.9161,3.8907,3.8586,3.7198,3.6368,3.5938,3.5938,3.6061,3.6215,0.0,0.0,0.0,0.0,0.0,0.0,2.0777,2.0509,2.02,1.9919,1.9811,1.9894,2.0295,2.1121,2.1554,2.1401,2.1787,2.1461,2.0105,2.0286,2.1132,2.2664,2.4567,2.6484,2.8366,2.9613,3.1036,3.2613,3.2975,3.3602,3.4457,3.5219,3.5606,3.5751,3.6194,3.6435,3.6549,3.673,3.6561,3.6036,3.5332,3.4006,3.2402,3.1734,3.1029,3.0292,2.9795,2.8737,2.766,2.8065,0.0,0.0,0.0,0.0,0.0,0.0,0.0,0.0,0.0,0.0,0.0,0.0,0.0,0.0,0.0,0.0,0.0,0.0,0.0,0.0,0.0,0.0,0.0,0.0,3.2752,3.4407,3.4855,3.5013,3.5738,3.7442,3.8223,3.8831,3.9333,3.9603,3.9888,4.0208,4.0279,4.0517,4.0964,4.098,4.098,4.098,4.1216,4.1392,4.1392,4.1392,4.1392,4.1377,4.0997,4.0679,4.0421,4.0421,4.0269,4.0011,4.0011,4.0011,3.9965,3.966,3.936,3.9028,0.0,0.0,0.0,0.0,3.6492,3.6492,0.0,0.0,0.0,0.0,0.0,0.0,2.0727,2.0475,2.0183,1.9797,1.9734,1.9819,2.0026,2.0772,2.1026,2.0487,2.1068,2.0826,1.9301,2.0252,2.1823,2.3993,2.5712,2.7643,2.9867,3.0818,3.2097,3.3671,3.3748,3.4193,3.5005,3.5869,3.6272,3.6317,3.7107,3.748,3.748,3.7612,3.7364,3.6917,3.7166,3.585,3.3799,3.3934,3.2894,3.1472,3.2102,3.1029,2.9409,3.0084,0.0,0.0,0.0,0.0,0.0,0.0,0.0,0.0,0.0,0.0,0.0,0.0,0.0,0.0,0.0,0.0,0.0,0.0,0.0,0.0,0.0,0.0,0.0,0.0,3.5274,3.7568,3.9444,3.8703,3.8376,3.9421,4.0039,4.0578,4.1022,4.1546,4.1864,4.1827,4.1864,4.1879,4.1879,4.1879,0.0,0.0,0.0,4.1948,4.1948,4.1948,4.1948,4.1948,4.1857,4.1576,4.1031,4.0955,4.0607,4.0046,3.997,3.9925,3.9925,3.9975,3.9611,3.9074,3.865,3.806,3.743,3.683,3.6553,3.6492,0.0,0.0,0.0,0.0,0.0,0.0,2.0794,2.0509,2.022,2.0063,1.9982,1.9904,1.9784,2.011,2.0235,1.997,1.9737,1.9502,1.9218,2.0456,2.2215,2.4462,2.6681,2.8729,3.0561,3.1518,3.2474,3.347,3.4041,3.4761,3.5545,3.6273,3.669,3.6872,3.7117,3.7254,3.7254,3.7464,3.7533,3.7523,3.7581,3.702,3.6092,3.584,3.5684,3.5509,3.4641,3.3753,3.2904,3.2424,3.1146,2.9661,2.9107,2.7982,0.0,0.0,0.0,0.0,0.0,0.0,0.0,0.0,0.0,0.0,0.0,0.0,0.0,0.0,0.0,0.0,0.0,0.0,0.0,3.6307,3.8207,3.9803,4.074,4.0964,4.1218,4.1652,4.1629,4.1583,4.1579,4.1663,4.1648,4.152,4.1648,4.1738,4.1738,4.1738,4.1738,4.1738,4.2122,4.2316,4.2316,4.2316,4.2316,4.2316,4.1738,0.0,4.1288,4.0748,4.0447,4.0297,3.9757,3.9532,3.9532,3.9696,3.9778,3.9692,3.8669,3.7947,3.7477,3.7353,3.6953,3.6492,0.0,0.0,0.0,0.0,0.0,0.0,2.086,2.0577,2.0287,2.0133,1.9864,1.9696,1.9752,1.9739,1.9691,1.9507,1.9329,1.9496,2.0202,2.1791,2.3688,2.5899,2.785,2.9596,3.1127,3.1771,3.2695,3.3937,3.4335,3.5043,3.6106,3.6492,3.6754,3.6877,3.7373,3.7652,3.7758,3.7819,3.794,3.8074,3.7725,3.7444,3.7226,3.6992,3.6937,3.6875,3.5926,3.5154,3.449,3.3819,3.2539,3.1172,3.0931,2.9807,2.8459,0.0,0.0,0.0,0.0,0.0,0.0,0.0,0.0,0.0,0.0,0.0,0.0,0.0,0.0,3.254,3.382,0.0,3.701,3.9017,4.0603,4.1891,4.2917,4.3152,4.2924,4.2105,4.2145,4.2191,4.2069,4.2331,4.2449,4.2357,4.2449,4.2488,4.2488,4.2488,4.2488,4.2488,4.2725,4.2851,4.2851,4.2851,4.2851,4.2851,4.2521,4.2177,4.1901,4.1572,4.1025,4.0382,4.0053,3.9723,3.9424,3.9517,3.9661,3.9778,3.9187,3.8708,3.8284,3.7609,3.7213,3.6953,0.0,0.0,0.0,0.0,0.0,0.0,0.0,2.0628,2.0356,2.0185,1.978,1.9567,1.9739,1.9535,1.9309,1.9118,1.9244,1.9887,2.1209,2.3076,2.5065,2.728,2.8799,3.0206,3.1493,3.184,3.2821,3.4505,3.4505,3.5198,3.6492,3.66,3.6662,3.6693,3.7546,3.8044,3.8246,3.8356,3.8527,3.8649,3.7954,3.7759,3.7855,3.7526,3.7331,3.7126,3.6547,3.578,3.4978,3.4399,3.3299,3.2193,3.2286,3.1352,3.0104,2.9366,2.865,0.0,0.0,0.0,0.0,0.0,0.0,0.0,0.0,3.1511,3.228,3.327,3.4154,3.5289,3.7091,3.7943,3.9154,4.1544,4.2773,4.381,4.4885,4.4755,4.3957,4.2393,4.2528,4.2692,4.259,4.3015,4.329,4.329,4.329,4.329,4.329,4.329,4.329,4.329,4.329,4.329,4.329,4.329,4.329,4.329,4.329,4.306,4.259,4.2336,4.1632,4.0576,4.0322,3.9903,3.9388,3.9388,3.9481,3.9661,3.9661,3.9491,3.9165,3.7994,3.7481,3.7335,0.0,0.0,0.0,0.0,0.0,0.0,0.0,0.0,2.046,2.0388,2.0113,1.9843,1.9546,1.939,1.916,1.8791,1.9154,1.9922,2.1231,2.3076,2.5131,2.7472,2.8884,3.0249,3.1667,3.1896,3.2821,3.4505,3.4505,3.5198,3.6492,3.6523,3.6523,3.6553,3.7374,3.7841,3.8091,3.8858,3.9267,3.9329,3.8665,3.8472,3.8448,3.7183,3.6961,3.7227,3.66,3.5611,3.4471,3.3738,3.3393,3.3123,3.2498,3.1742,3.0936,3.0255,2.9144,2.8075,2.8009,2.8228,2.8753,2.9826,3.0442,3.1306,0.0,3.4428,3.5391,3.612,3.7634,3.921,4.0445,4.1708,4.2977,4.4276,4.4926,4.5374,4.5524,4.4839,4.4227,4.4018,4.3539,4.3225,4.3185,4.3245,4.329,4.329,4.329,4.329,4.329,4.329,4.329,4.329,4.329,4.329,4.329,4.329,4.329,4.329,4.329,4.3245,4.314,4.2028,4.1452,4.1205,4.0038,3.9448,3.9388,3.9388,3.9409,3.9424,3.9424,3.9508,3.9592,3.9005,3.8071,3.7038,0.0,0.0,0.0,0.0,0.0,0.0,0.0,0.0,0.0,2.0475,2.0287,2.0045,1.9714,1.9453,1.9209,1.8946,1.9428,2.0296,2.157,2.3431,2.5488,2.7675,2.9125,3.0466,3.1652,3.1896,3.2623,3.3844,3.4305,3.4998,3.5953,3.6307,3.6492,3.6522,3.7247,3.7683,3.7919,3.8357,3.8639,3.8747,3.8161,3.7654,3.7148,3.6156,3.534,3.4695,3.4362,3.3896,0.0,3.1741,3.1413,3.1603,3.1383,3.1045,3.059,2.9887,2.9011,2.8338,2.8673,2.9064,2.9887,3.1819,3.3045,3.4278,3.6166,3.7296,3.8219,3.9313,4.004,4.0882,4.2172,4.2666,4.3401,4.5047,4.5357,4.5548,4.5953,4.5346,4.4616,4.3868,4.318,4.291,4.326,4.329,4.329,4.329,4.329,4.329,4.329,4.329,4.329,4.329,4.329,4.329,4.329,4.329,4.329,4.329,4.329,4.329,4.3275,4.2776,4.2102,4.1324,4.0397,3.9768,3.9388,3.9388,3.9388,3.9388,3.9388,3.9445,3.9478,3.8993,3.83,3.7537,0.0,0.0,0.0,0.0,0.0,0.0,0.0,0.0,0.0,0.0,2.0475,2.0272,1.9927,1.9636,1.938,1.9288,1.9816,2.0649,2.1745,2.3577,2.5491,2.7479,2.8834,3.0179,3.1522,3.168,3.2259,3.3398,3.3921,3.4551,3.5244,3.5707,3.6045,3.6245,3.6923,3.745,3.7825,3.809,3.8341,3.845,3.7677,3.6861,3.6019,3.4968,3.3642,3.2332,3.2241,3.1962,3.1357,2.9729,2.9398,2.9712,2.9805,2.9759,2.9626,2.9262,2.8976,2.8903,2.9438,3.0279,3.1555,3.3954,3.5516,3.6986,3.8893,3.9844,4.0589,4.1822,4.1857,4.2047,4.3198,4.3129,4.3425,4.4995,4.5252,4.5469,4.5978,4.5454,4.4616,4.3509,4.2815,4.2515,4.2761,4.2955,4.3135,4.329,4.329,4.329,4.329,4.329,4.329,4.329,4.329,4.329,4.329,4.329,4.329,4.329,4.329,4.329,4.329,4.315,4.2357,4.1085,4.0606,4.0023,3.9388,3.9388,3.9493,3.9694,3.9694,3.9694,3.9634,3.9283,3.8717,3.8035,0.0,0.0,0.0,0.0,0.0,0.0,0.0,0.0,0.0,0.0,0.0,0.0,0.0,1.9904,1.9762,1.969,2.0217,2.087,2.156,2.3194,2.4908,2.6654,2.7647,2.9113,3.117,3.1107,3.1814,3.3398,3.3429,3.3798,3.4536,3.4551,3.4921,3.5568,3.6215,3.7002,3.7856,3.8491,3.8883,3.895,3.7576,3.6607,3.5779,3.3748,3.2123,3.097,3.0955,3.0078,2.8803,2.8091,2.7872,2.7887,2.7887,2.7887,2.8013,2.8631,2.9255,2.9877,3.0421,3.1986,3.3942,3.5937,3.7415,3.8954,4.1032,4.1858,4.2423,4.3111,4.3076,4.3099,4.3603,4.3699,4.3792,4.4282,4.4885,4.5304,4.5319,4.4751,4.4092,4.3379,4.2761,4.2156,4.1542,4.2051,4.2656,4.3245,4.329,4.329,4.329,4.329,4.329,4.329,4.329,4.329,4.329,4.329,4.329,4.329,4.329,4.329,4.3275,4.2671,4.1707,4.0427,4.0412,4.0023,3.9388,3.9388,3.9798,4.0367,4.0367,4.0367,4.0367,4.0352,3.9499,3.8397,0.0,0.0,0.0,0.0,0.0,0.0,0.0,0.0,0.0,0.0,0.0,0.0,0.0,0.0,0.0,0.0,2.008,2.0503,2.1167,2.2139,2.3537,2.541,2.6227,2.7659,2.9822,2.9842,3.0337,3.1401,3.1859,3.2182,3.2456,3.2918,3.3242,3.3444,3.3675,3.421,3.4886,3.4802,3.5031,3.5431,3.4613,3.3536,3.2302,3.1151,2.9825,2.8456,0.0,2.7278,2.7226,2.6065,2.5944,2.6252,2.6252,2.6845,2.7736,2.8881,2.9676,3.0531,3.2064,3.3948,3.6014,3.7984,3.9878,4.1489,4.2517,4.321,4.3548,4.3183,4.2584,4.2055,4.1768,4.1588,4.1685,4.2267,4.3284,4.3947,4.3947,4.4182,4.3748,4.2222,4.2261,4.2141,4.1482,4.2021,4.2485,4.2671,4.309,4.3484,4.3958,4.3947,4.3947,4.3947,4.3947,4.3738,4.329,4.329,4.329,4.329,4.329,4.329,4.329,4.3105,4.2521,4.1707,4.125,4.0935,4.0681,4.0247,4.0457,4.1055,4.1055,4.1055,4.0995,4.0561,4.0113,3.9589,0.0,0.0,0.0,0.0,0.0,0.0,0.0,0.0,0.0,0.0,0.0,0.0,0.0,0.0,0.0,0.0,0.0,2.0279,2.0721,2.1325,2.2356,2.3893,2.4522,2.5773,2.7745,2.7752,2.8275,2.9335,2.975,3.0074,3.0335,3.0766,3.1089,3.1336,3.1336,3.1705,3.2321,3.1998,3.2129,3.247,3.188,3.0892,2.9732,2.9076,2.7906,0.0,2.5619,2.5527,2.5687,2.4803,2.4741,2.5116,2.5342,2.6502,2.798,2.9089,3.0371,3.1936,3.3952,3.5953,3.7964,3.999,4.1607,4.2866,4.3426,4.364,4.3518,4.2682,4.1474,4.0317,3.9655,3.9442,3.9544,4.0202,4.1624,4.2716,4.2955,4.3554,4.3404,4.1946,4.2141,4.2141,4.1482,4.2021,4.25,4.2701,4.3314,4.3828,4.4287,4.4541,4.4661,4.4661,4.4661,4.4466,4.4007,4.3992,4.3873,4.3633,4.3409,4.329,4.329,4.329,4.297,4.2381,4.1946,4.1632,4.1392,4.0935,4.113,4.1767,4.1767,4.1767,4.1722,4.125,4.095,4.0561,0.0,0.0,0.0,0.0,0.0,0.0,0.0,0.0,0.0,0.0,0.0,0.0,0.0,0.0,0.0,0.0,0.0,0.0,2.0304,2.0783,2.1424,2.2209,2.2604,2.3559,2.5158,2.5065,2.5746,2.7242,2.7242,2.7565,2.8196,2.8196,2.8535,2.9125,2.9125,2.9494,3.014,3.014,3.0156,3.014,2.9494,2.8833,2.8181,2.7534,2.6441,2.525,2.525,2.4835,2.4302,2.4302,2.4364,2.4527,2.5266,2.6903,2.8658,2.9417,3.1493,3.4014,3.6091,3.7975,3.981,4.1836,4.2696,4.3198,4.3805,4.3272,4.2439,4.1671,3.9793,3.8078,3.7389,3.7285,3.7524,3.8182,4.0008,4.1602,4.2246,4.2895,4.3105,4.2515,4.2485,4.2261,4.1594,4.2156,4.2776,4.3349,4.3947,4.4347,4.4407,4.5005,4.5349,4.5349,4.5349,4.5334,4.5289,4.5289,4.496,4.4302,4.3648,4.3319,4.329,4.329,4.3,4.244,4.241,4.2066,4.1474,4.1482,4.1856,4.2455,4.2455,4.2455,4.244,4.241,4.2006,4.125,0.0,0.0,0.0,0.0,0.0,0.0,0.0,0.0,0.0,0.0,0.0,0.0,0.0,0.0,0.0,0.0,0.0,0.0,2.0304,2.0424,2.0824,2.1519,2.1645,2.2367,2.3779,2.3789,2.4204,2.5087,2.5087,2.5179,2.5364,2.5364,2.5441,2.561,2.561,2.5958,2.6588,2.6588,2.6934,2.7396,2.7226,2.6734,2.6065,2.5896,2.5296,2.4564,2.4564,2.4456,2.4302,2.4302,2.4958,2.6096,2.7803,2.9048,3.0335,3.2536,3.4295,3.5936,3.7971,3.9836,4.1459,4.2545,4.3282,4.3615,4.3143,4.2447,4.146,3.9628,3.8057,3.6611,3.5477,3.5639,3.6207,3.6866,3.9035,4.0876,4.1572,4.2611,4.323,4.3105,4.3509,4.3748,4.3584,4.4167,4.4616,4.4781,4.4496,4.4751,4.5753,4.5935,4.6067,4.6067,4.6067,4.5813,4.5289,4.5289,4.496,4.4317,4.4152,4.3768,4.329,4.329,4.32,4.306,4.262,4.2551,4.2791,4.2312,4.2491,4.309,4.309,4.309,4.303,4.259,4.2291,4.2036,0.0,0.0,0.0,0.0,0.0,0.0,0.0,0.0,0.0,0.0,0.0,0.0,0.0,0.0,0.0,0.0,0.0,0.0,0.0,2.0356,2.0508,2.0895,2.0875,2.1211,2.1966,2.1981,2.232,2.2978,2.2978,2.3132,2.3425,2.3425,2.3425,2.3425,2.3425,2.3625,2.401,2.4302,2.4656,0.0,0.0,2.5241,2.485,2.485,2.4641,2.4302,2.4302,2.4502,2.4841,2.5456,2.6542,2.7957,2.972,3.1113,3.2535,3.4971,3.647,3.7834,3.9843,4.1264,4.2395,4.3144,4.3294,4.3096,4.2333,4.1152,3.9718,3.7933,3.6282,3.4861,3.3814,3.4173,3.4936,3.5893,3.8257,4.0307,4.125,4.2761,4.3723,4.3723,4.4347,4.4751,4.4751,4.508,4.5424,4.5723,4.5409,4.5487,4.6249,4.6591,4.6756,4.6756,4.6756,4.6576,4.6187,4.5888,4.5409,4.4751,4.4451,4.3932,4.329,4.329,4.329,4.3275,4.294,4.3,4.326,4.294,4.3,4.329,4.329,4.329,4.3245,4.2925,4.2776,4.2731,0.0,0.0,0.0,0.0,0.0,0.0,0.0,0.0,0.0,0.0,0.0,0.0,0.0,0.0,0.0,0.0,0.0,0.0,0.0,0.0,2.0407,2.0407,2.0354,2.0304,2.0304,2.0304,2.058,2.1165,2.1165,2.1458,2.2043,2.2043,2.2043,2.2043,2.2043,2.2043,2.2089,2.2748,2.3086,2.3225,2.3902,2.4225,2.4302,0.0,2.4302,2.4302,2.4302,2.4773,2.565,2.7057,2.8488,2.992,3.1324,3.3071,3.4973,3.7002,3.8284,3.9561,4.147,4.2334,4.2844,4.35,4.2947,4.2066,4.1294,3.9514,3.7614,3.6237,3.4502,3.3036,3.2362,3.2931,3.3903,3.516,3.7569,3.9753,4.107,4.294,4.4242,4.4421,4.502,4.5469,4.5559,4.5559,4.5813,4.6369,4.6414,4.6414,4.6414,4.6995,4.7309,4.7309,4.7309,4.7309,4.7309,4.6741,4.6112,4.5424,4.4766,4.4067,4.3424,4.3334,4.329,4.329,4.329,4.329,4.329,4.329,4.329,4.329,4.329,4.329,4.329,4.329,4.329,4.329,0.0,0.0,0.0,0.0,0.0,0.0,0.0,0.0,0.0,0.0,2.0285,2.0141,0.0,0.0,0.0,0.0,0.0,0.0,0.0,0.0,0.0,2.0477,2.0424,2.0388,2.0388,2.0321,2.0366,2.0456,2.0456,2.0518,2.0641,2.0641,2.0641,2.0641,2.0641,2.0641,2.0705,2.1365,2.1966,2.2517,2.3194,2.381,2.4302,2.4302,0.0,0.0,2.4302,2.5081,2.6342,2.7765,2.9489,3.1355,3.3165,3.508,3.705,3.8876,3.9854,4.0631,4.2078,4.2797,4.3219,4.3354,4.247,4.1235,4.0038,3.7823,3.5474,3.3589,3.2467,3.163,3.0971,3.2302,3.3754,3.4563,3.6851,3.9035,4.0382,4.2267,4.3858,4.499,4.5723,4.6352,4.6905,4.695,4.701,4.713,4.713,4.713,4.713,4.7249,4.7309,4.7309,4.7309,4.7309,4.7309,4.7189,4.68,4.6142,4.5454,4.4781,4.4122,4.3544,4.329,4.329,4.329,4.329,4.329,4.329,4.329,4.329,4.329,4.329,4.329,4.329,4.329,4.329,0.0,0.0,0.0,0.0,0.0,0.0,0.0,2.2502,2.2364,2.1493,2.0702,2.0241,2.0291,2.0411,2.0768,0.0,0.0,0.0,0.0,0.0,0.0,0.0,2.0526,2.0458,2.0458,2.0424,2.0392,2.0392,0.0,2.0392,2.0392,2.0392,2.0392,2.0392,2.0356,2.0354,2.0416,2.1414,2.2012,2.2397,2.3409,2.401,2.4302,0.0,0.0,0.0,2.4302,2.4927,2.5988,2.7411,2.9227,3.134,3.3917,3.6025,3.7937,3.9768,4.0661,4.1378,4.3028,4.3384,4.329,4.329,4.2087,4.0427,3.8751,3.6342,3.3993,3.2303,3.1436,3.0896,3.0567,3.1869,3.3305,3.4339,3.6387,3.8347,3.9694,4.184,4.3648,4.4661,4.5693,4.6576,4.7234,4.7309,4.7309,4.7309,4.7309,4.7309,4.7309,4.7309,4.7309,4.7309,4.7309,4.7309,4.7309,4.7309,4.698,4.6264,4.5618,4.4945,4.4287,4.3589,4.329,4.329,4.329,4.329,4.329,4.329,4.329,4.329,4.329,4.329,4.329,4.329,4.329,4.329,0.0,0.0,0.0,0.0,0.0,0.0,0.0,2.2407,2.2292,2.2162,2.1484,2.0906,2.0558,2.0754,2.1153,0.0,0.0,0.0,0.0,0.0,0.0,0.0,0.0,0.0,2.0561,0.0,0.0,2.051,2.0527,0.0,0.0,0.0,0.0,0.0,2.0441,2.0423,2.0485,2.15,2.2099,0.0,0.0,2.4097,2.4338,0.0,0.0,0.0,0.0,2.4733,2.5481,2.6749,2.8427,3.0452,3.3215,3.5566,3.7667,3.9621,4.0574,4.1384,4.3359,4.3614,4.326,4.3125,4.1639,3.9664,3.7659,3.507,3.2706,3.1361,3.0687,3.0313,3.0313,3.1509,3.2856,3.3888,3.5714,3.7464,3.876,4.1265,4.323,4.4212,4.5457,4.6576,4.7234,4.7309,4.7309,4.7309,4.7309,4.7309,4.7309,4.7309,4.7309,4.7309,4.7309,4.7309,4.7309,4.7309,4.7055,4.6531,4.5843,4.517,4.4496,4.3798,4.3424,4.329,4.329,4.329,4.329,4.329,4.329,4.329,4.329,4.329,4.329,4.329,4.329,4.329,0.0,0.0,0.0,0.0,0.0,0.0,0.0,2.2553,2.2428,2.2303,2.2149,2.2014,2.1931,2.1525,2.1504,0.0,0.0,0.0,0.0,0.0,0.0,0.0,0.0,0.0,0.0,0.0,0.0,2.051,2.0627,0.0,0.0,0.0,0.0,0.0,0.0,2.0494,2.0509,2.0617,0.0,0.0,0.0,0.0,0.0,0.0,0.0,0.0,0.0,2.4733,2.5404,2.6157,2.7357,2.8808,3.0083,3.2693,3.5698,3.7946,3.9065,4.0023,4.2051,4.2925,4.3155,4.2635,4.0965,3.899,3.703,3.4053,3.1316,3.0028,2.9741,2.9696,2.9696,3.1225,3.2557,3.2677,3.4382,3.6133,3.7404,3.9888,4.2237,4.4092,4.5457,4.6576,4.7234,4.7309,4.7309,4.7309,4.7309,4.7309,4.7309,4.7309,4.7309,4.7309,4.7309,4.7309,4.7309,4.7309,4.7279,4.7204,4.6546,4.5873,4.5185,4.4526,4.3898,4.329,4.329,4.329,4.329,4.329,4.329,4.329,4.329,4.329,4.329,4.329,4.329,4.329,0.0,0.0,0.0,0.0,0.0,0.0,2.1944,2.2435,2.2809,2.316,2.3117,2.3017,2.2951,2.2676,2.2511,2.2563,0.0,0.0,0.0,0.0,0.0,0.0,0.0,0.0,0.0,0.0,2.1039,2.0925,2.0974,0.0,0.0,0.0,0.0,0.0,0.0,2.0662,2.0642,2.1013,0.0,0.0,0.0,0.0,0.0,0.0,0.0,0.0,0.0,0.0,2.4789,2.5465,2.6065,2.6734,2.785,2.9401,3.1548,3.5512,3.7389,3.8811,4.1647,4.2267,4.2192,4.2366,4.0561,3.8287,3.6342,3.3634,3.1137,2.9849,2.9606,2.9606,2.9606,3.0866,3.2019,3.2422,3.3844,3.5205,3.6133,3.8542,4.0786,4.2357,4.3718,4.5053,4.6576,4.6711,4.6875,4.7279,4.7309,4.7309,4.7309,4.7309,4.7309,4.7309,4.7309,4.7309,4.7309,4.7309,4.7309,4.7294,4.6636,4.6172,4.5873,4.4811,4.4167,4.3898,4.3469,4.329,4.329,4.329,4.329,4.329,4.329,4.329,4.329,4.329,4.329,4.329,0.0,0.0,0.0,0.0,0.0,2.1265,2.1715,2.24,2.3133,2.3793,2.3768,2.366,2.3607,2.3487,2.3313,2.3033,2.285,0.0,0.0,0.0,0.0,0.0,0.0,0.0,0.0,0.0,2.1449,2.1341,2.1341,2.1278,0.0,0.0,2.1103,2.099,0.0,0.0,0.0,0.0,0.0,0.0,0.0,0.0,0.0,0.0,0.0,0.0,0.0,0.0,0.0,0.0,0.0,2.5161,2.6115,2.673,2.8051,3.2886,3.5235,3.6926,4.0089,4.0733,4.0643,4.1108,3.952,3.7315,3.5355,3.3006,3.0838,2.9564,2.9472,2.9606,2.9606,3.0657,3.1645,3.2123,3.332,3.4427,3.51,3.7464,3.9679,4.1205,4.2536,4.4082,4.6085,4.6501,4.68,4.7264,4.7309,4.7309,4.7309,4.7309,4.7309,4.7309,4.7309,4.7309,4.7309,4.7309,4.7309,4.7294,4.683,4.6516,4.6249,4.5334,4.4691,4.4287,4.3783,4.3469,4.329,4.329,4.329,4.329,4.329,4.329,4.329,4.329,4.329,4.329,0.0,0.0,0.0,0.0,0.0,0.0,2.2012,2.2625,2.3335,2.4003,2.3986,2.3873,2.3797,2.3732,2.3634,2.3487,2.3253,0.0,0.0,0.0,0.0,0.0,0.0,0.0,0.0,0.0,2.1882,2.1694,2.1694,2.1587,2.1402,2.1324,2.1262,2.1199,0.0,0.0,0.0,0.0,0.0,0.0,0.0,0.0,0.0,0.0,0.0,0.0,0.0,0.0,0.0,0.0,0.0,0.0,0.0,2.5021,2.5894,3.0263,3.2497,3.4113,3.6746,3.7928,3.8422,3.8422,3.7464,3.5983,3.3978,3.1958,3.0148,2.8876,2.9131,2.9606,2.9606,3.0657,3.1511,3.1511,3.2647,3.3739,3.4429,3.678,3.914,4.1145,4.2536,4.4082,4.6085,4.692,4.7294,4.7309,4.7309,4.7309,4.7309,4.7309,4.7309,4.7309,4.7309,4.7309,4.7309,4.7309,4.7309,4.7309,4.7294,4.695,4.6279,4.6264,4.5574,4.4317,4.4302,4.3888,4.329,4.329,4.329,4.329,4.329,4.329,4.329,4.329,4.329,4.329,0.0,0.0,0.0,0.0,0.0,0.0,0.0,2.3171,2.3523,2.4146,2.4125,2.3999,2.3935,2.3842,2.3757,2.3718,2.3499,0.0,0.0,0.0,0.0,0.0,0.0,0.0,0.0,2.2329,2.2257,2.211,2.2068,2.1953,2.1809,2.1735,2.1663,2.1542,2.1481,2.1403,0.0,0.0,0.0,0.0,0.0,0.0,2.4626,0.0,0.0,0.0,0.0,0.0,0.0,0.0,0.0,0.0,0.0,0.0,0.0,2.7645,2.951,3.1523,3.4562,3.5564,3.5971,3.6851,3.5759,3.4158,3.308,3.13,2.9759,2.9355,2.9457,2.9741,3.0133,3.0913,3.1511,3.1511,3.2647,3.3559,3.3784,3.6073,3.8302,3.9858,4.2791,4.493,4.5559,4.6636,4.7309,4.7309,4.7309,4.7309,4.7309,4.7309,4.7309,4.7309,4.7309,4.7309,4.7309,4.7309,4.7309,4.7309,4.7309,4.7189,4.698,4.6488,4.5843,4.496,4.4511,4.3902,4.329,4.329,4.329,4.329,4.329,4.329,4.329,4.329,4.329,4.329,0.0,0.0,0.0,0.0,0.0,0.0,0.0,2.3731,2.4038,2.4379,2.4311,2.4211,2.4124,2.4018,2.3937,2.3881,2.3743,0.0,0.0,0.0,0.0,0.0,0.0,0.0,2.2685,2.2685,2.2628,2.2483,2.2433,2.2323,2.2212,2.213,2.2032,2.1868,2.1797,2.1676,0.0,0.0,0.0,0.0,0.0,0.0,2.4818,0.0,0.0,0.0,0.0,0.0,0.0,0.0,0.0,0.0,0.0,0.0,0.0,0.0,2.7259,2.888,3.2107,3.3006,3.3245,3.4337,3.3484,3.2198,3.1554,3.0268,2.9205,2.9205,2.94,2.9786,3.0387,3.1032,3.1511,3.1511,3.2647,3.3589,3.3829,3.6133,3.8556,4.0599,4.3494,4.5394,4.5663,4.6666,4.7309,4.7309,4.7309,4.7309,4.7309,4.7309,4.7309,4.7309,4.7309,4.7309,4.7309,4.7309,4.7309,4.7309,4.7309,4.7309,4.7294,4.6875,4.6172,4.5274,4.487,4.4167,0.0,4.329,4.329,4.329,4.329,4.329,4.329,4.329,4.329,4.329,0.0,0.0,0.0,0.0,0.0,0.0,0.0,2.4334,2.4764,2.4623,2.4561,2.4461,2.433,2.4257,2.4163,2.4036,0.0,0.0,0.0,0.0,0.0,0.0,0.0,0.0,2.302,2.3003,2.2957,2.2829,2.2751,2.2685,2.2619,2.2487,2.2357,2.222,2.2113,2.2017,2.2045,0.0,0.0,0.0,0.0,0.0,0.0,0.0,0.0,0.0,0.0,0.0,0.0,0.0,0.0,0.0,0.0,0.0,0.0,0.0,0.0,0.0,0.0,3.0355,3.0537,3.1225,3.0866,3.0235,2.9666,2.9041,0.0,2.8667,2.919,2.9834,3.0462,3.1077,3.1525,3.157,3.2677,3.3739,3.4474,3.6851,3.9738,4.2901,4.4496,4.5559,4.6204,4.692,4.7309,4.7309,4.7309,4.7309,4.7309,4.7309,4.7309,4.7309,4.7309,4.7309,4.7309,4.7309,4.7309,4.7309,4.7309,4.7309,4.7309,4.7309,4.6591,4.5364,4.5319,4.4571,4.3364,4.3319,4.329,4.329,4.329,4.329,4.329,4.329,4.329,4.329,0.0,0.0,0.0,0.0,0.0,0.0,0.0,0.0,0.0,0.0,2.4692,2.4629,2.453,2.4461,2.4374,0.0,0.0,0.0,0.0,0.0,0.0,0.0,0.0,0.0,2.3156,2.3139,2.3119,2.3033,2.297,2.2906,2.2829,2.2751,2.2655,2.2575,2.244,2.2623,2.3066,2.3222,0.0,0.0,0.0,0.0,0.0,0.0,0.0,0.0,2.5339,2.5166,0.0,0.0,0.0,0.0,0.0,0.0,0.0,0.0,2.6198,2.6397,2.8127,0.0,2.935,3.0015,2.9696,2.9166,0.0,2.8775,2.8742,2.925,2.9849,3.0492,3.1137,3.1391,3.1675,3.2168,3.2961,3.3903,3.51,3.7958,4.0771,4.3021,4.4496,4.5559,4.6204,4.692,4.7309,4.7309,4.7309,4.7309,4.7309,4.7309,4.7309,4.7309,4.7309,4.7309,4.7309,4.7309,4.7309,4.7309,4.7309,4.7309,4.7309,4.7309,4.686,4.6052,4.5529,4.4825,4.4047,4.3499,4.329,4.329,4.329,4.329,4.329,4.329,4.329,4.329,0.0,0.0,0.0,0.0,0.0,0.0,0.0,0.0,0.0,0.0,0.0,2.4761,2.4695,2.4629,0.0,0.0,0.0,0.0,0.0,0.0,0.0,0.0,0.0,2.3471,2.3301,2.3265,2.3217,2.3156,2.3082,2.3033,2.2995,2.2914,2.2881,2.2829,2.2659,2.2935,2.357,2.3867,2.4574,0.0,2.5849,0.0,0.0,0.0,0.0,0.0,2.5813,2.5645,0.0,2.5166,2.5068,2.5068,0.0,0.0,0.0,0.0,2.6585,2.6656,2.79,2.8322,2.8525,2.8878,2.8923,2.8888,2.8888,2.9078,2.9433,3.0015,3.0421,3.0801,3.1376,3.175,3.2064,3.2452,3.3589,3.5205,3.7434,3.9529,4.1683,4.3973,4.487,4.5678,4.6681,4.71,4.7309,4.7309,4.7309,4.7309,4.7309,4.7309,4.7309,4.7309,4.7309,4.7309,4.7309,4.7309,4.7309,4.7309,4.7309,4.7309,4.7309,4.7309,4.677,4.5828,4.5454,4.4751,4.3798,4.3439,4.329,4.329,4.329,4.329,4.329,4.329,4.329,4.329,0.0,0.0,0.0,0.0,0.0,0.0,0.0,0.0,0.0,0.0,0.0,0.0,0.0,0.0,0.0,0.0,0.0,0.0,0.0,0.0,0.0,0.0,2.3652,2.3555,2.3407,2.3348,2.3277,2.3205,2.3126,2.3107,2.3107,2.318,2.3247,2.3339,2.3159,2.347,2.4127,2.4704,2.5316,2.5974,2.6653,0.0,0.0,0.0,0.0,0.0,0.0,0.0,0.0,2.5624,2.5549,2.5586,2.5451,0.0,0.0,0.0,0.0,0.0,2.8303,2.8466,2.828,2.8246,2.8708,2.921,2.9184,2.9685,3.0281,3.0721,3.089,3.1063,3.1435,3.2049,3.2587,3.2781,3.4666,3.7105,3.9993,4.1055,4.2462,4.499,4.5289,4.5828,4.7174,4.7309,4.7309,4.7309,4.7309,4.7309,4.7309,4.7309,4.7309,4.7309,4.7309,4.7309,4.7309,4.7309,4.7309,4.7309,4.7309,4.7249,4.716,4.716,4.6471,4.5289,4.5185,4.4511,4.3439,4.3334,4.329,4.329,4.329,4.329,4.329,4.329,4.329,4.329,0.0,0.0,0.0,0.0,0.0,0.0,0.0,0.0,0.0,0.0,0.0,0.0,0.0,0.0,0.0,0.0,0.0,0.0,0.0,0.0,0.0,2.4034,2.3855,2.3675,2.3494,2.3407,2.3324,2.3205,2.3126,2.3107,2.3107,2.3786,2.4397,2.4943,2.4916,2.5237,2.5819,2.594,2.6318,2.6899,2.7019,0.0,0.0,0.0,0.0,0.0,0.0,0.0,0.0,2.5992,2.5809,2.5701,2.5846,0.0,0.0,0.0,0.0,0.0,2.8854,2.9352,2.9604,2.9283,2.97,3.015,3.0036,3.0464,3.0846,3.0827,3.1255,3.1635,3.1524,3.2049,3.2886,3.3993,3.6791,3.9185,4.0247,4.1482,4.3024,4.505,4.5289,4.5828,4.7174,4.7309,4.7309,4.7309,4.7309,4.7309,4.7309,4.7309,4.7309,4.7309,4.7309,4.7309,4.7309,4.7309,4.7309,4.7309,4.7309,4.701,4.6429,4.6429,4.6037,4.5259,4.4706,4.4347,4.4122,4.3529,4.329,4.329,4.329,4.329,4.329,4.329,4.329,4.329,0.0,0.0,0.0,0.0,0.0,0.0,0.0,0.0,0.0,0.0,0.0,0.0,0.0,0.0,0.0,0.0,0.0,0.0,0.0,0.0,2.4366,2.4275,2.4096,2.3886,2.3611,2.3517,2.3383,2.3253,2.3193,2.3144,2.3125,2.3922,2.4682,2.5347,2.532,2.5656,2.6251,2.6224,2.6584,2.7217,0.0,0.0,0.0,0.0,0.0,0.0,0.0,0.0,0.0,0.0,2.6171,2.6201,2.6617,0.0,0.0,0.0,0.0,0.0,2.9345,3.0217,3.087,3.0463,3.0701,3.1041,3.0962,3.174,3.2394,3.2239,3.2675,3.3016,3.2795,3.3201,3.4247,3.6267,3.8182,4.0023,4.1705,4.2506,4.3629,4.5618,4.5858,4.6232,4.7219,4.7309,4.7309,4.7309,4.7309,4.7309,4.7309,4.698,4.677,4.677,4.6411,4.6217,4.6217,4.6217,4.6411,4.677,4.677,4.6426,4.5768,4.5768,4.5394,4.4751,4.4451,4.4067,4.3723,4.3424,4.329,4.329,4.329,4.329,4.329,4.329,4.329,4.329,0.0,0.0,0.0,0.0,0.0,0.0,0.0,0.0,0.0,0.0,0.0,0.0,0.0,0.0,0.0,0.0,0.0,0.0,0.0,2.4572,2.4513,2.4456,2.4312,2.4105,2.3786,2.3623,2.3476,2.3348,2.343,2.3638,2.3932,2.4541,2.5226,2.5946,2.5873,2.6135,2.6591,2.6532,2.682,2.7299,0.0,0.0,0.0,0.0,0.0,0.0,0.0,0.0,0.0,0.0,0.0,0.0,0.0,0.0,0.0,2.9122,2.9387,2.9401,2.9794,3.0849,3.1758,3.1404,3.1677,3.2011,3.2113,3.2967,3.373,3.3686,3.3959,3.4119,3.3849,3.4433,3.5699,3.8018,3.923,4.0681,4.2961,4.3424,4.4201,4.607,4.6279,4.6576,4.7234,4.7309,4.7309,4.7309,4.716,4.707,4.707,4.6441,4.6082,4.6082,4.5574,4.5289,4.5289,4.5289,4.5559,4.6082,4.6082,4.5723,4.5065,4.5065,4.4706,4.4092,4.4092,4.3753,4.329,4.329,4.329,4.329,4.329,4.329,4.329,4.329,4.329,4.329,0.0,0.0,0.0,0.0,0.0,0.0,0.0,0.0,0.0,0.0,0.0,0.0,0.0,0.0,0.0,0.0,0.0,0.0,0.0,2.4698,2.4658,2.459,2.4455,2.4257,2.3986,2.3797,2.3611,2.3494,2.4038,2.5024,2.6353,2.6405,2.6841,2.7526,2.7526,2.749,2.7409,2.7409,2.7369,2.7299,2.7299,0.0,0.0,0.0,0.0,0.0,0.0,0.0,0.0,0.0,0.0,0.0,0.0,0.0,2.9459,2.9573,2.991,3.0288,3.0194,3.1069,3.1925,3.1726,3.2431,3.3282,3.3638,3.3802,3.3983,3.4347,3.4296,3.4119,3.3849,3.5198,3.6791,3.8167,3.9993,4.1728,4.3095,4.3828,4.4766,4.6115,4.6279,4.6576,4.7234,4.7309,4.7309,4.7309,4.6741,4.6354,4.6354,4.5738,4.5364,4.5364,4.5319,4.5289,4.5289,4.5289,4.5319,4.5364,4.5364,4.502,4.4392,4.4392,4.4032,4.3364,4.3364,4.3334,4.329,4.329,4.329,4.329,4.329,4.329,4.329,4.329,4.329,4.329,0.0,0.0,0.0,0.0,0.0,0.0,0.0,0.0,0.0,0.0,0.0,0.0,0.0,0.0,0.0,0.0,0.0,0.0,0.0,2.4711,2.4695,2.466,2.4582,2.4436,2.4257,2.446,2.4446,2.4248,2.4812,2.5609,2.6598,2.6598,2.6999,2.7701,2.7659,2.7585,2.7496,2.7452,2.7392,2.7299,2.7299,2.7299,0.0,0.0,0.0,0.0,0.0,0.0,0.0,0.0,2.7164,2.7856,2.8365,2.9061,2.9775,3.0259,3.0434,3.0542,3.0914,3.1664,3.2364,3.2569,3.3621,3.4561,3.4381,3.5331,3.6269,3.6303,3.6661,3.6689,3.5655,3.6364,3.7494,3.8811,4.0352,4.1983,4.3703,4.4152,4.4646,4.5574,4.5678,4.5948,4.6636,4.6696,4.6696,4.6696,4.6456,4.6142,4.5708,4.505,4.4691,4.4691,4.4287,4.4077,4.4077,4.4077,4.4077,4.4077,4.4481,4.4347,4.3663,4.3663,4.3529,4.329,4.329,4.329,4.329,4.329,4.329,4.329,4.329,4.329,4.329,4.329,4.329,4.329,0.0,0.0,0.0,0.0,0.0,0.0,0.0,0.0,0.0,0.0,0.0,0.0,0.0,0.0,0.0,0.0,0.0,0.0,2.4707,2.47,2.47,2.47,2.4663,2.4564,2.4442,2.5192,2.535,2.484,2.56,2.6343,2.701,2.701,2.7274,2.7701,2.763,2.7572,2.7496,2.7438,2.7362,2.7299,2.7299,2.7299,0.0,0.0,0.0,0.0,0.0,0.0,0.0,0.0,2.7368,2.8281,2.884,2.9503,3.0185,3.0741,3.0712,3.0654,3.1335,3.2017,3.2619,3.3196,3.4578,3.5798,3.5631,3.6774,3.782,3.7731,3.8106,3.8142,3.6985,3.7285,3.8153,3.9514,4.0651,4.2073,4.4032,4.4317,4.4556,4.5214,4.5289,4.5484,4.5963,4.5992,4.5992,4.5992,4.5813,4.5484,4.5005,4.4362,4.3962,4.3962,4.3529,4.329,4.329,4.329,4.329,4.3305,4.3753,4.3723,4.329,4.329,4.329,4.329,4.329,4.329,4.329,4.329,4.329,4.329,4.329,4.329,4.329,4.329,4.329,4.329,0.0,0.0,0.0,0.0,0.0,0.0,0.0,0.0,0.0,0.0,0.0,0.0,0.0,0.0,0.0,0.0,0.0,0.0,2.4707,2.47,2.47,2.47,2.4706,2.465,2.4503,2.5949,2.6182,2.5121,2.641,2.7317,2.7888,2.7888,2.7827,2.7701,2.763,2.7572,2.7496,2.7438,2.7362,2.7299,2.7299,2.7299,2.7299,0.0,0.0,0.0,0.0,0.0,0.0,0.0,2.774,2.901,2.901,2.9892,3.0892,3.0892,3.0729,3.0671,3.1416,3.204,3.2681,3.3439,3.5169,3.6914,3.7636,3.8017,3.8274,3.841,3.8208,3.7921,3.7503,3.7958,3.8841,4.0187,4.095,4.2073,4.4032,4.4302,4.4541,4.52,4.5274,4.5274,4.5289,4.5289,4.5289,4.5289,4.4691,4.4317,4.4302,4.3648,4.329,4.329,4.329,4.329,4.329,4.329,4.329,4.329,4.329,4.329,4.329,4.329,4.329,4.329,4.329,4.329,4.329,4.329,4.329,4.329,4.329,4.329,4.329,4.329,4.329,4.329,0.0,0.0,0.0,0.0,0.0,0.0,0.0,0.0,0.0,0.0,0.0,0.0,0.0,0.0,0.0,0.0,0.0,0.0,2.4707,2.47,2.47,2.47,2.4692,2.4671,2.4572,2.5977,2.6958,2.7495,2.7813,2.8,2.8028,2.7986,2.7914,2.7827,2.7662,2.7587,2.7557,2.7454,2.7376,2.7378,2.733,2.7299,2.7299,0.0,0.0,0.0,0.0,0.0,0.0,0.0,0.0,0.0,2.977,3.0294,3.0892,3.0892,3.1095,3.1432,3.2166,3.2872,3.3727,3.4967,3.6125,3.7305,3.857,3.9432,4.0156,4.0808,4.0331,3.9631,3.8932,3.899,3.9394,4.0262,4.1339,4.247,4.3439,4.3589,4.3663,4.3858,4.3873,4.4092,4.4556,4.4601,4.4601,4.4601,4.4421,4.4067,4.3604,4.3409,4.329,4.329,4.329,4.329,4.329,4.329,4.329,4.329,4.329,4.329,4.329,4.329,4.329,4.329,4.329,4.329,4.329,4.329,4.329,4.329,4.329,4.329,4.329,4.329,4.329,4.329,0.0,0.0,0.0,0.0,0.0,0.0,0.0,0.0,0.0,0.0,0.0,0.0,0.0,0.0,0.0,0.0,0.0,0.0,0.0,2.47,2.47,2.47,2.47,2.4971,2.5536,2.6645,2.7713,2.8731,2.8625,2.8445,2.8223,2.815,2.8071,2.7975,2.7751,2.7644,2.763,2.7498,2.7627,2.7922,2.7875,2.8016,2.8261,0.0,0.0,0.0,0.0,0.0,0.0,0.0,0.0,0.0,3.0108,3.0482,3.0982,3.1264,3.15,3.1895,3.2868,3.3464,3.4154,3.5628,3.6771,3.8037,3.9946,4.0713,4.1236,4.1985,4.1569,4.0911,4.0398,4.0297,4.0522,4.1108,4.1886,4.262,4.32,4.329,4.329,4.329,4.329,4.3454,4.3843,4.3888,4.3888,4.3888,4.3888,4.3708,4.3319,4.329,4.317,4.2955,4.294,4.2821,4.2566,4.2551,4.2551,4.2551,4.2551,4.2551,4.2566,4.305,4.329,4.329,4.306,4.2791,4.2581,4.2836,4.294,4.297,4.32,4.329,4.329,4.329,4.329,4.329,0.0,0.0,0.0,0.0,0.0,0.0,0.0,0.0,0.0,0.0,2.515,0.0,0.0,0.0,0.0,0.0,0.0,0.0,0.0,2.47,2.47,2.47,2.4748,2.5527,2.7084,2.7703,2.836,2.913,2.8917,2.8687,2.8432,2.8367,2.8295,2.8233,2.797,2.7851,2.7836,2.7759,2.8134,2.8727,2.8798,2.9185,2.9693,2.9575,0.0,0.0,0.0,0.0,0.0,0.0,0.0,0.0,3.0209,3.0622,3.1211,3.1817,3.1992,3.2269,3.347,3.3889,3.4336,3.5744,3.7317,3.9125,4.1497,4.1841,4.1786,4.223,4.205,4.1795,4.1645,4.1663,4.1814,4.2164,4.2321,4.259,4.3075,4.3125,4.3125,4.3125,4.3125,4.3125,4.3125,4.3125,4.314,4.32,4.314,4.314,4.32,4.314,4.288,4.2336,4.2306,4.2021,4.1422,4.1422,4.1422,4.1422,4.1422,4.1422,4.1429,4.2611,4.3125,4.308,4.2536,4.1976,4.1467,4.2066,4.2306,4.2366,4.2925,4.314,4.32,4.32,4.3245,4.329,0.0,0.0,0.0,0.0,0.0,0.0,0.0,0.0,0.0,0.0,0.0,0.0,0.0,0.0,0.0,0.0,0.0,0.0,0.0,2.47,2.47,2.47,2.5254,2.6326,2.7988,2.807,2.8462,2.9269,2.9119,2.8929,2.8712,2.8594,2.8791,2.9268,2.9048,2.8947,2.9,2.942,2.9358,2.8976,2.9449,2.9735,2.9841,2.971,2.9541,0.0,0.0,0.0,0.0,0.0,0.0,0.0,3.0954,3.1381,3.1887,3.1968,3.2732,3.3567,3.3752,3.4651,3.5744,3.6655,3.8808,4.0988,4.1992,4.252,4.2711,4.2576,4.2257,4.1852,4.1207,4.1435,4.1505,4.0913,4.1722,4.2276,4.1848,4.1803,4.1803,4.1803,4.1803,4.1803,4.1803,4.1803,4.2013,4.256,4.2087,4.2028,4.259,4.2073,4.1743,4.1632,4.1632,4.1572,4.1422,4.1422,4.1422,4.1422,4.1422,4.1422,4.1384,4.1669,4.1803,4.1788,4.1654,4.1504,4.1384,4.1572,4.1632,4.1647,4.1743,4.2117,4.2605,4.2605,4.2895,4.329,0.0,0.0,0.0,0.0,0.0,0.0,0.0,0.0,0.0,0.0,0.0,0.0,0.0,0.0,0.0,0.0,0.0,0.0,0.0,0.0,2.4895,2.5297,2.6005,2.698,2.8269,2.8592,2.894,2.9355,2.9272,2.9112,2.8881,2.8779,2.9099,2.9732,2.952,2.9655,3.003,3.0294,3.0361,3.033,3.0598,3.0906,3.1174,3.0975,3.0768,3.0593,3.0414,0.0,0.0,0.0,0.0,0.0,0.0,0.0,3.2238,3.2501,3.3299,3.4157,3.4376,3.493,3.5827,3.7284,3.9537,4.155,4.2153,4.2695,4.2996,4.2573,4.2428,4.2178,4.1637,4.1704,4.1618,4.0995,4.1482,4.1811,4.1467,4.1422,4.1422,4.1422,4.1422,4.1422,4.1422,4.1422,4.1519,4.1901,4.1617,4.1572,4.1916,4.1602,4.1235,4.092,4.0905,4.0756,4.0442,4.0442,4.0442,4.0442,4.0442,4.0442,4.0457,4.11,4.1205,4.0905,4.0905,4.0726,4.0472,4.0786,4.0905,4.0935,4.125,4.1632,4.1931,4.1931,4.2102,4.2402,0.0,0.0,0.0,0.0,0.0,0.0,0.0,0.0,0.0,0.0,0.0,0.0,0.0,0.0,0.0,0.0,0.0,0.0,0.0,0.0,0.0,2.6153,2.6838,2.7625,2.8474,2.9084,2.9396,2.9396,2.9386,2.9262,2.904,2.911,2.9503,3.0145,3.0093,3.045,3.1048,3.1066,3.1333,3.1768,3.182,3.2168,3.2622,3.237,3.2126,3.193,3.1747,3.1542,3.1353,3.1351,0.0,0.0,0.0,0.0,3.2628,3.3207,3.3851,3.4492,3.4985,3.5193,3.5777,3.788,3.9835,4.1402,4.2178,4.2673,4.2874,4.2539,4.2443,4.2309,4.1991,4.1858,4.1676,4.113,4.113,4.1175,4.1055,4.104,4.104,4.104,4.104,4.104,4.104,4.104,4.1085,4.1205,4.1115,4.1085,4.1205,4.11,4.0786,4.0247,4.0232,3.9963,3.9424,3.9388,3.9388,3.9388,3.9388,3.9388,3.9454,4.0546,4.0741,4.0232,4.0232,3.9918,3.9454,4.0008,4.0232,4.0292,4.0831,4.1115,4.1205,4.1205,4.128,4.1422,0.0,0.0,0.0,0.0,0.0,0.0,0.0,0.0,0.0,0.0,2.5143,0.0,0.0,0.0,0.0,0.0,0.0,0.0,2.47,0.0,0.0,2.6929,2.7718,2.8483,2.9245,2.9353,2.9396,2.9396,2.9344,2.928,2.9186,2.9819,3.0479,3.1148,3.1697,3.201,3.2141,3.2708,3.258,3.2097,3.2614,3.2827,3.2836,3.2622,3.2387,3.2144,3.2055,3.182,3.1542,3.15,3.1387,0.0,0.0,0.0,3.3368,3.3987,3.4628,3.5151,3.5118,3.5941,3.7185,3.8768,3.9862,4.0862,4.2191,4.2442,4.2482,4.2769,4.2254,4.1514,4.084,4.0939,4.0792,3.9841,4.0157,4.0337,3.9768,3.9679,3.9679,3.9679,3.9679,3.9679,3.9679,3.9679,3.9918,4.0487,4.0008,3.9933,4.0502,3.9993,3.9649,3.9559,3.9508,3.9514,3.9388,3.9388,3.9388,3.9388,3.9388,3.9388,3.9424,3.9604,3.9634,3.9508,3.9508,3.9463,3.9388,3.9514,3.9508,3.9559,3.9649,4.0023,4.0531,4.0531,4.0891,4.1422,0.0,0.0,0.0,0.0,0.0,0.0,0.0,0.0,0.0,0.0,0.0,2.5069,0.0,0.0,0.0,2.4806,2.4742,2.4914,2.541,2.6218,2.7018,2.7782,2.8129,2.8651,2.9384,2.9399,2.9386,2.9344,2.9312,2.9481,2.9816,3.0611,3.1121,3.1402,3.209,3.2652,3.3108,3.336,3.3252,3.2904,3.3085,3.3091,3.2932,3.2771,3.2557,3.2353,3.2336,3.2161,3.1981,3.2283,3.2307,3.2295,3.2863,0.0,0.0,0.0,3.4847,3.5245,3.5041,3.5726,3.6738,3.7798,3.8934,4.0061,4.1077,4.1498,4.1674,4.1689,4.1527,4.1293,4.0755,4.0581,4.0314,3.9541,3.9664,3.9753,3.9454,3.9388,3.9388,3.9388,3.9388,3.9388,3.9388,3.9388,3.9508,3.9828,3.9589,3.9544,3.9828,3.9574,3.9388,3.9388,3.9388,3.9388,3.9388,3.9388,3.9388,3.9388,3.9388,3.9388,3.9388,3.9388,3.9388,3.9388,3.9388,3.9388,3.9388,3.9388,3.9388,3.9388,3.9388,3.9589,3.9843,3.9843,4.0038,4.0277,0.0,0.0,0.0,0.0,0.0,0.0,0.0,0.0,0.0,0.0,0.0,0.0,0.0,0.0,0.0,0.0,2.5061,2.5383,2.6255,2.7064,2.777,2.8353,2.8502,2.8836,2.9392,2.9399,2.9365,2.9302,2.9272,2.9625,3.0316,3.1109,3.1562,3.1733,3.2494,3.3163,3.3726,3.3647,3.3563,3.3495,3.3352,3.317,3.2963,3.2886,3.2848,3.2823,3.2857,3.2861,3.2932,3.3363,3.3423,3.3373,3.385,3.4358,0.0,0.0,0.0,3.5245,3.497,3.5446,3.6125,3.6688,3.793,3.9216,3.9962,4.058,4.0943,4.0818,4.0978,4.1004,4.0596,4.0294,3.9902,3.9298,3.9092,3.9022,3.8987,3.8987,3.9082,3.9212,3.9242,3.9266,3.9409,3.9388,3.9388,3.9388,3.9388,3.9388,3.9388,3.9388,3.9388,3.9388,3.9388,3.9298,3.9155,3.9206,3.9242,3.9242,3.9442,3.9532,3.9496,3.9496,3.946,3.9388,3.9388,3.9388,3.9409,3.946,3.9496,3.9481,3.9589,3.9589,3.9568,3.9589,3.961,3.961,0.0,0.0,0.0,0.0,0.0,0.0,0.0,0.0,0.0,0.0,0.0,0.0,2.4834,2.4794,2.5111,2.5877,2.5925,2.6274,2.7073,2.7892,2.8334,2.8306,2.8967,0.0,2.9407,2.9407,2.9365,2.9302,2.924,2.9592,3.0316,3.1066,3.1806,3.2564,3.3371,3.377,3.3793,3.3675,3.3563,3.3495,3.3352,3.3137,3.2916,3.2963,3.3299,3.3738,3.3806,3.4199,3.4658,3.462,3.4489,3.4422,3.4947,3.4998,3.4998,0.0,0.0,0.0,3.497,3.5446,3.6009,3.6059,3.7168,3.846,3.9199,3.9928,4.0547,4.091,4.0854,4.0515,3.9878,3.9798,3.9588,3.8851,3.8307,3.7933,3.7813,3.7899,3.816,3.8672,3.8747,3.8898,3.9364,3.9388,3.9388,3.9388,3.9388,3.9388,3.9388,3.9388,3.9388,3.9388,3.9388,3.911,3.8452,3.8642,3.8747,3.8762,3.9587,3.9854,3.9681,3.9681,3.9589,3.9388,3.9388,3.9388,3.9409,3.9625,3.9681,3.9732,4.0041,4.0071,3.9996,4.0126,4.0146,4.0146,0.0,0.0,0.0,0.0,0.0,0.0,0.0,0.0,0.0,0.0,0.0,0.0,0.0,2.5574,2.5898,2.6706,2.7242,2.7656,2.7949,2.8718,2.911,2.9004,2.9263,2.9401,2.9407,2.9365,2.9294,2.924,2.9175,2.9782,3.1011,3.128,3.21,3.3385,3.3678,3.378,3.3739,3.3684,3.3577,3.3422,3.3337,3.3445,3.3669,3.3702,3.4101,3.464,3.4708,3.4869,3.5101,3.5472,3.552,3.5509,3.5905,3.5897,3.5715,3.5616,3.5452,3.5268,3.5065,3.5169,3.5413,3.5876,3.6754,3.7698,3.8427,3.9166,3.9708,3.9693,4.0036,4.0119,3.9429,3.9361,3.924,3.8598,3.8351,3.8198,3.818,3.8198,3.829,3.8501,3.8311,3.8213,3.8296,3.8207,3.8138,3.8138,3.8138,3.8138,3.8138,3.8138,3.8172,3.8277,3.8327,3.831,3.8258,3.8446,3.8565,3.8696,3.9351,3.9604,3.952,3.9768,3.9768,3.9589,3.946,3.9388,3.9424,3.9625,3.9768,3.9925,4.025,4.0424,4.0524,4.065,4.0703,4.0703,0.0,0.0,0.0,0.0,0.0,0.0,0.0,0.0,0.0,2.5346,0.0,0.0,0.0,0.0,2.6714,2.7499,2.8296,2.8765,2.8765,2.9241,2.9501,2.9402,2.9392,2.938,2.9365,2.9323,2.9269,2.9156,2.9112,2.9883,3.1397,3.1397,3.2252,3.3766,3.3766,3.3739,3.3698,3.3643,3.3534,3.3414,3.3611,3.3874,3.4165,3.4466,3.4971,3.5545,3.5649,3.581,3.6078,3.6469,3.6536,3.6511,3.6654,3.6464,3.6118,3.5678,3.5452,3.5331,3.5152,3.5018,3.5063,3.5512,3.6373,3.7235,3.7731,3.8576,3.9245,3.905,3.9391,3.9581,3.9097,3.8958,3.8809,3.8399,3.818,3.8057,3.8057,3.8057,3.8134,3.8367,3.8058,3.7836,3.7879,3.7658,3.7488,3.7404,3.7454,3.7488,3.7488,3.7488,3.759,3.7775,3.7649,3.7727,3.8039,3.822,3.8414,3.8605,3.9208,3.9577,3.9778,3.9936,3.9997,3.995,3.9753,3.9589,3.9409,3.9696,3.9945,4.0211,4.0699,4.0972,4.1174,4.1392,4.1491,4.1491,0.0,0.0,0.0,0.0,0.0,0.0,0.0,0.0,2.5225,2.6023,0.0,0.0,0.0,0.0,0.0,2.8278,2.9044,2.9492,2.9492,2.9443,2.9402,2.9402,2.9399,2.9365,2.9302,2.9302,2.9229,2.9089,2.9108,2.9883,3.1397,3.1403,3.2208,3.3698,3.3698,3.3684,3.3684,3.3549,3.3484,3.3487,3.4207,3.4407,3.4368,3.5204,3.591,3.6452,3.6593,3.7041,3.7595,3.7595,3.7522,3.7355,3.7166,3.669,3.6122,3.5734,3.5549,3.5446,0.0,0.0,0.0,3.4947,3.6009,3.7102,3.7102,3.8228,3.9228,3.905,3.8996,3.8969,3.8832,3.86,3.8373,3.8226,3.7769,3.7417,3.7417,3.7417,3.7654,3.8303,3.7966,3.7836,3.8109,3.7867,3.7579,3.7394,3.7545,3.7647,3.7647,3.7647,3.7748,3.7867,3.7575,3.751,3.77,3.8028,3.8275,3.8428,3.914,3.9834,4.0466,4.0174,4.0184,4.0512,4.032,3.9915,3.9445,3.9854,4.0211,4.0581,4.1307,4.1688,4.1868,4.227,4.2413,4.2413,0.0,0.0,0.0,0.0,0.0,2.5124,2.5707,2.578,2.6038,0.0,0.0,0.0,2.7941,2.8531,2.8942,2.9156,2.9361,2.9482,2.9433,2.9412,2.9392,2.9399,2.9347,2.9323,2.9302,2.9197,2.9141,2.9089,2.9051,2.9836,3.1397,3.1352,3.2188,3.3698,3.3605,3.3549,3.3549,3.3524,3.3767,3.4207,3.4411,3.5105,3.6032,3.6281,3.6822,3.7487,3.7523,3.7596,3.7667,3.7667,3.7541,3.7354,3.6989,3.667,3.6356,3.5997,3.5734,3.5549,3.5406,0.0,0.0,0.0,0.0,0.0,3.7102,3.8228,3.9272,3.9245,3.9218,3.9148,3.8969,3.8887,3.8788,3.8659,3.8146,3.7786,3.7899,3.7915,3.7979,3.8171,3.7834,3.7524,3.7266,3.7015,3.6744,3.6537,3.6487,3.652,3.6601,3.684,3.7046,3.7172,3.748,3.7687,3.785,3.816,3.8393,3.8549,3.913,3.9734,4.0302,4.0436,4.0714,4.1073,4.0783,4.0543,4.042,4.0366,4.0593,4.1021,4.1687,4.2142,4.2412,4.2774,4.2929,4.2929,0.0,0.0,0.0,0.0,0.0,2.5623,2.6403,2.6519,2.6787,0.0,0.0,0.0,2.8669,2.9173,2.9453,2.9451,2.9451,2.9441,2.9401,2.937,2.9368,2.9365,2.9283,2.9407,2.9717,2.9307,2.9428,3.0067,2.9671,3.0314,3.1847,3.1809,3.2451,3.3601,3.3534,3.3495,3.3484,3.3829,3.4187,3.4566,3.4909,3.5762,3.6902,3.7518,3.8006,3.8456,3.8726,3.8743,3.8561,3.8257,3.7807,3.7337,3.7029,3.6751,3.6485,3.617,3.5888,3.5661,0.0,0.0,3.572,3.5673,0.0,0.0,3.7626,3.8496,3.9299,3.9299,3.9299,3.9272,3.9148,3.905,3.8969,3.8887,3.8528,3.8331,3.8455,3.8427,3.8427,3.8483,3.8071,3.7695,3.7356,3.6921,3.6616,3.643,3.6352,3.6367,3.6492,3.6815,3.7028,3.7117,3.7594,3.7931,3.8103,3.8403,3.8628,3.8777,3.9035,3.9682,4.0615,4.0659,4.1118,4.1819,4.1474,4.1274,4.1207,4.1138,4.1171,4.139,4.2061,4.2507,4.2836,4.3174,4.3295,4.3295,0.0,0.0,2.5227,2.586,2.607,2.6349,2.7127,2.724,2.7521,0.0,2.8492,2.8846,2.9588,2.9671,2.9661,2.9657,2.9665,2.9646,2.9636,2.9582,2.955,2.955,2.9488,2.9765,3.0427,2.9734,3.003,3.1397,3.0687,3.1078,3.2496,3.2469,3.2839,3.3509,3.3477,3.3452,3.3447,3.4262,3.4645,3.4775,3.5589,3.6455,3.738,3.8687,3.9194,3.9301,3.9908,4.0027,3.9825,3.9165,3.8376,3.764,3.7432,3.7158,3.6835,3.6555,3.6293,0.0,0.0,0.0,0.0,3.6568,3.7502,0.0,3.8411,3.8873,3.9325,3.9299,3.9299,3.9299,3.9299,3.9148,3.9023,3.9023,3.8942,3.8887,3.8996,3.8914,3.886,3.8996,3.8539,3.8128,3.8001,3.7415,3.6982,3.6831,3.6816,3.6892,3.6996,3.7312,3.7506,3.7519,3.7956,3.8274,3.8448,3.8738,3.8914,3.9023,3.8914,3.9686,4.1185,4.088,4.1439,4.2648,4.2317,4.2093,4.1933,4.198,4.1882,4.1753,4.2381,4.2851,4.3174,4.3492,4.3598,4.3598,0.0,2.5306,2.5748,2.5887,2.6415,2.7091,2.7942,2.8073,2.8334,2.9087,2.9746,3.044,3.1247,3.1321,3.1318,3.1251,3.1251,3.1228,3.117,3.1159,3.1147,3.1147,3.1088,3.1114,3.125,3.1066,3.1097,3.1397,3.1187,3.1571,3.2514,3.2393,3.276,3.3509,3.3437,3.3408,3.3447,3.4262,3.4922,3.5491,3.6269,3.7444,3.8725,3.9014,3.9481,4.0002,4.0127,4.0123,4.0028,3.9773,3.9574,3.9373,3.9175,3.8954,3.8702,3.8256,3.7945,3.7694,3.7489,3.7448,3.7477,3.7453,3.8011,0.0,3.8411,3.8952,3.9432,3.9325,3.9299,3.9299,3.9299,3.9272,3.9245,3.9245,3.9218,3.9164,3.9023,3.8969,3.8969,3.8996,3.8914,3.875,3.8483,3.81,3.7812,3.7682,3.7567,3.7567,3.7695,3.787,3.8087,3.8371,3.8567,3.875,3.886,3.9094,3.9218,3.9245,3.9202,3.9897,4.1202,4.1128,4.1783,4.3005,4.2821,4.2728,4.2696,4.2713,4.2508,4.2286,4.2696,4.3037,4.3372,4.3539,4.3598,4.3598,2.5303,2.5918,2.6585,2.7016,2.74,2.7923,2.8734,2.9219,2.9609,2.9959,3.0668,3.128,3.1665,3.1691,3.1698,3.1644,3.1644,3.1651,3.1597,3.158,3.1556,3.1556,3.1477,3.1642,3.2046,3.1629,3.1775,3.2543,3.212,3.2273,3.299,3.2924,3.3071,3.3411,3.3747,3.3882,3.3926,3.5135,3.5774,3.6089,3.7015,3.8077,3.9157,3.9837,4.0336,4.0693,4.0987,4.082,4.0439,4.0382,4.0095,3.9736,3.9514,3.9346,3.9097,3.8639,3.8368,3.8161,3.796,3.8128,3.8349,3.8349,3.879,0.0,0.0,3.927,3.9475,3.9325,3.9299,3.9299,3.9299,3.9299,3.9299,3.9299,3.9299,3.9272,3.9148,3.9148,3.9148,3.9148,3.905,3.8942,3.8805,3.8511,3.8258,3.803,3.7976,3.802,3.8132,3.829,3.8444,3.8694,3.8832,3.8942,3.8996,3.9202,3.9299,3.9299,3.9299,4.0006,4.1283,4.1283,4.2047,4.3325,4.319,4.3146,4.3146,4.3037,4.2976,4.2914,4.3068,4.3267,4.3419,4.3568,4.3598,4.3598,2.6064,2.6673,2.7447,2.8156,2.8539,2.8948,2.9512,3.0339,3.0923,3.0999,3.1536,3.1952,3.204,3.2207,3.2231,3.2053,3.2182,3.2207,3.2029,3.1961,3.1943,3.1943,3.1887,3.2173,3.2808,3.2179,3.2452,3.3671,3.3017,3.2967,3.3509,3.3495,3.3498,3.3545,3.4125,3.4423,3.4596,3.6211,3.6755,3.6666,3.799,3.8779,3.9315,4.0554,4.1098,4.1291,4.1757,4.1517,4.0951,4.0993,4.0548,3.9956,3.9786,3.9616,3.9386,3.8975,3.8727,3.8564,3.836,3.8751,3.9208,3.9208,3.9573,3.9884,0.0,0.0,0.0,3.9405,3.9379,3.9379,3.9352,3.9325,3.9325,3.9299,3.9299,3.9299,3.9299,3.9299,3.9299,3.9299,3.9148,3.905,3.905,3.8832,3.8539,3.8258,3.829,3.8363,3.8504,3.8616,3.8738,3.8887,3.8996,3.905,3.905,3.9218,3.9299,3.9299,3.9299,3.9978,4.1226,4.1359,4.2109,4.3383,4.3413,4.3432,4.3449,4.3265,4.3295,4.3449,4.3402,4.3419,4.3432,4.3568,4.3598,4.3598,2.7009,2.7503,2.809,2.8183,2.9382,3.0363,3.0372,3.1065,3.1821,3.2483,3.2625,3.2939,3.3647,3.4423,3.4531,3.3705,3.43,3.4383,3.3595,3.3545,3.3545,3.3545,3.3532,3.3542,3.3565,3.3492,3.3506,3.3619,3.3458,3.3433,3.3509,3.3437,3.371,3.4287,3.4359,3.4697,3.5303,3.6898,3.7415,3.7295,3.9512,4.0046,3.962,4.0365,4.1103,4.17,4.1657,4.1596,4.1525,4.1656,4.1542,4.1363,4.1341,4.1079,4.0758,4.0511,4.027,4.0033,3.9884,3.991,3.9977,3.9977,4.002,4.0037,3.9926,0.0,3.9824,3.9677,0.0,3.9625,3.9501,0.0,0.0,3.9325,3.9299,3.9299,3.9299,3.9299,3.9299,3.9299,3.9272,3.9272,3.9272,3.9094,3.8887,3.875,3.8722,3.8777,3.8914,3.8942,3.904,3.9245,3.9272,3.9272,3.9272,3.9299,3.9299,3.9299,3.9299,3.973,4.0542,4.1127,4.1844,4.2655,4.33,4.3598,4.3568,4.3568,4.3568,4.3568,4.3449,4.3462,4.3598,4.3598,4.3598,4.3598,2.7707,2.8292,2.8837,2.8837,2.9749,3.0465,3.0449,3.1522,3.2588,3.3338,3.3878,3.4276,3.4549,3.5358,3.568,3.5224,3.5485,3.531,3.4452,3.4383,3.4164,3.3703,3.3684,3.3671,3.3629,3.3629,3.3619,3.3534,3.3978,3.4189,3.4144,3.4603,3.4891,3.5055,3.5437,3.5914,3.6469,3.751,3.804,3.8324,3.9678,3.9957,3.9638,4.0599,4.1084,4.1267,4.1071,4.1094,4.1198,4.1267,4.1244,4.1175,4.1105,4.0918,4.0686,4.0527,4.0337,4.0163,4.0113,4.0096,4.0096,4.0096,4.0096,4.0045,3.9926,3.9901,3.9875,3.9729,0.0,0.0,0.0,0.0,0.0,0.0,3.9422,3.9395,3.9299,3.9299,3.9299,3.9299,3.9299,3.9299,3.9299,3.9121,3.8969,3.8914,3.886,3.886,3.8996,3.8996,3.9094,3.9299,3.9299,3.9299,3.9299,3.9299,3.9299,3.9299,3.9299,3.9696,4.0426,4.068,4.1442,4.2506,4.282,4.3201,4.3598,4.3598,4.3598,4.3598,4.3539,4.3568,4.3598,4.3598,4.3598,4.3598,2.8711,0.0,2.9336,2.9558,3.0235,3.0865,3.1285,3.2527,3.3607,3.4126,3.4958,3.5446,3.5306,3.6058,3.6432,3.6102,3.627,3.6054,3.5177,3.514,3.4867,3.428,3.4262,3.4247,3.4218,3.4218,3.4208,3.4119,3.4718,3.4978,3.4935,3.5532,3.5814,3.5851,3.652,3.7058,3.7496,3.8278,3.8759,3.9069,3.9733,3.9856,3.9717,4.0606,4.0853,4.0655,4.0524,4.0566,4.068,4.0728,4.0704,4.068,4.0624,4.0461,4.0313,4.0213,4.0087,3.9995,3.9995,4.0037,4.0062,4.0062,4.007,4.007,3.9977,3.9935,3.9935,3.9833,3.9807,0.0,0.0,0.0,3.9703,3.9563,0.0,3.9511,3.9379,3.9352,3.9325,3.9299,3.9299,3.9299,3.9299,3.9175,3.9094,3.9094,3.8969,3.8969,3.9094,3.9094,3.9148,3.9299,3.9299,3.9299,3.9299,3.9299,3.9299,3.9299,3.9299,3.958,4.0111,4.031,4.0945,4.1955,4.2324,4.2787,4.33,4.3515,4.3598,4.3598,4.3598,4.3598,4.3598,4.3598,4.3598,4.3598,3.0341,2.9725,2.9448,3.0231,3.1043,3.2072,3.3558,3.4435,3.4931,3.4968,3.5716,3.6201,3.6091,3.679,3.6927,3.607,3.6708,3.6817,3.6,3.5964,3.5945,3.5909,3.5909,3.5897,3.582,3.5838,3.5792,3.5731,3.575,3.575,3.575,3.5786,3.6105,3.6677,3.7363,3.7819,3.8137,3.9412,3.9692,3.9351,4.0022,4.0146,3.9918,4.0213,4.0238,4.0121,4.0121,4.0121,4.0163,4.028,4.0238,4.0163,4.0263,4.0113,3.9926,3.9901,3.9807,3.9703,3.9703,3.9824,3.9901,3.9901,4.0011,4.0096,4.0096,4.0096,4.0096,4.007,4.007,4.0062,3.9926,3.9901,3.9849,0.0,3.9703,0.0,0.0,3.9501,3.9448,3.9325,3.9299,3.9299,3.9299,3.9299,3.9299,3.9299,3.9299,3.9299,3.9299,3.9299,3.9299,3.9299,3.9299,3.9299,3.9299,3.9299,3.9299,3.9299,3.9299,3.9315,3.9365,4.0078,4.0426,4.0558,4.1922,4.2506,4.2589,4.33,4.3598,4.3598,4.3598,4.3598,4.3598,4.3598,4.3598,4.3598,3.106,3.0815,3.0693,3.1059,3.1765,3.2768,3.4335,3.4765,3.5275,3.6197,3.7038,3.7735,3.8165,3.8946,3.9075,3.8193,3.8374,3.7924,3.6555,3.6514,3.6293,3.5768,3.5815,3.5849,3.5833,3.5833,3.5817,3.5804,3.6327,3.6596,3.6598,3.7142,3.7437,3.7572,3.8115,3.8541,3.8849,3.9425,3.9733,3.9832,3.98,3.972,3.9642,3.9833,3.9884,3.9833,3.9729,3.9755,3.9858,3.9884,3.9884,3.9858,3.9884,3.9798,3.9642,3.9729,3.9651,3.959,3.9677,3.9729,3.9755,3.9755,3.9858,3.9961,3.9961,4.0037,4.0096,4.0096,4.0096,4.0087,4.0037,4.0037,3.9986,0.0,0.0,3.9798,0.0,3.9642,3.959,3.9432,3.9352,3.9299,3.9299,3.9299,3.9299,3.9299,3.9299,3.9299,3.9299,3.9299,3.9299,3.9299,3.9299,3.9299,3.9299,3.9299,3.9299,3.9299,3.9299,3.9299,3.9315,3.9564,4.0166,4.1094,4.1574,4.2324,4.3251,4.3499,4.3598,4.3598,4.3598,4.3598,4.3598,4.3598,4.3598,4.3598,3.1766,3.1934,3.2031,3.1867,3.2703,3.3703,3.4673,3.5523,3.6324,3.7145,3.8179,3.8976,3.9373,3.9913,4.002,3.9425,3.9481,3.8942,3.7559,3.7591,3.7299,3.6487,3.6586,3.6653,3.6653,3.6653,3.6653,3.6653,3.7176,3.743,3.7448,3.7955,3.8268,3.8418,3.8901,3.9259,3.9512,3.9721,3.9885,3.9935,3.9563,3.9448,3.9448,3.952,3.9547,3.9547,3.9458,3.9484,3.9547,3.9547,3.9547,3.9547,3.9547,3.9511,3.9432,3.952,3.9511,3.9432,3.952,3.9573,3.9642,3.9642,3.9729,3.9824,3.9824,3.9935,4.0037,4.0037,4.0062,4.0096,4.0096,4.0096,4.0087,0.0,0.0,3.991,0.0,3.9729,3.9651,3.9528,3.9405,3.9352,3.9299,3.9299,3.9299,3.9299,3.9299,3.9299,3.9299,3.9299,3.9299,3.9299,3.9299,3.9299,3.9299,3.9299,3.9299,3.9299,3.9299,3.9299,3.9299,3.9299,3.9945,4.1061,4.1309,4.2075,4.3218,4.3482,4.3598,4.3598,4.3598,4.3598,4.3598,4.3598,4.3598,4.3598,3.2543,3.3106,3.3382,3.2739,3.386,3.4841,3.4857,3.6689,3.802,3.7864,3.9099,3.9932,3.9696,3.9791,3.983,3.9733,3.9946,3.9778,3.8991,3.9085,3.8833,3.8057,3.8141,3.8192,3.8192,3.8192,3.8192,3.8192,3.8192,3.8192,3.8192,3.8209,3.8523,3.9139,3.9668,3.9941,4.0028,4.0285,4.0112,3.9651,3.9405,3.9299,3.9299,3.9299,3.9299,3.9299,3.9299,3.9299,3.9299,3.9299,3.9299,3.9299,3.9299,3.9299,3.9299,3.9299,3.9299,3.9299,3.9299,3.9379,3.9501,3.9501,3.959,3.9677,3.9677,3.9781,3.9901,3.9901,3.9986,4.007,4.007,4.0087,4.007,0.0,0.0,0.0,3.9926,3.9807,3.9677,3.9554,3.9511,3.9458,3.9299,3.9299,3.9299,3.9299,3.9299,3.9299,3.9299,3.9299,3.9299,3.9299,3.9299,3.9299,3.9299,3.9299,3.9299,3.9299,3.9299,3.9299,3.9299,3.9332,3.9763,4.0492,4.116,4.186,4.2605,4.33,4.3598,4.3598,4.3598,4.3598,4.3598,4.3598,4.3598,4.3598,3.4656,3.4735,3.4607,3.4394,3.4959,3.5822,3.6851,3.7415,3.8221,3.9603,4.0079,4.0408,4.0753,4.0823,4.0639,4.0104,4.0236,4.0023,3.9328,3.8981,3.874,3.8526,3.8169,3.7969,3.7969,3.7969,3.7969,3.7969,3.8037,3.8053,3.8053,3.8157,3.854,3.9193,3.9669,3.9999,4.0162,4.0332,3.9995,3.9405,3.9325,3.9299,3.9299,3.9299,3.9299,3.9299,3.9299,3.9299,3.9299,3.9299,3.9299,3.9299,3.9299,3.9299,3.9299,3.9299,3.9299,3.9299,3.9299,3.9325,3.9352,3.9352,3.9458,3.9537,3.9537,3.9668,3.9755,3.9755,3.9781,3.9807,3.9807,3.9884,3.9935,3.9935,4.0037,4.007,4.0062,4.0037,3.9961,3.9824,3.972,3.9563,3.9325,3.9299,3.9299,3.9299,3.9299,3.9299,3.9299,3.9299,3.9299,3.9299,3.9299,3.9299,3.9299,3.9299,3.9299,3.9299,3.9299,3.9299,3.9315,3.9879,4.0481,4.1193,4.1893,4.2638,4.3317,4.3515,4.3598,4.3598,4.3598,4.3598,4.3598,4.3598,4.3598,4.3598,3.52,3.5332,3.5437,3.5697,3.62,3.6754,3.7323,3.8167,3.9083,4.0023,4.0356,4.0602,4.0873,4.0948,4.0845,4.0532,4.0672,4.0495,3.9874,3.9666,3.9457,3.9235,3.8992,3.8726,3.8438,3.842,3.8258,3.7899,3.7967,3.8181,3.8524,3.8595,3.9174,4.0166,4.0216,4.039,4.061,4.0246,3.9773,3.9299,3.9299,3.9299,0.0,3.9299,3.9299,3.9299,3.9299,3.9299,3.9299,3.9299,3.9299,3.9299,3.9299,3.9299,3.9299,3.9299,3.9299,3.9299,3.9299,3.9299,3.9299,3.9299,3.9352,3.9405,3.9405,3.9511,3.9599,3.9599,3.9651,3.9729,3.9798,3.9849,3.9926,3.9986,4.0062,4.0096,4.0096,4.0096,4.0062,3.9926,3.9781,3.9625,3.9405,3.9325,3.9299,3.9299,3.9299,3.9299,3.9299,3.9299,3.9299,3.9299,3.9299,3.9299,3.9299,3.9299,3.9299,3.9299,3.963,3.9779,3.9812,4.0498,4.1226,4.1893,4.2307,4.292,4.3598,4.3598,4.3598,4.3598,4.3598,4.3598,4.3598,4.3598,4.3598,4.3598,3.5363,3.574,3.6249,3.6827,3.7557,3.7887,3.7408,3.8924,4.0063,3.9824,4.0309,4.06,4.0461,4.0534,4.0673,4.0817,4.0995,4.0908,4.0486,4.0545,4.0406,3.9955,3.9966,3.9742,3.9174,3.9048,3.8672,3.799,3.7969,3.8364,3.9193,3.9175,3.9968,4.1347,4.0892,4.0832,4.1024,4.0079,3.9547,3.9299,3.9299,3.9299,3.9299,3.9299,3.9299,3.9299,3.9299,3.9299,3.9299,3.9299,3.9299,3.9299,3.9299,3.9299,3.9299,3.9299,3.9299,3.9299,3.9299,3.9299,3.9299,3.9299,3.9299,3.9299,3.9299,3.9379,3.9475,3.9475,3.9563,3.9677,3.9798,3.9849,3.991,4.0037,4.0087,4.0096,4.0087,4.007,4.0062,3.9926,3.9781,0.0,3.9511,3.9379,3.9299,3.9299,3.9299,3.9299,3.9299,3.9299,3.9299,3.9299,3.9299,3.9299,3.9299,3.9299,3.9348,3.9448,4.0094,4.0459,4.0531,4.1243,4.1877,4.2489,4.2589,4.3002,4.3598,4.3598,4.3598,4.3598,4.3598,4.3598,4.3598,4.3598,4.3598,4.3598,3.7676,3.7892,3.7959,3.8074,3.9146,3.9925,3.9741,3.9754,3.9934,4.0292,4.0368,4.0313,4.0171,4.0188,4.0263,4.0387,4.0534,4.0635,4.0651,4.0336,4.0145,4.0157,3.9749,3.9525,3.952,3.8862,3.8512,3.8483,3.7934,3.8169,3.9103,3.9121,3.9875,4.1212,4.0872,4.0612,4.0436,3.991,3.9547,3.9299,3.9299,3.9299,3.9299,3.9299,3.9299,3.9299,3.9299,3.9299,3.9299,3.9299,3.9299,3.9299,3.9299,3.9299,3.9299,3.9299,3.9299,3.9299,3.9299,3.9299,3.9299,3.9299,3.9299,3.9299,3.9299,3.9325,3.9342,3.9342,3.9352,3.9379,3.9405,3.959,3.9755,3.9781,3.9961,4.0062,3.9935,4.0037,4.0062,3.9926,3.9781,3.9668,3.9511,3.9379,3.9299,3.9299,3.9299,3.9299,3.9299,3.9299,3.9299,3.9299,3.9299,3.9299,3.9299,3.9299,3.9613,4.021,4.0343,4.068,4.1259,4.1988,4.2373,4.2522,4.3135,4.3466,4.3598,4.3598,4.3598,4.3598,4.3598,4.3598,4.3598,4.3598,4.3598,4.3598,3.822,3.8265,3.8429,3.9249,3.9878,4.0527,4.1222,4.1171,4.1008,4.0866,4.0807,4.0604,4.0146,4.0096,4.0163,4.0305,4.0362,4.0485,4.0697,4.0549,4.0561,4.0809,4.0717,4.0538,4.0314,3.9966,3.9635,3.9266,3.9023,3.9387,4.029,4.027,4.0823,4.1781,4.1059,4.0498,4.0079,3.9746,3.9484,3.9299,3.9299,3.9299,3.9299,3.9299,3.9299,3.9299,3.9299,3.9299,3.9299,3.9299,3.9299,3.9299,3.9299,3.9299,3.9299,3.9299,3.9299,3.9299,3.9299,3.9299,3.9299,3.9299,3.9299,3.9299,3.9299,3.9299,3.9299,3.9299,3.9299,3.9325,3.9379,3.9563,3.9703,3.9703,3.9858,3.9961,3.9901,4.0011,4.0062,3.9926,3.9781,3.9668,3.9511,3.9379,3.9299,3.9299,3.9299,3.9299,3.9299,3.9299,3.9299,3.9299,3.9299,3.9299,3.9299,3.9299,3.968,4.0409,4.0746,4.1293,4.1993,4.2721,4.3069,4.3085,4.3449,4.3598,4.3598,4.3598,4.3598,4.3598,4.3598,4.3598,4.3598,4.3598,4.3598,4.3598,3.8564,3.8646,3.9067,4.0272,4.0646,4.1178,4.2354,4.2523,4.2202,4.1322,4.1204,4.0916,4.018,4.0096,4.0138,4.0238,4.0263,4.0355,4.0551,4.068,4.0918,4.1232,4.1475,4.1433,4.1046,4.0934,4.0588,4.0006,3.9961,4.0401,4.1289,4.1227,4.1517,4.2047,4.1128,4.0377,3.9849,3.959,3.9422,3.9299,3.9299,3.9299,3.9299,3.9299,3.9299,3.9299,3.9299,3.9299,3.9299,3.9299,3.9299,3.9299,3.9299,3.9299,3.9299,3.9299,3.9299,3.9299,3.9299,3.9299,3.9299,3.9299,3.9299,3.9299,3.9299,3.9299,3.9299,3.9299,3.9299,3.9325,3.9448,3.9563,3.9651,3.9625,3.9772,3.9901,3.9875,3.9986,4.0037,3.9875,3.9755,3.9625,3.9458,3.9352,3.9299,3.9299,3.9299,3.9299,3.9299,3.9299,3.9299,3.9299,3.9299,3.9299,3.9299,3.9299,3.9746,4.0641,4.116,4.186,4.2738,4.3333,4.3598,4.3598,4.3598,4.3598,4.3598,4.3598,4.3598,4.3598,4.3598,4.3598,4.3598,4.3598,4.3598,4.3598,3.9807,4.0451,4.0959,4.1094,4.2219,4.3139,4.3274,4.3318,4.2784,4.139,4.1204,4.0916,4.018,4.0096,4.0113,4.0138,4.0138,4.0121,4.0146,4.0288,4.0478,4.0769,4.0912,4.1047,4.1173,4.0528,4.0254,4.0344,3.9698,3.992,4.0951,4.0887,4.0957,4.1117,4.059,4.0113,3.9703,3.9563,3.9422,3.9299,3.9299,3.9299,3.9299,3.9299,3.9299,3.9299,3.9299,3.9299,3.9299,3.9299,3.9299,3.9299,3.9299,3.9299,3.9299,3.9299,3.9299,3.9299,3.9299,3.9299,3.9299,3.9299,3.9299,3.9299,3.9299,3.9299,3.9299,3.9299,3.9299,3.9299,3.9325,3.9432,3.9484,3.9352,3.9668,3.9875,3.9729,3.9935,4.0011,3.9755,3.9703,3.9599,3.9352,3.9299,3.9299,3.9299,3.9299,3.9299,3.9299,3.9299,3.9299,3.9299,3.9299,3.9299,3.9299,3.9299,3.9995,4.1309,4.1375,4.2125,4.3499,4.3565,4.3598,4.3598,4.3598,4.3598,4.3598,4.3598,4.3598,4.3598,4.3598,4.3598,4.3598,4.3598,4.3598,4.3598,4.0722,4.1356,4.1999,4.2455,4.3003,4.3572,4.4045,4.3724,4.3047,4.1999,4.1474,4.0916,4.018,4.0096,4.0096,4.0096,4.0096,4.0096,4.0096,4.0213,4.0429,4.0697,4.0871,4.1065,4.1318,4.1106,4.1038,4.1108,4.081,4.0901,4.1396,4.1243,4.0964,4.0611,4.0221,3.9875,3.9563,3.9432,3.9352,3.9299,3.9299,3.9299,3.9299,3.9299,3.9299,3.9299,3.9299,3.9299,3.9299,3.9299,3.9299,3.9299,3.9299,3.9299,3.9299,3.9299,3.9299,3.9299,3.9299,3.9299,3.9299,3.9299,3.9299,3.9299,3.9299,3.9299,3.9299,3.9299,3.9299,3.9299,3.9299,3.9352,3.9352,3.9299,3.9511,3.9642,3.959,3.9729,3.9781,3.9616,3.959,3.9511,3.9325,3.9299,3.9299,3.9299,3.9299,3.9299,3.9299,3.9299,3.9299,3.9299,3.9299,3.9299,3.9299,3.9299,4.0028,4.1409,4.1409,4.2158,4.3598,4.3598,4.3598,4.3598,4.3598,4.3598,4.3598,4.3598,4.3598,4.3598,4.3598,4.3598,4.3598,4.3598,4.3598,4.3598,4.1525,4.2117,4.2794,4.3291,4.3606,4.3859,4.4198,4.3589,4.2811,4.2066,4.1322,4.0679,4.0163,4.0096,4.0096,4.0096,4.0096,4.0096,4.0096,4.0188,4.0337,4.0576,4.071,4.0901,4.1134,4.1226,4.1312,4.1335,4.1335,4.1346,4.1361,4.1146,4.0731,4.0237,3.9918,3.9642,3.9432,3.9325,3.9299,3.9299,3.9299,3.9299,3.9299,3.9299,3.9299,3.9299,3.9299,3.9299,3.9299,3.9299,3.9299,3.9299,3.9299,3.9299,3.9299,3.9299,3.9299,3.9299,3.9299,3.9299,3.9299,3.9299,3.9299,3.9299,3.9299,3.9299,3.9299,3.9299,3.9299,3.9299,3.9299,3.9299,3.9299,3.9299,3.9405,3.9501,3.9501,3.9616,3.9651,3.9528,3.9501,3.9448,3.9299,3.9299,3.9299,3.9299,3.9299,3.9299,3.9299,3.9299,3.9299,3.9299,3.9299,3.9299,3.9299,3.9514,4.0216,4.1409,4.1612,4.2373,4.3598,4.3598,4.3598,4.3598,4.3598,4.3598,4.3598,4.3598,4.3598,4.3598,4.3598,4.3598,4.3598,4.3598,4.3598,4.3598,4.2286,4.2878,4.3375,4.3392,4.4062,4.4316,4.3511,4.2794,4.2049,4.1322,4.0561,4.0113,4.0096,4.0096,4.0096,4.0096,4.0096,4.0096,4.0096,4.0096,4.0163,4.0305,4.0305,4.0362,4.051,4.051,4.0583,4.0697,4.0697,4.068,4.0604,4.0254,4.0037,3.9901,3.9616,3.9448,3.9299,3.9299,3.9299,3.9299,3.9299,3.9299,3.9299,3.9299,3.9299,3.9299,3.9299,3.9299,3.9299,3.9299,3.9299,3.9299,3.9299,3.9299,3.9299,3.9299,3.9299,3.9299,3.9299,3.9299,3.9299,3.9299,3.9299,3.9299,3.9299,3.9299,3.9299,3.9299,3.9299,3.9299,3.9299,3.9299,3.9299,3.9299,3.9405,3.9501,3.9501,3.9616,3.9651,3.9528,3.9501,3.9448,3.9299,3.9299,3.9299,3.9299,3.9299,3.9299,3.9299,3.9299,3.9299,3.9299,3.9299,3.9299,3.9299,4.0028,4.0713,4.1397,4.2125,4.287,4.3598,4.3598,4.3598,4.3598,4.3598,4.3598,4.3598,4.3598,4.3598,4.3598,4.3598,4.3598,4.3598,4.3598,4.3598,4.3598,4.3064,4.3673,4.4215,4.4215,4.4445,4.4344,4.3511,4.2777,4.2033,4.1305,4.0544,4.0096,4.0096,4.0096,4.0096,4.0096,4.0096,4.0096,4.0096,4.0096,4.0163,4.0288,4.0305,4.0362,4.051,4.051,4.0534,4.0558,4.0558,4.0461,4.0254,3.9969,3.9755,3.9616,3.9432,3.9325,3.9299,3.9299,3.9299,3.9299,3.9299,3.9299,3.9299,3.9299,3.9299,3.9299,3.9299,3.9299,3.9299,3.9299,3.9299,3.9299,3.9299,3.9299,3.9299,3.9299,3.9299,3.9299,3.9299,3.9299,3.9299,3.9299,3.9299,3.9299,3.9299,3.9299,3.9299,3.9299,3.9299,3.9299,3.9299,3.9299,3.9299,3.9299,3.9342,3.9352,3.9352,3.9405,3.9405,3.9379,3.9352,3.9352,3.9299,3.9299,3.9299,3.9299,3.9299,3.9299,3.9299,3.9299,3.9299,3.9299,3.9299,3.9299,3.9299,4.0044,4.0729,4.1397,4.2142,4.2886,4.3598,4.3598,4.3598,4.3598,4.3598,4.3598,4.3598,4.3598,4.3598,4.3598,4.3598,4.3598,4.3598,4.3598,4.3598,4.3598,4.3859,4.4248,4.4615,4.4615,4.4333,4.3893,4.3115,4.2354,4.161,4.0882,4.04,4.0096,4.0096,4.0096,4.0096,4.0096,4.0096,4.0096,4.0096,4.0096,4.0138,4.0213,4.0213,4.0263,4.0362,4.0345,4.0345,4.0345,4.0246,4.0096,3.9944,3.9677,3.9511,3.9422,3.9325,3.9299,3.9299,3.9299,3.9299,3.9299,3.9299,3.9299,3.9299,3.9299,3.9299,3.9299,3.9299,3.9299,3.9299,3.9299,3.9299,3.9299,3.9299,3.9299,3.9299,3.9299,3.9299,3.9299,3.9299,3.9299,3.9299,3.9299,3.9299,3.9299,3.9299,3.9299,3.9299,3.9299,3.9299,3.9299,3.9299,3.9299,3.9299,3.9299,3.9299,3.9299,3.9299,3.9299,3.9299,3.9299,3.9299,3.9299,3.9299,3.9299,3.9299,3.9299,3.9299,3.9299,3.9299,3.9299,3.9299,3.9299,3.9564,3.9713,3.9713,4.068,4.1392,4.1811,4.2555,4.3151,4.3598,4.3598,4.3598,4.3598,4.3598,4.3598,4.3598,4.3598,4.3598,4.3598,4.3598,4.3598,4.3598,4.3598,4.3598,4.3598,4.4615,4.4615,4.4615,4.4615,4.3927,4.3166,4.2405,4.1677,4.0933,4.0197,4.0096,4.0096,4.0096,4.0096,4.0096,4.0096,4.0096,4.0096,4.0096,4.0096,4.0096,4.0096,4.0096,4.0096,4.0096,4.0096,4.0113,4.0087,3.9833,3.9703,3.9677,3.9432,3.9299,3.9299,3.9299,3.9299,3.9299,3.9299,3.9299,3.9299,3.9299,3.9299,3.9299,3.9299,3.9299,3.9299,3.9299,3.9299,3.9299,3.9299,3.9299,3.9299,3.9299,3.9299,3.9299,3.9299,3.9299,3.9299,3.9299,3.9299,3.9299,3.9299,3.9299,3.9299,3.9299,3.9299,3.9299,3.9299,3.9299,3.9299,3.9299,3.9299,3.9299,3.9299,3.9299,3.9299,3.9299,3.9299,3.9299,3.9299,3.9299,3.9299,3.9299,3.9299,3.9299,3.9299,3.9299,3.9299,3.9299,3.9348,3.9381,3.9381,4.0044,4.0426,4.0475,4.1823,4.2522,4.2572,4.3267,4.3598,4.3598,4.3598,4.3598,4.3598,4.3598,4.3598,4.3598,4.3598,4.3598,4.3598,4.3598,4.3598,4.3598,4.3598,4.3598,4.3598,4.4615,4.4615,4.4615,4.4615,4.3927,4.3166,4.2405,4.1677,4.0933,4.0197,4.0096,4.0096,4.0096,4.0096,4.0096,4.0096,4.0096,4.0096,4.0096,4.0096,4.0096,4.0096,4.0096,4.0096,4.0096,4.0096,4.0062,3.9952,3.9781,3.9651,3.9537,3.9379,3.9299,3.9299,3.9299,3.9299,3.9299,3.9299,3.9299,3.9299,3.9299,3.9299,3.9299,3.9299,3.9299,3.9299,3.9299,3.9299,3.9299,3.9299,3.9299,3.9299,3.9299,3.9299,3.9299,3.9299,3.9299,3.9299,3.9299,3.9299,3.9299,3.9299,3.9299,3.9299,3.9299,3.9299,3.9299,3.9299,3.9299,3.9299,3.9299,3.9299,3.9299,3.9299,3.9299,3.9299,3.9299,3.9299,3.9299,3.9299,3.9299,3.9299,3.9299,3.9299,3.9299,3.9299,3.9299,3.9299,3.9299,3.9937,4.0236,4.0144,4.031,4.0658,4.116,4.2042,4.2771,4.3333,4.3515,4.3598,4.3598,4.3598,4.3598,4.3598,4.3598,4.3598,4.3598,4.3598,4.3598,4.3598,4.3598,4.3598,4.3598,4.3598,4.3598,4.3598,4.4615,4.4615,4.4615,4.4615,4.3656,4.276,4.2354,4.139,4.0544,4.0146,4.0096,4.0096,4.0096,4.0096,4.0096,4.0096,4.0096,4.0096,4.0096,4.0096,4.0096,4.0096,4.0096,4.0096,4.0096,4.0096,4.0045,3.9986,3.9807,3.9651,3.959,3.9379,3.9299,3.9299,3.9299,3.9299,3.9299,3.9299,3.9299,3.9299,3.9299,3.9299,3.9299,3.9299,3.9299,3.9299,3.9299,3.9299,3.9299,3.9299,3.9299,3.9299,3.9299,3.9299,3.9299,3.9299,3.9299,3.9299,3.9299,3.9299,3.9299,3.9299,3.9299,3.9299,3.9299,3.9299,3.9299,3.9299,3.9299,3.9299,3.9299,3.9299,3.9299,3.9299,3.9299,3.9325,3.9379,3.9325,3.9325,3.9379,3.9325,3.9299,3.9299,3.9299,3.9299,3.9299,3.9352,3.9379,3.9379,4.0238,4.0611,4.0409,4.1111,4.1642,4.1893,4.2622,4.3201,4.3598,4.3598,4.3598,4.3598,4.3598,4.3598,4.3598,4.3598,4.3598,4.3598,4.3598,4.3598,4.3598,4.3598,4.3598,4.3598,4.3598,4.3598,4.3598,4.4615,4.4615,4.4615,4.4615,4.3403,4.2422,4.2303,4.1145,4.0231,4.0113,4.0096,4.0096,4.0096,4.0096,4.0096,4.0096,4.0096,4.0096,4.0096,4.0096,4.0096,4.0096,4.0096,4.0096,4.0096,4.0096,4.007,4.0037,3.9807,3.9677,3.9625,3.9405,3.9299,3.9299,3.9299,3.9299,3.9299,3.9299,3.9299,3.9299,3.9299,3.9299,3.9299,3.9299,3.9299,3.9299,3.9299,3.9299,3.9299,3.9299,3.9299,3.9299,3.9299,3.9299,3.9299,3.9299,3.9299,3.9299,3.9299,3.9299,3.9299,3.9299,3.9299,3.9299,3.9299,3.9299,3.9299,3.9299,3.9299,3.9299,3.9299,3.9299,3.9299,3.9299,3.9325,3.9352,3.9484,3.9405,3.9405,3.9528,3.9432,3.9352,3.9352,3.9352,3.9352,3.9352,3.9575,3.9694,3.9694,4.0638,4.1053,4.0779,4.2132,4.2803,4.2713,4.3343,4.3628,4.3598,4.3598,4.3598,4.3598,4.3598,4.3598,4.3598,4.3598,4.3598,4.3598,4.3598,4.3598,4.3598,4.3598,4.3598,4.3598,4.3598,4.3598,4.3598,4.4615,4.4615,4.4615,4.4615,4.3842,4.3031,4.2388,4.1576,4.0798,4.018,4.0096,4.0096,4.0096,4.0096,4.0096,4.0096,4.0096,4.0096,4.0096,4.0096,4.0096,4.0096,4.0096,4.0096,4.0096,4.0096,3.9995,3.9755,3.9729,3.9573,3.9352,3.9325,3.9299,3.9299,3.9299,3.9299,3.9299,3.9299,3.9299,3.9299,3.9299,3.9299,3.9299,3.9299,3.9299,3.9299,3.9299,3.9299,3.9299,3.9299,3.9299,3.9299,3.9299,3.9299,3.9299,3.9299,3.9299,3.9299,3.9299,3.9299,3.9299,3.9299,3.9299,3.9299,3.9299,3.9299,3.9299,3.9299,3.9299,3.9299,3.9299,3.9299,3.9299,3.9299,3.9395,3.9475,3.9501,3.959,3.9651,3.9651,3.9651,3.9625,3.9625,3.9625,3.9625,3.9625,4.0237,4.0605,4.0605,4.2013,4.2763,4.2585,4.2847,4.3208,4.3685,4.3818,4.3763,4.3598,4.3598,4.3598,4.3598,4.3598,4.3598,4.3598,4.3598,4.3598,4.3598,4.3598,4.3598,4.3598,4.3598,4.3598,4.3598,4.3598,4.3598,4.3598,4.4615,4.4615,4.4615,4.4615,4.3927,4.3274,4.2946,4.2269,4.166,4.1348,4.1297,4.1297,4.1297,4.1297,4.1145,4.073,4.0679,4.0679,4.0679,4.0333,4.0096,4.0096,4.0096,4.0096,4.0096,4.0037,3.9935,3.9824,3.9668,3.9537,3.9422,3.9325,3.9299,3.9299,3.9299,3.9299,3.9299,3.9299,3.9299,3.9299,3.9299,3.9299,3.9299,3.9299,3.9299,3.9299,3.9299,3.9299,3.9299,3.9299,3.9299,3.9299,3.9299,3.9299,3.9299,3.9299,3.9299,3.9398,3.9779,3.9895,3.9995,4.0332,4.0431,4.0431,4.0431,4.0133,3.9995,4.0348,3.9846,3.9431,3.9829,3.9564,3.9299,3.9299,3.9352,3.9432,3.959,3.9616,3.9776,4.0335,4.0333,4.0457,4.0843,4.0893,4.0893,4.0876,4.1265,4.1493,4.1493,4.2638,4.3282,4.3227,4.3462,4.3734,4.3998,4.3998,4.391,4.3763,4.3763,4.3687,4.3598,4.3598,4.3598,4.3598,4.3598,4.3598,4.3598,4.3598,4.3598,4.3598,4.3598,4.3598,4.3598,4.3598,4.3598,4.3598,4.4615,4.4615,4.4615,4.4615,4.4079,4.3639,4.3426,4.2929,4.2489,4.2303,4.2286,4.2286,4.2286,4.2286,4.2066,4.1508,4.1457,4.1457,4.1457,4.0942,4.062,4.062,4.0451,4.0257,4.0062,3.9935,3.9875,3.9798,3.959,3.9484,3.9432,3.9352,3.9299,3.9299,3.9299,3.9299,3.9299,3.9299,3.9299,3.9299,3.9299,3.9299,3.9299,3.9299,3.9299,3.9299,3.9299,3.9299,3.9299,3.9299,3.9299,3.9299,3.9299,3.9415,3.9564,3.9564,3.968,3.9895,4.0293,4.0525,4.0746,4.1276,4.1409,4.1409,4.1409,4.0994,4.0763,4.1309,4.0531,3.9951,4.0514,4.0044,3.9564,3.9564,3.9441,3.9498,3.9876,3.9866,4.0187,4.1146,4.1194,4.1359,4.1957,4.2007,4.2007,4.2007,4.2257,4.2412,4.2412,4.323,4.369,4.369,4.4024,4.4184,4.4155,4.4155,4.4068,4.3956,4.3927,4.3839,4.3658,4.3628,4.3598,4.3598,4.3598,4.3598,4.3598,4.3598,4.3598,4.3598,4.3598,4.3598,4.3598,4.3598,4.3598,4.3598,4.4615,4.4615,4.4615,4.4615,4.4564,4.4248,4.3494,4.3341,4.3081,4.2388,4.2286,4.2286,4.2286,4.2286,4.2269,4.2219,4.2219,4.2219,4.2219,4.2151,4.2134,4.2134,4.1474,4.0746,3.9926,3.9901,3.9772,3.9528,3.9528,3.9448,3.9299,3.9299,3.9299,3.9299,3.9299,3.9299,3.9299,3.9299,3.9299,3.9299,3.9299,3.9299,3.9299,3.9299,3.9299,3.9299,3.9299,3.9299,3.9299,3.9299,3.9299,3.9299,3.9299,3.9779,4.0326,4.0326,4.0763,4.1127,4.0531,4.0845,4.1359,4.1409,4.1409,4.1409,4.1409,4.1375,4.1359,4.1409,4.1326,4.1276,4.1326,4.0763,4.0326,4.0326,3.9844,3.9734,4.0417,4.0742,4.118,4.1937,4.2112,4.2209,4.226,4.226,4.226,4.226,4.2919,4.3308,4.3308,4.4079,4.4513,4.4513,4.4553,4.4468,4.4281,4.4281,4.4224,4.4068,4.3956,4.3898,4.3868,4.3687,4.3598,4.3598,4.3598,4.3598,4.3598,4.3598,4.3598,4.3598,4.3598,4.3598,4.3598,4.3598,4.3598,4.3598,4.4615,4.4615,4.4615,4.4615,4.4615,4.4513,4.4181,4.413,4.4028,4.3768,4.3735,4.3735,4.3735,4.3735,4.3521,4.3031,4.298,4.298,4.298,4.298,4.2574,4.166,4.1261,4.0719,3.9918,3.972,3.959,3.9501,3.9422,3.9352,3.9299,3.9299,3.9299,3.9299,3.9299,3.9299,3.9299,3.9299,3.9299,3.9299,3.9299,3.9299,3.9299,3.9299,3.9299,3.9299,3.9299,3.9299,3.9299,3.9299,3.9597,3.9978,3.9978,4.0448,4.1011,4.1011,4.1524,4.2026,4.1773,4.1905,4.2175,4.2638,4.2754,4.2754,4.2754,4.2406,4.2208,4.2655,4.2026,4.1529,4.1993,4.1508,4.1011,4.1011,4.0851,4.0823,4.1239,4.1366,4.177,4.2684,4.2823,4.3074,4.3656,4.3735,4.3735,4.3735,4.3978,4.413,4.413,4.4418,4.4615,4.4615,4.4615,4.457,4.4468,4.4468,4.4412,4.4224,4.4097,4.3969,4.3898,4.3687,4.3598,4.3598,4.3598,4.3598,4.3598,4.3598,4.3598,4.3598,4.3598,4.3893,4.4224,4.3764,4.388,4.4224,4.4615,4.4615,4.4615,4.4615,4.4615,4.4615,4.4615,4.4615,4.4615,4.4615,4.4615,4.4615,4.4615,4.4615,4.4395,4.3826,4.3792,4.3792,4.3792,4.3792,4.3189,4.1885,4.1738,4.1321,4.0493,4.0291,4.0057,3.9781,3.97,3.9531,3.9299,3.9299,3.9299,3.9299,3.9299,3.9299,3.9315,3.9547,3.9647,3.9663,3.9879,3.9951,3.9951,3.9951,3.9951,3.9945,3.973,3.9647,3.9647,3.9647,3.9978,4.0442,4.0658,4.1193,4.1778,4.2009,4.244,4.2837,4.2837,4.2837,4.2969,4.3466,4.3598,4.3598,4.3598,4.3201,4.2986,4.3499,4.2787,4.2241,4.2738,4.2224,4.1728,4.1728,4.1546,4.1536,4.1886,4.1993,4.24,4.3373,4.3513,4.3827,4.4519,4.4615,4.4615,4.4615,4.4615,4.4615,4.4615,4.4615,4.4615,4.4615,4.4615,4.4615,4.4615,4.4615,4.4542,4.4395,4.4241,4.4126,4.4027,4.3793,4.3687,4.3687,4.3628,4.3598,4.3598,4.3598,4.3598,4.3615,4.383,4.4257,4.4655,4.4406,4.4605,4.4937,4.4615,4.4615,4.4615,4.4615,4.4615,4.4615,4.4615,4.4615,4.4615,4.4615,4.4615,4.4615,4.4615,4.4615,4.4615,4.4615,4.4615,4.4615,4.4615,4.4615,4.4176,4.3239,4.3188,4.273,4.1705,4.1688,4.1266,4.0426,4.0426,4.0044,3.9315,3.9315,3.9315,3.9315,3.9315,3.9315,3.9365,4.0111,4.0426,4.0475,4.1127,4.1409,4.1409,4.1409,4.1409,4.1326,4.0658,4.0426,4.0426,4.0426,4.0426,4.0542,4.121,4.191,4.2638,4.3383,4.3598,4.3598,4.3598,4.3598,4.3598,4.3598,4.3598,4.3598,4.3598,4.3598,4.3598,4.3598,4.3598,4.3615,4.3615,4.3002,4.2506,4.2506,4.1893,4.1662,4.2406,4.2667,4.3122,4.3985,4.4224,4.4367,4.457,4.4615,4.4615,4.4615,4.4615,4.4632,4.4632,4.4632,4.4615,4.4615,4.4615,4.4615,4.4615,4.4615,4.4615,4.4615,4.4412,4.431,4.431,4.4027,4.3914,4.3914,4.3721,4.3615,4.3615,4.3615,4.3615,4.3681,4.4423,4.4705,4.4818,4.5516,4.5798,4.5698,4.4615,4.4615,4.4615,4.4615,4.4615,4.4615,4.4615,4.4615,4.4615,4.4615,4.4615,4.4615,4.4615,4.4615,4.4615,4.4615,4.4615,4.4615,4.4615,4.4468,4.4226,4.3836,4.3333,4.2629,4.1705,4.1571,4.1354,4.111,4.111,4.0994,4.0779,4.0779,4.0779,4.0779,4.0779,4.0779,4.0796,4.1011,4.111,4.1127,4.1326,4.1409,4.1409,4.1409,4.1409,4.1375,4.1177,4.111,4.111,4.111,4.1458,4.2005,4.2704,4.3085,4.3317,4.3532,4.3598,4.3598,4.3598,4.3598,4.3598,4.3598,4.3598,4.3598,4.3598,4.3598,4.3731,4.4274,4.4373,4.4522,4.5052,4.4539,4.4042,4.4042,4.3429,4.3019,4.3234,4.3326,4.3514,4.3923,4.4068,4.4212,4.4367,4.4514,4.479,4.5331,4.5838,4.6126,4.6126,4.6126,4.5906,4.5382,4.5365,4.5365,4.5365,4.4869,4.4615,4.4615,4.4412,4.4579,4.5072,4.488,4.5093,4.5594,4.5413,4.5352,4.5352,4.5213,4.5135,4.5168,4.5384,4.5875,4.6417,4.6117,4.6396,4.6805,4.4615,4.4615,4.4615,4.4615,4.4615,4.4615,4.4615,4.4615,4.4615,4.4615,4.4615,4.4615,4.4615,4.4615,4.4615,4.4615,4.4542,4.4468,4.4468,4.4327,4.4155,4.4027,4.3592,4.3056,4.2451,4.2332,4.2109,4.1827,4.1827,4.1707,4.1409,4.1409,4.1409,4.1409,4.1409,4.1409,4.1425,4.1695,4.1827,4.1844,4.2142,4.2258,4.2258,4.2258,4.2258,4.2224,4.1926,4.1827,4.1827,4.1827,4.2324,4.3002,4.3449,4.3598,4.3598,4.3598,4.3598,4.3598,4.3598,4.3598,4.3664,4.3976,4.3813,4.3664,4.3976,4.4042,4.4241,4.497,4.5135,4.5251,4.5715,4.5433,4.5135,4.5135,4.4754,4.4473,4.4473,4.4473,4.4533,4.47,4.4803,4.4951,4.5139,4.5272,4.5578,4.6109,4.6549,4.6786,4.6786,4.6786,4.6599,4.616,4.6143,4.6143,4.6143,4.5686,4.5478,4.5449,4.5346,4.5508,4.5963,4.5799,4.5975,4.6364,4.6246,4.6155,4.6079,4.597,4.5939,4.5955,4.6223,4.6747,4.7256,4.712,4.7383,4.773,4.4615,4.4615,4.4615,4.4615,4.4615,4.4615,4.4615,4.4615,4.4615,4.4615,4.4615,4.4615,4.4615,4.4615,4.4615,4.4615,4.4412,4.4293,4.4265,4.4155,4.4027,4.3927,4.3898,4.3822,4.3658,4.3628,4.3297,4.2647,4.2647,4.2299,4.1607,4.1607,4.1607,4.1595,4.1595,4.1595,4.1657,4.2307,4.2589,4.2655,4.3317,4.3598,4.3598,4.3598,4.3598,4.3499,4.2837,4.2589,4.2589,4.2589,4.3035,4.3598,4.3598,4.3598,4.3598,4.3598,4.3648,4.3698,4.3698,4.3731,4.3976,4.4622,4.4291,4.3962,4.4638,4.4818,4.5003,4.5748,4.5897,4.5914,4.598,4.593,4.5897,4.5897,4.5831,4.5798,4.5798,4.5798,4.5844,4.5982,4.5996,4.6135,4.6455,4.6565,4.6705,4.6887,4.6955,4.6989,4.6989,4.6989,4.6955,4.6887,4.6887,4.6887,4.6887,4.6887,4.6853,4.6786,4.6786,4.6819,4.6887,4.6722,4.6679,4.6716,4.6566,4.643,4.6341,4.6324,4.6293,4.636,4.7043,4.7387,4.7627,4.8281,4.8547,4.8463,4.4615,4.4615,4.4615,4.4615,4.4615,4.4615,4.4615,4.4615,4.4615,4.4615,4.4615,4.4615,4.4615,4.4615,4.4615,4.4615,4.4412,4.4253,4.4155,4.4027,4.3985,4.4039,4.3956,4.3927,4.3981,4.3881,4.3798,4.3731,4.3731,4.3606,4.3356,4.3356,4.3281,4.3118,4.3118,4.3118,4.3118,4.3284,4.335,4.3367,4.3532,4.3598,4.3598,4.3598,4.3598,4.3582,4.3416,4.335,4.335,4.335,4.3466,4.3598,4.3598,4.3598,4.3598,4.3598,4.4026,4.4456,4.4456,4.487,4.5351,4.5516,4.5433,4.5351,4.5516,4.5549,4.5765,4.651,4.6659,4.6841,4.7421,4.7057,4.6659,4.6659,4.6179,4.5798,4.5798,4.5798,4.5829,4.5844,4.592,4.6105,4.6304,4.71,4.7605,4.7682,4.8206,4.8528,4.8528,4.8528,4.8257,4.7699,4.7682,4.7682,4.7682,4.7682,4.7378,4.6786,4.6786,4.7107,4.7682,4.7605,4.7909,4.845,4.8312,4.8236,4.8205,4.8046,4.7983,4.8,4.8167,4.8329,4.8536,4.8688,4.8784,4.8892,4.4615,4.4615,4.4615,4.4615,4.4615,4.4615,4.4615,4.4615,4.4615,4.4615,4.4615,4.4615,4.4615,4.4615,4.457,4.4468,4.4298,4.4155,4.4027,4.3956,4.3927,4.3998,4.3998,4.4056,4.4196,4.4126,4.4097,4.4097,4.4097,4.4068,4.3998,4.3998,4.3939,4.3835,4.3776,4.3734,4.3734,4.3628,4.3598,4.3598,4.3598,4.3598,4.3598,4.3598,4.3598,4.3598,4.3598,4.3598,4.3598,4.3598,4.3598,4.3598,4.3598,4.3598,4.3664,4.4026,4.439,4.4771,4.5119,4.55,4.5864,4.6228,4.6311,4.6311,4.6311,4.6311,4.6527,4.7272,4.7421,4.7537,4.7934,4.7686,4.7421,4.7421,4.7106,4.6841,4.6841,4.6841,4.6841,4.6841,4.6888,4.7047,4.7328,4.8006,4.8443,4.8443,4.8781,4.9001,4.9001,4.9001,4.8832,4.8443,4.8443,4.8443,4.8443,4.8443,4.824,4.7851,4.7851,4.8054,4.8443,4.8443,4.8646,4.9001,4.8925,4.8863,4.8769,4.8707,4.8627,4.8627,4.8627,4.8769,4.8894,4.8894,4.8956,4.9001,4.4615,4.4615,4.4615,4.4615,4.4615,4.4615,4.4615,4.4615,4.4615,4.4615,4.4615,4.4615,4.4615,4.4615,4.4514,4.431,4.4196,4.4085,4.3939,4.3927,4.3939,4.3985,4.4068,4.4212,4.4338,4.4367,4.431,4.4184,4.4212,4.4212,4.4184,4.4212,4.4184,4.4126,4.3998,4.3927,4.3927,4.3734,4.3658,4.3658,4.3658,4.3628,4.3598,4.3598,4.3598,4.3598,4.3598,4.3598,4.3598,4.3598,4.3681,4.378,4.378,4.3863,4.4108,4.4705,4.497,4.5202,4.5814,4.6079,4.6311,4.6941,4.709,4.709,4.709,4.709,4.7255,4.7868,4.8001,4.8001,4.8001,4.8001,4.8001,4.8001,4.8001,4.8001,4.8001,4.8001,4.8001,4.8001,4.8066,4.8179,4.8483,4.8798,4.9001,4.9001,4.9001,4.9001,4.9001,4.9001,4.9001,4.9001,4.9001,4.9001,4.9001,4.9001,4.9001,4.9001,4.9001,4.9001,4.9001,4.9001,4.9001,4.9001,4.9001,4.8956,4.8832,4.8832,4.8832,4.8832,4.8832,4.8894,4.9001,4.9001,4.9001,4.9001,4.4615,4.4615,4.4615,4.4615,4.4615,4.4615,4.4615,4.4615,4.4615,4.4615,4.4615,4.4615,4.4615,4.4615,4.4514,4.431,4.4265,4.4224,4.4068,4.4068,4.4126,4.4253,4.4253,4.4367,4.4542,4.4665,4.4682,4.4514,4.4654,4.462,4.4446,4.462,4.4553,4.4281,4.4126,4.4068,4.4068,4.391,4.3868,4.3868,4.3868,4.3763,4.3598,4.3598,4.3598,4.3598,4.3598,4.3598,4.3598,4.3598,4.4026,4.4539,4.4539,4.4986,4.5516,4.5616,4.6096,4.6609,4.6725,4.7222,4.7736,4.7835,4.7852,4.7852,4.7852,4.7852,4.7885,4.7984,4.8001,4.8001,4.8001,4.8001,4.8001,4.8001,4.8001,4.8001,4.8001,4.8001,4.8001,4.8001,4.8244,4.8452,4.8483,4.8798,4.9001,4.9001,4.9001,4.9001,4.9001,4.9001,4.9001,4.9001,4.9001,4.9001,4.9001,4.9001,4.9001,4.9001,4.9001,4.9001,4.9001,4.9001,4.9001,4.9001,4.9001,4.9001,4.897,4.897,4.897,4.897,4.897,4.897,4.9001,4.9001,4.9001,4.9001,4.4615,4.4615,4.4626,4.4709,4.4654,4.4643,4.4709,4.4654,4.4615,4.4615,4.4615,4.4615,4.4615,4.4615,4.4514,4.431,4.431,4.4253,4.4097,4.4184,4.4253,4.431,4.4412,4.4514,4.4615,4.4737,4.4776,4.4709,4.4913,4.4978,4.4889,4.5042,4.4978,4.4676,4.4435,4.4281,4.4196,4.3998,4.3939,4.3998,4.3927,4.3868,4.3763,4.3628,4.3598,4.3598,4.3598,4.3876,4.4224,4.4224,4.4705,4.5301,4.5301,4.5533,4.5864,4.6278,4.6643,4.699,4.7404,4.7752,4.8001,4.8001,4.8001,4.8001,4.8001,4.8001,4.8001,4.8001,4.8001,4.8001,4.8001,4.8001,4.8001,4.8001,4.8001,4.8001,4.8001,4.8001,4.8033,4.8115,4.8324,4.8547,4.8658,4.8877,4.9001,4.9001,4.9001,4.9001,4.9001,4.9001,4.9001,4.9001,4.9001,4.9001,4.9001,4.9001,4.9204,4.961,4.961,4.9407,4.9001,4.9001,4.9001,4.9001,4.9001,4.9001,4.9001,4.9001,4.9001,4.9001,4.9001,4.9001,4.9001,4.9001,4.9001,4.9001]}]]